[[{"header":{"parameterUnit":"m.s-1","parameterCategory":1,"la1":30.6,"la2":29.2853,"lo1":-89.7004,"lo2":-87.6739,"dy":0.0162,"dx":0.0183,"nx":112,"ny":82,"refTime":"2023-08-08T12:00:00:Z","depth":0,"parameterNumber":2,"parameterNumberName":"U-component_of_WINDS"},"data":[0.0,0.0,0.0,0.0,0.0,0.0,0.0,0.0,0.0,0.0,0.0,0.0,0.0,0.0,0.0,0.0,0.0,0.0,0.0,0.0,0.0,0.0,0.0,0.0,0.0,0.0,0.0,0.0,0.0,0.0,0.0,0.0,0.0,0.0,0.0,0.0,0.0,0.0,0.0,0.0,0.0,0.0,0.0,0.0,0.0,0.0,0.0,0.0,0.0,0.0,0.0,0.0,0.0,0.0,0.0,0.0,0.0,0.0,0.0,0.0,0.0,0.0,0.0,0.0,0.0,0.0,0.0,0.0,0.0,0.0,0.0,0.0,0.0,0.0,0.0,0.0,0.0,0.0,0.0,0.0,0.0,0.0,0.0,0.0,0.0,0.0,0.0,0.0,0.0,0.0,-5.0913,-5.6359,-6.4783,-7.0635,-7.209,-7.2022,-6.82,-5.9578,0.0,0.0,0.0,0.0,0.0,0.0,0.0,0.0,0.0,0.0,0.0,0.0,0.0,0.0,0.0,0.0,0.0,0.0,0.0,0.0,0.0,0.0,0.0,0.0,0.0,0.0,0.0,0.0,0.0,0.0,0.0,0.0,0.0,0.0,0.0,0.0,0.0,0.0,0.0,0.0,0.0,0.0,0.0,0.0,0.0,0.0,0.0,0.0,0.0,0.0,0.0,0.0,0.0,0.0,0.0,0.0,0.0,0.0,0.0,0.0,0.0,0.0,0.0,0.0,0.0,0.0,0.0,0.0,0.0,0.0,0.0,0.0,0.0,0.0,0.0,0.0,0.0,0.0,0.0,0.0,0.0,0.0,0.0,0.0,0.0,0.0,0.0,0.0,0.0,0.0,0.0,0.0,0.0,0.0,0.0,0.0,0.0,0.0,0.0,0.0,0.0,0.0,0.0,0.0,-5.1758,-6.1332,-6.6508,-6.9857,-7.1345,-7.0331,-6.655,-5.9478,0.0,0.0,0.0,0.0,0.0,0.0,0.0,0.0,0.0,0.0,0.0,0.0,0.0,0.0,0.0,0.0,0.0,0.0,0.0,0.0,0.0,0.0,0.0,0.0,0.0,0.0,0.0,0.0,0.0,0.0,0.0,0.0,0.0,0.0,0.0,0.0,0.0,0.0,0.0,0.0,0.0,0.0,0.0,0.0,0.0,0.0,0.0,0.0,0.0,0.0,0.0,0.0,0.0,0.0,0.0,0.0,0.0,0.0,0.0,0.0,0.0,0.0,0.0,0.0,0.0,0.0,0.0,0.0,0.0,0.0,0.0,0.0,0.0,0.0,0.0,0.0,0.0,0.0,0.0,0.0,0.0,0.0,0.0,0.0,0.0,0.0,0.0,0.0,0.0,0.0,0.0,0.0,0.0,0.0,0.0,0.0,0.0,0.0,0.0,0.0,0.0,0.0,0.0,-4.9942,-5.4465,-6.2076,-6.6609,-6.9688,-7.1176,-6.9816,-6.6068,-5.9441,-5.5807,0.0,0.0,0.0,0.0,0.0,0.0,0.0,0.0,0.0,0.0,0.0,0.0,0.0,0.0,0.0,0.0,0.0,0.0,0.0,0.0,0.0,0.0,0.0,0.0,0.0,0.0,0.0,0.0,0.0,0.0,0.0,0.0,0.0,0.0,0.0,0.0,0.0,0.0,0.0,0.0,0.0,0.0,0.0,0.0,0.0,0.0,0.0,0.0,0.0,0.0,0.0,0.0,0.0,0.0,0.0,0.0,0.0,0.0,0.0,0.0,0.0,0.0,0.0,0.0,0.0,0.0,0.0,0.0,0.0,0.0,0.0,0.0,0.0,0.0,0.0,0.0,0.0,0.0,0.0,0.0,0.0,0.0,0.0,0.0,0.0,0.0,0.0,0.0,0.0,0.0,0.0,0.0,0.0,0.0,0.0,0.0,0.0,0.0,0.0,0.0,0.0,0.0,-5.3146,-5.6824,-6.1873,-6.6102,-6.9059,-7.0322,-6.8293,-6.4487,-5.858,-5.3687,0.0,0.0,0.0,0.0,0.0,0.0,0.0,0.0,0.0,0.0,0.0,0.0,0.0,0.0,0.0,0.0,0.0,0.0,0.0,0.0,0.0,0.0,0.0,0.0,0.0,0.0,0.0,0.0,0.0,0.0,0.0,0.0,0.0,0.0,0.0,0.0,0.0,0.0,0.0,0.0,0.0,0.0,0.0,0.0,0.0,0.0,0.0,0.0,0.0,0.0,0.0,0.0,0.0,0.0,0.0,0.0,0.0,0.0,0.0,0.0,0.0,0.0,0.0,0.0,0.0,0.0,0.0,0.0,0.0,0.0,0.0,0.0,0.0,0.0,0.0,0.0,0.0,0.0,0.0,0.0,0.0,0.0,0.0,0.0,0.0,0.0,0.0,0.0,0.0,0.0,0.0,0.0,0.0,0.0,0.0,0.0,0.0,0.0,0.0,0.0,0.0,0.0,-5.2937,-5.7381,-6.1936,-6.5155,-6.7214,-6.7729,-6.4162,-6.0083,-5.5825,-5.0483,0.0,0.0,0.0,0.0,0.0,0.0,0.0,0.0,0.0,0.0,0.0,0.0,0.0,0.0,0.0,0.0,0.0,0.0,0.0,0.0,0.0,0.0,0.0,0.0,0.0,0.0,0.0,0.0,0.0,0.0,0.0,0.0,0.0,0.0,0.0,0.0,0.0,0.0,0.0,0.0,0.0,0.0,0.0,0.0,0.0,0.0,0.0,0.0,0.0,0.0,0.0,0.0,0.0,0.0,0.0,0.0,0.0,0.0,0.0,0.0,0.0,0.0,0.0,0.0,0.0,0.0,0.0,0.0,0.0,0.0,0.0,0.0,0.0,0.0,0.0,0.0,0.0,0.0,0.0,0.0,0.0,0.0,0.0,0.0,0.0,0.0,0.0,0.0,0.0,0.0,0.0,0.0,0.0,0.0,0.0,0.0,0.0,0.0,0.0,0.0,0.0,0.0,-5.1614,-5.5336,0.0,-6.2908,-6.4536,-6.5199,-6.2866,-5.9479,-5.4953,0.0,0.0,0.0,0.0,0.0,0.0,0.0,0.0,0.0,0.0,0.0,0.0,0.0,0.0,0.0,0.0,0.0,0.0,0.0,0.0,0.0,0.0,0.0,0.0,0.0,0.0,0.0,0.0,0.0,0.0,0.0,0.0,0.0,0.0,0.0,0.0,0.0,0.0,0.0,0.0,0.0,0.0,0.0,0.0,0.0,0.0,0.0,0.0,0.0,0.0,0.0,0.0,0.0,0.0,0.0,0.0,0.0,0.0,0.0,0.0,0.0,0.0,0.0,0.0,0.0,0.0,0.0,0.0,0.0,0.0,0.0,0.0,0.0,0.0,0.0,0.0,0.0,0.0,0.0,0.0,0.0,0.0,0.0,0.0,0.0,0.0,0.0,0.0,0.0,0.0,0.0,0.0,0.0,0.0,0.0,0.0,0.0,0.0,0.0,0.0,0.0,0.0,-4.7664,-5.0533,-5.3977,0.0,-6.1054,-6.228,-6.2711,-6.0323,-5.7055,-5.3112,0.0,0.0,0.0,0.0,0.0,0.0,0.0,0.0,0.0,0.0,0.0,0.0,0.0,0.0,0.0,0.0,0.0,0.0,0.0,0.0,0.0,0.0,0.0,0.0,0.0,0.0,0.0,0.0,0.0,0.0,0.0,0.0,0.0,0.0,0.0,0.0,0.0,0.0,0.0,0.0,0.0,0.0,0.0,0.0,0.0,0.0,0.0,0.0,0.0,0.0,0.0,0.0,0.0,0.0,0.0,0.0,0.0,0.0,0.0,0.0,0.0,0.0,0.0,0.0,0.0,0.0,0.0,0.0,0.0,0.0,0.0,0.0,0.0,0.0,0.0,0.0,0.0,0.0,0.0,0.0,0.0,0.0,0.0,0.0,0.0,0.0,0.0,0.0,0.0,0.0,0.0,0.0,0.0,0.0,0.0,0.0,0.0,0.0,0.0,0.0,0.0,0.0,-4.6267,-4.9841,-5.3751,-5.8087,-5.9825,-6.0554,-6.0313,-5.591,-5.2219,0.0,0.0,0.0,0.0,0.0,0.0,0.0,0.0,0.0,0.0,0.0,0.0,0.0,0.0,0.0,0.0,0.0,0.0,0.0,0.0,0.0,0.0,0.0,0.0,0.0,0.0,0.0,0.0,0.0,0.0,0.0,0.0,0.0,0.0,0.0,0.0,0.0,0.0,0.0,0.0,0.0,0.0,0.0,0.0,0.0,0.0,0.0,0.0,0.0,0.0,0.0,0.0,0.0,0.0,0.0,0.0,0.0,0.0,0.0,0.0,0.0,0.0,0.0,0.0,0.0,0.0,0.0,0.0,0.0,0.0,0.0,0.0,0.0,0.0,0.0,0.0,0.0,0.0,0.0,0.0,0.0,0.0,0.0,0.0,0.0,0.0,0.0,0.0,0.0,0.0,0.0,0.0,0.0,0.0,0.0,0.0,0.0,0.0,0.0,0.0,0.0,0.0,0.0,-4.5559,-4.8193,-5.1257,-5.562,-5.7176,-5.7886,-5.7849,-5.5193,-5.225,-4.9097,0.0,0.0,0.0,0.0,0.0,0.0,0.0,0.0,0.0,0.0,0.0,0.0,0.0,0.0,0.0,0.0,0.0,0.0,0.0,0.0,0.0,0.0,0.0,0.0,0.0,0.0,0.0,0.0,0.0,0.0,0.0,0.0,0.0,0.0,0.0,0.0,0.0,0.0,0.0,0.0,0.0,0.0,0.0,0.0,0.0,0.0,0.0,0.0,0.0,0.0,0.0,0.0,0.0,0.0,0.0,0.0,0.0,0.0,0.0,0.0,0.0,0.0,0.0,0.0,0.0,0.0,0.0,0.0,0.0,0.0,0.0,0.0,0.0,0.0,0.0,0.0,0.0,0.0,0.0,0.0,0.0,0.0,0.0,0.0,0.0,0.0,0.0,0.0,0.0,0.0,0.0,0.0,0.0,0.0,0.0,0.0,0.0,0.0,0.0,0.0,0.0,0.0,-4.4446,-4.7068,-5.0016,-5.3715,-5.5225,-5.5838,-5.5561,-5.3929,-5.1467,-4.8019,0.0,0.0,0.0,0.0,0.0,0.0,0.0,0.0,0.0,0.0,0.0,0.0,0.0,0.0,0.0,0.0,0.0,0.0,0.0,0.0,0.0,0.0,0.0,0.0,0.0,0.0,0.0,0.0,0.0,0.0,0.0,0.0,0.0,0.0,0.0,0.0,0.0,0.0,0.0,0.0,0.0,0.0,0.0,0.0,0.0,0.0,0.0,0.0,0.0,0.0,0.0,0.0,0.0,0.0,0.0,0.0,0.0,0.0,0.0,0.0,0.0,0.0,0.0,0.0,0.0,0.0,0.0,0.0,0.0,0.0,0.0,0.0,0.0,0.0,0.0,0.0,0.0,0.0,0.0,0.0,0.0,0.0,0.0,0.0,0.0,0.0,0.0,0.0,0.0,0.0,0.0,0.0,0.0,0.0,0.0,0.0,0.0,0.0,0.0,0.0,0.0,0.0,-4.3162,-4.6419,-4.9558,-5.2236,-5.376,-5.4283,-5.3591,-5.2359,-5.0174,-4.6819,0.0,0.0,0.0,0.0,0.0,0.0,0.0,0.0,0.0,0.0,0.0,0.0,0.0,0.0,0.0,0.0,0.0,0.0,0.0,0.0,0.0,0.0,0.0,0.0,0.0,0.0,0.0,0.0,0.0,0.0,0.0,0.0,0.0,0.0,0.0,0.0,0.0,0.0,0.0,0.0,0.0,0.0,0.0,0.0,0.0,0.0,0.0,0.0,0.0,0.0,0.0,0.0,0.0,0.0,0.0,0.0,0.0,0.0,0.0,0.0,-5.655,0.0,0.0,0.0,0.0,0.0,0.0,0.0,0.0,0.0,0.0,0.0,0.0,0.0,0.0,0.0,0.0,0.0,0.0,0.0,0.0,0.0,0.0,0.0,0.0,0.0,0.0,0.0,0.0,0.0,0.0,0.0,0.0,0.0,0.0,0.0,0.0,0.0,0.0,0.0,0.0,0.0,-4.254,-4.5741,-4.8666,-5.0882,-5.2821,-5.3437,-5.2236,-5.1374,-4.9682,-4.6788,-4.4856,0.0,0.0,0.0,0.0,0.0,0.0,0.0,0.0,0.0,0.0,0.0,0.0,0.0,0.0,0.0,0.0,0.0,0.0,0.0,0.0,0.0,0.0,0.0,0.0,0.0,0.0,0.0,0.0,0.0,0.0,0.0,0.0,0.0,0.0,0.0,0.0,0.0,0.0,0.0,0.0,0.0,0.0,0.0,0.0,0.0,0.0,0.0,0.0,0.0,0.0,0.0,0.0,0.0,0.0,0.0,0.0,0.0,0.0,0.0,0.0,-5.8221,0.0,0.0,0.0,0.0,0.0,0.0,0.0,0.0,0.0,0.0,0.0,0.0,0.0,0.0,0.0,0.0,0.0,0.0,0.0,0.0,0.0,0.0,0.0,0.0,0.0,0.0,0.0,0.0,0.0,0.0,0.0,0.0,0.0,0.0,0.0,0.0,0.0,0.0,0.0,0.0,-4.2756,-4.5434,-4.7927,-4.9989,-5.1744,-5.2329,-5.1313,-5.0882,-4.9528,-4.6757,-4.5003,0.0,0.0,0.0,0.0,0.0,0.0,0.0,0.0,0.0,0.0,0.0,0.0,0.0,0.0,0.0,0.0,0.0,0.0,0.0,0.0,0.0,0.0,0.0,0.0,0.0,0.0,0.0,0.0,0.0,0.0,0.0,0.0,0.0,0.0,0.0,0.0,0.0,0.0,0.0,0.0,0.0,0.0,0.0,0.0,0.0,0.0,0.0,0.0,0.0,0.0,0.0,0.0,0.0,0.0,-7.0021,-7.0551,-6.9809,-6.9138,-6.8403,-6.5931,-6.3738,-6.1737,0.0,0.0,0.0,0.0,0.0,0.0,0.0,0.0,0.0,0.0,0.0,0.0,0.0,0.0,0.0,0.0,0.0,0.0,0.0,0.0,0.0,0.0,0.0,0.0,0.0,-4.8419,-4.8512,0.0,0.0,0.0,0.0,0.0,0.0,0.0,0.0,0.0,0.0,0.0,0.0,-4.3285,-4.5434,-4.7465,-4.9312,-5.0728,-5.119,-5.0389,-5.0543,-4.9528,-4.6757,-4.5557,-4.4018,0.0,0.0,0.0,0.0,0.0,0.0,0.0,0.0,0.0,0.0,0.0,0.0,0.0,0.0,0.0,0.0,0.0,0.0,0.0,0.0,0.0,0.0,0.0,0.0,0.0,0.0,0.0,0.0,0.0,0.0,0.0,0.0,-4.5532,-4.7221,0.0,0.0,0.0,0.0,0.0,0.0,0.0,0.0,0.0,0.0,0.0,0.0,0.0,0.0,-6.8091,-7.1798,-7.3739,-7.4083,-7.6818,-7.7809,-7.7293,-7.7087,-7.6545,-7.5759,-7.4783,0.0,-6.4117,-6.2385,0.0,0.0,0.0,0.0,0.0,0.0,0.0,0.0,0.0,0.0,0.0,0.0,0.0,0.0,0.0,0.0,0.0,0.0,0.0,0.0,0.0,0.0,-5.0297,-5.0882,-5.1621,-5.1744,0.0,-4.7404,-4.488,-4.3501,0.0,0.0,0.0,0.0,0.0,0.0,0.0,0.0,-4.3408,-4.5865,-4.7804,-4.8666,-4.9989,-5.0297,-4.9004,-4.9989,-4.9528,-4.6757,-4.6419,-4.5434,-4.3439,-4.134,0.0,0.0,0.0,0.0,0.0,0.0,0.0,0.0,0.0,0.0,0.0,0.0,0.0,0.0,0.0,0.0,0.0,0.0,0.0,0.0,0.0,0.0,0.0,0.0,0.0,0.0,0.0,0.0,0.0,-4.4746,-4.7757,-4.8048,-4.9048,-4.933,0.0,0.0,0.0,0.0,0.0,0.0,0.0,0.0,0.0,-6.8128,-6.9743,-7.1982,-7.4992,-7.7671,-7.927,-7.9746,-8.1123,-8.1335,-8.0491,-7.9985,-7.9199,-7.8236,-7.748,-7.5156,-7.1628,-6.7622,-6.4521,-6.2002,0.0,0.0,0.0,0.0,0.0,-5.6325,-5.8761,0.0,0.0,0.0,0.0,0.0,0.0,0.0,0.0,0.0,0.0,0.0,0.0,0.0,0.0,-5.3252,-5.3622,-5.3591,-5.2606,-5.0636,-4.8296,0.0,-4.4726,-4.3618,-4.1494,0.0,0.0,0.0,0.0,0.0,-4.4418,-4.608,-4.7434,-4.8512,-4.9528,-4.9866,-4.9281,-4.9774,-4.9281,-4.7281,-4.6449,-4.528,-4.3685,-4.1617,-4.0132,0.0,0.0,0.0,0.0,0.0,0.0,0.0,0.0,0.0,0.0,0.0,0.0,0.0,0.0,0.0,0.0,0.0,0.0,0.0,0.0,0.0,0.0,0.0,0.0,0.0,0.0,0.0,0.0,-4.7457,-5.0031,-4.9002,-5.1831,-5.2942,0.0,0.0,0.0,0.0,0.0,0.0,-6.4761,-6.6769,-6.9779,-7.4221,-7.5542,-7.7745,-8.0975,-8.2406,-8.3508,-8.4282,-8.3665,-8.3097,-8.2611,-8.1477,-8.0383,-7.9321,-7.8738,-7.8208,-7.7392,-7.1901,-6.8527,-6.6534,-6.2921,-6.0499,-5.9133,-5.9877,-5.9911,-6.0047,-6.3024,-6.3463,-6.2584,-6.2009,0.0,-5.6801,-5.2646,0.0,0.0,0.0,0.0,-4.9866,-5.1929,0.0,-5.4099,-5.4822,-5.4976,-5.476,-5.3899,-5.279,-5.1005,0.0,-4.6573,-4.5311,-4.2786,0.0,0.0,0.0,0.0,-4.3156,-4.5311,-4.6326,-4.7311,-4.8481,-4.9097,-4.9343,-4.9158,-4.9312,-4.8758,-4.7188,-4.6296,-4.5249,-4.3932,-4.2048,-4.065,-3.9837,0.0,0.0,0.0,0.0,0.0,0.0,0.0,0.0,0.0,0.0,0.0,0.0,0.0,0.0,0.0,0.0,0.0,0.0,0.0,0.0,0.0,0.0,0.0,0.0,0.0,0.0,0.0,0.0,0.0,-5.1319,-5.6265,0.0,0.0,0.0,0.0,-6.207,-6.3918,-6.6696,-7.0632,-7.3156,-7.5946,-7.9323,-8.1709,-8.3398,-8.4352,-8.5196,-8.6004,-8.6777,-8.4369,-8.3615,-8.4289,-8.2279,-8.0926,-8.011,-7.9837,-7.9186,-7.8006,-7.3413,-7.0624,-6.8914,-6.5684,-6.3463,-6.2245,-6.3024,-6.37,-6.4377,-6.5256,-6.4647,-6.3802,-6.5831,-6.3399,-5.9164,-5.6073,-5.3459,0.0,0.0,-5.1534,-5.2021,-5.4052,-5.4591,-5.4806,-5.5499,-5.5653,-5.5284,-5.3991,-5.316,-5.1836,0.0,-4.7958,-4.685,-4.4787,0.0,-4.3254,-4.2602,-4.3618,-4.4726,-4.5495,-4.6726,-4.7835,-4.8543,-4.8635,-4.8419,-4.7773,-4.8296,-4.7804,-4.5803,-4.6234,-4.5926,-4.461,-4.3217,-4.2099,-4.1214,-3.9256,0.0,0.0,0.0,0.0,0.0,0.0,0.0,0.0,0.0,0.0,0.0,0.0,0.0,0.0,0.0,0.0,0.0,0.0,0.0,0.0,0.0,0.0,0.0,0.0,0.0,0.0,0.0,0.0,-5.5615,-6.0557,0.0,0.0,-6.2504,-6.4863,-6.7835,-7.0677,-7.356,-7.6607,-7.9066,-8.1379,-8.3581,-8.4499,-8.5343,-8.6151,-8.6444,-8.6738,-8.696,-8.5007,-8.4127,-8.4077,-8.1795,-8.0374,-7.9664,-7.8579,-7.8434,-7.8631,-7.5547,-7.3378,-7.1819,-6.9732,-6.803,-6.6745,-6.7015,-6.7286,-6.7523,-6.7793,-6.7557,-6.666,-6.3919,-6.0936,-5.7869,-5.5219,-5.3787,-5.31,-5.3534,-5.3927,-5.4545,-5.5745,-5.5684,-5.5407,-5.5622,-5.5037,-5.4299,-5.3837,-5.2852,-5.1652,-5.0236,-4.9035,-4.7742,-4.6142,-4.4941,-4.4178,-4.3895,-4.3932,-4.4363,-4.5434,-4.6388,-4.7219,-4.7896,-4.8358,-4.8512,-4.8266,-4.8081,-4.7281,-4.568,-4.5403,-4.4695,-4.3371,-4.2308,-4.1153,-3.9847,-3.8554,-3.7298,0.0,0.0,0.0,0.0,0.0,0.0,0.0,0.0,0.0,0.0,0.0,0.0,0.0,0.0,0.0,0.0,0.0,0.0,0.0,0.0,0.0,0.0,0.0,0.0,0.0,0.0,-5.8626,-5.8626,-6.4149,-6.7223,-6.5403,-6.7837,-7.0762,-7.3666,-7.6454,-7.904,-8.1305,-8.3471,-8.4976,-8.5747,-8.604,-8.6481,-8.6995,-8.6995,-8.6995,-8.696,-8.5223,-8.3976,-8.3176,-8.1304,-7.9968,-7.908,-7.8473,-7.8258,-7.8247,-7.6724,-7.5067,-7.3375,-7.2428,-7.1278,-7.0195,-6.9925,-6.9857,-6.9789,-6.9282,-6.9113,-6.835,-6.3718,-6.0882,-5.8928,-5.6774,-5.5677,-5.5191,-5.5622,-5.5899,-5.6115,-5.6378,-5.6053,-5.5592,-5.513,-5.436,-5.3591,-5.3129,-5.2329,-5.1436,-5.0543,-4.962,-4.8543,-4.7157,-4.6203,-4.5434,-4.5041,-4.491,-4.5095,-4.5526,-4.6388,-4.7034,-4.725,-4.7681,-4.7835,-4.7619,-4.7188,-4.6357,-4.5003,-4.4295,-4.3365,-4.2222,-4.1444,-4.0506,-3.9347,-3.8262,-3.6877,-3.5237,0.0,0.0,0.0,0.0,0.0,0.0,0.0,0.0,0.0,0.0,0.0,0.0,0.0,0.0,0.0,0.0,0.0,0.0,0.0,0.0,0.0,0.0,0.0,-5.2468,-5.7002,-6.0283,-6.0389,-6.7045,-7.0857,-6.8893,-7.2847,-7.6668,-7.9365,-8.1044,-8.2721,-8.4535,-8.6151,-8.6628,-8.5857,-8.6591,-8.6995,-8.6923,-8.6995,-8.6995,-8.6923,-8.4927,-8.3176,-8.1719,-8.0879,-7.9726,-7.84,-7.953,-7.8855,-7.686,-7.6826,-7.5506,-7.351,-7.3477,-7.3003,-7.2326,-7.1582,-7.1278,-7.1041,-6.9586,-6.9045,-6.8504,-6.5478,-6.3723,-6.2437,-6.0954,-5.9238,-5.7795,-5.7765,-5.7303,-5.6625,-5.5838,-5.5653,-5.5315,-5.4022,-5.3668,-5.3345,-5.2021,-5.1713,-5.1282,-4.9959,-4.9682,-4.922,-4.7865,-4.7619,-4.7157,-4.5865,-4.6757,0.0,-4.5772,-4.6757,-4.7311,-4.6634,-4.6573,-4.6326,-4.5649,-4.5557,-4.4979,-4.3624,-4.2879,-4.213,-4.1245,-4.0677,-4.0239,-3.9894,-3.8413,-3.6548,-3.4312,0.0,0.0,0.0,0.0,0.0,0.0,0.0,0.0,0.0,0.0,0.0,0.0,0.0,0.0,0.0,0.0,0.0,0.0,0.0,0.0,0.0,0.0,-5.4938,-5.619,-6.0419,-6.4421,-6.7255,-7.1429,-7.4498,-7.568,-7.77,-7.9478,-8.0917,-8.2659,-8.3893,-8.4572,-8.6151,-8.6921,-8.6701,-8.6885,-8.6632,-8.5942,-8.6632,-8.6563,-8.566,-8.4019,-8.3045,-8.2779,-8.0118,-7.8608,-7.8006,-7.728,-7.6589,-7.5946,-7.4864,-7.439,-7.4187,-7.3105,-7.2563,-7.2326,-7.1582,-7.0635,-6.9654,-6.9248,-6.803,-6.6163,-6.344,-6.1991,-6.0819,-5.8562,-5.749,-5.6964,-5.6423,-5.6115,-5.5838,-5.5161,-5.4637,-5.4176,-5.3806,-5.3345,-5.2883,-5.2513,-5.1652,-5.0851,-5.0482,-4.9589,-4.8789,-4.8389,-4.7927,-4.7465,-4.7096,0.0,0.0,-4.5711,-4.6357,-4.6603,-4.5926,-4.6296,-4.6326,-4.5649,-4.4733,-4.3593,0.0,-4.0927,-3.9941,-3.9302,-3.875,-3.8175,-3.7455,-3.6577,-3.5522,0.0,0.0,0.0,0.0,0.0,0.0,0.0,0.0,0.0,0.0,0.0,0.0,0.0,0.0,0.0,0.0,0.0,0.0,0.0,0.0,0.0,0.0,-5.4634,-5.8186,-5.9979,-6.3294,-6.7086,-7.1291,-7.399,-7.6482,-7.8897,-7.9973,-8.1122,-8.2424,-8.3511,-8.4454,-8.5323,-8.6238,-8.675,-8.675,-8.675,-8.6496,-8.5878,-8.6459,-8.6173,-8.5115,-8.3687,-8.2799,-8.2171,-7.9741,-7.8225,0.0,-7.6589,-7.5642,-7.4695,-7.3849,-7.3375,0.0,0.0,0.0,0.0,0.0,-6.962,-6.8538,-6.8233,-6.6837,-6.4723,-6.2299,-6.0854,-5.9695,-5.759,-5.6634,-5.6238,-5.5807,-5.5499,-5.513,-5.4483,-5.3976,-5.3652,-5.3375,-5.3006,-5.2637,-5.2359,-5.1682,-5.0944,-5.0389,0.0,0.0,-4.8666,-4.8296,-4.7927,-4.765,-4.7527,-4.7004,0.0,-4.6172,-4.6234,-4.528,-4.5526,-4.5588,-4.5187,-4.4209,0.0,0.0,0.0,-3.8858,-3.7912,-3.7485,0.0,0.0,0.0,-3.5684,0.0,0.0,0.0,0.0,-3.3207,-3.3295,0.0,0.0,0.0,0.0,0.0,0.0,0.0,0.0,0.0,0.0,0.0,0.0,0.0,0.0,0.0,0.0,-5.7572,-6.1332,-6.3802,-6.5831,-6.8642,-7.2931,-7.5066,-7.7117,-7.9429,-8.0619,-8.1852,-8.341,-8.3774,-8.4573,-8.6028,0.0,0.0,0.0,0.0,-8.6429,-8.6247,-8.6429,-8.5878,-8.4672,-8.3648,-8.2339,-8.0755,-7.9513,-7.8213,-7.6893,-7.6724,-7.5405,-7.3341,-7.3274,-7.2394,-7.1075,-7.1142,-7.1142,-7.0906,-6.9485,-6.847,0.0,0.0,0.0,0.0,-6.1583,-6.001,-5.8668,-5.7253,-5.6264,-5.5561,-5.5499,-5.5068,-5.4406,-5.373,-5.3622,-5.3468,-5.2852,-5.2698,-5.2513,-5.1836,-5.1652,-5.1221,-4.9928,-4.962,-4.9374,-4.8727,-4.8604,-4.8419,-4.7804,-4.8235,0.0,-4.6049,-4.6265,-4.6111,-4.4856,0.0,0.0,-4.4572,-4.3833,-4.3021,-4.2224,-4.0296,-3.8544,-3.7094,-3.6902,-3.6773,-3.6773,-3.7372,-3.6556,-3.4217,-3.5311,-3.4755,-3.2817,-3.299,-3.3565,0.0,0.0,0.0,0.0,0.0,0.0,0.0,0.0,0.0,0.0,0.0,0.0,0.0,0.0,0.0,-5.5368,-5.9861,-6.4072,-6.7523,-6.8402,-6.9501,-7.1663,-7.4444,-7.6905,-7.8683,-8.08,-8.2033,-8.1884,-8.3665,-8.4682,-8.4461,-8.57,0.0,-8.6429,-8.7049,-8.6684,-8.5264,-8.6648,-8.5766,-8.266,0.0,0.0,-8.0512,-7.8953,-7.7739,-7.6826,-7.5574,-7.4119,-7.2563,-7.1988,-7.0872,-6.9586,-7.0161,-7.006,-6.9417,-6.847,-6.7658,-6.6914,-6.617,-6.4086,-6.1516,-6.0368,-5.8482,-5.6541,-5.5456,-5.5054,0.0,-5.4268,-5.4022,-5.3775,-5.3098,-5.2914,-5.2883,-5.2729,-5.2698,-5.2513,-5.1836,-5.1282,-5.0667,-4.9835,-4.922,-4.8789,-4.8635,-4.8604,-4.8573,-4.845,-4.8543,-4.8266,-4.7342,-4.685,-4.6296,-4.5464,-4.491,-4.4534,-4.4343,-4.2898,-4.1822,-4.1423,-3.9528,-3.8105,-3.7361,-3.7429,-3.7429,-3.7293,-3.7379,-3.6623,-3.4927,-3.5152,-3.4591,-3.3404,-3.3461,-3.333,0.0,0.0,0.0,0.0,0.0,0.0,0.0,0.0,0.0,0.0,0.0,-4.4465,0.0,0.0,-5.4103,-5.7615,-6.1186,-6.4275,-6.6542,-6.7489,-6.9296,-7.2835,-7.4652,-7.6568,-7.8995,-8.037,-8.1454,-8.2359,-8.3556,-8.4428,-8.4937,-8.5736,-8.6172,-8.6172,-8.6536,-8.5912,-8.4153,-8.5384,-8.4421,-8.1313,-8.1698,-8.1344,-8.0321,-7.8695,-7.7604,-7.6792,-7.4864,-7.3409,-7.2326,-7.1616,-7.0432,-6.9147,-6.9519,-6.8944,-6.7861,-6.7083,-6.6339,-6.5595,-6.485,-6.2803,-6.0308,-5.9001,-5.7215,-5.5317,-5.408,-5.3714,-5.3652,-5.3314,-5.3221,-5.3129,-5.279,-5.2698,-5.2698,-5.2698,-5.2452,-5.2113,-5.1775,-5.1159,-5.0482,-4.9805,-4.9404,-4.9035,-4.8666,-4.8327,-4.8112,-4.8112,-4.8389,-4.8235,-4.7219,-4.6819,-4.6326,-4.5649,-4.4972,-4.4496,-4.4335,-4.2663,-4.1456,-4.0982,-3.9269,-3.8159,-3.7913,-3.7653,-3.7473,-3.7404,-3.7321,-3.6722,-3.5508,-3.5436,-3.491,-3.3979,-3.3718,-3.3561,0.0,0.0,0.0,0.0,0.0,0.0,0.0,0.0,-4.2509,-4.4695,-4.5588,-4.7088,-5.0755,-5.355,-5.627,-5.9284,-6.2003,-6.3971,-6.4715,-6.5831,-6.8391,-7.3303,-7.4427,-7.59,-7.8675,-7.9647,-8.0875,-8.265,-8.3374,-8.4279,-8.5583,-8.5801,-8.5982,-8.6126,-8.5793,-8.4937,-8.3549,-8.391,-8.2952,-8.05,-8.1086,-8.0906,-7.9938,-7.8585,-7.7604,-7.6758,-7.4322,-7.2868,-7.2124,-7.1413,-7.0297,-6.9079,-6.8944,-6.803,-6.6711,-6.5967,-6.5222,-6.4478,-6.3768,-6.1702,-5.9227,-5.7907,-5.6157,-5.4298,-5.3076,-5.2698,-5.2698,-5.2698,-5.2698,-5.2698,-5.2698,-5.2698,-5.2698,-5.2698,-5.2206,-5.1652,-5.1528,-5.0974,-5.0297,-4.962,-4.9374,-4.9097,-4.8512,-4.7865,-4.7465,-4.7588,-4.7958,-4.7835,-4.6726,-4.648,-4.6203,-4.561,-4.4934,-4.4427,-4.4075,-4.2698,-4.1565,-4.0969,-3.9583,-3.8816,-3.8781,-3.8153,-3.7724,-3.755,-3.7448,-3.688,-3.5857,-3.573,-3.5237,-3.4397,-3.3953,-3.3979,-3.2461,-3.2698,-3.4358,-3.8727,-3.9459,-4.0792,0.0,0.0,-4.7558,-5.0236,-5.0851,-5.1418,-5.311,-5.599,-5.8463,-5.9556,-6.2407,-6.4715,-6.5459,-6.5696,-6.6821,-6.9549,-7.2324,-7.4413,-7.545,-7.8813,-8.0802,-8.0332,-8.2939,-8.4642,-8.4823,-8.5511,-8.6199,-8.6887,-8.543,-8.4559,-8.4289,-8.3571,-8.2337,-8.05,-8.0569,-8.0152,-7.9194,-7.8348,-7.7604,-7.6758,-7.3781,-7.209,-7.1379,-7.0635,-6.9823,-6.9045,-6.8301,-6.7523,-6.6711,-6.5967,-6.5222,-6.4478,-6.3768,-6.0976,-5.7725,-5.7576,-5.5439,-5.2925,-5.2729,-5.2698,-5.2698,-5.2698,-5.2698,-5.2698,-5.2698,-5.2698,-5.2698,-5.2698,-5.2206,-5.1528,-5.0944,-5.0266,-4.9589,-4.8881,-4.8235,-4.7804,-4.7742,-4.7157,-4.6911,-4.7527,-4.7157,-4.6757,-4.6603,-4.608,-4.5602,-4.5384,-4.4733,-4.4014,-4.3214,-4.2735,-4.222,-4.1625,-4.0872,-4.0341,-4.0187,-3.9529,-3.8845,-3.8119,-3.8094,-3.73,-3.5734,-3.5709,-3.5237,-3.4397,-3.4345,-3.4345,-3.4341,-3.4679,-3.5852,0.0,-4.0787,-4.3013,-4.6894,-4.8007,-4.8974,-5.1713,-5.2606,-5.3406,-5.5161,-5.787,-5.9902,0.0,-6.2722,-6.485,-6.5595,-6.5324,-6.6098,-6.8819,-7.0338,-7.2197,-7.4773,-7.7452,-7.9462,-8.0513,-8.1853,-8.3229,-8.4605,-8.5475,-8.5752,-8.5534,-8.5243,-8.4187,-8.2146,-8.2161,-8.1365,-7.9664,-8.0107,-8.0149,-7.9735,-7.8991,-7.7502,-7.5473,-7.3781,-7.2394,-7.1244,-7.05,-6.9755,-6.9011,-6.8199,-6.7455,-6.6711,-6.5967,-6.5222,-6.4397,-6.3131,-6.1044,-5.8674,-5.7163,-5.5486,-5.3877,-5.2956,-5.2698,-5.2698,-5.2698,-5.2698,-5.2637,-5.2236,-5.2113,-5.2021,-5.1621,-5.1005,-5.0451,-5.0174,-4.9558,-4.885,-4.8173,-4.7804,-4.7496,-4.7096,-4.6449,-4.6111,-4.6388,-4.6511,-4.6449,-4.6049,-4.5694,-4.52,-4.46,-4.4178,-4.3789,-4.3438,-4.2853,-4.2406,-4.2136,-4.1115,-4.0507,-4.0397,-3.9768,-3.9046,-3.8202,-3.7691,-3.6883,-3.5696,-3.5196,-3.4744,-3.4397,-3.4084,-3.4084,-3.51,0.0,0.0,-3.9316,-4.2048,-4.4776,-4.7056,-4.8565,-5.0143,-5.2513,-5.3375,-5.4237,-5.5899,-5.8332,-6.0149,-6.0332,-6.2547,-6.4546,-6.529,-6.4918,-6.5493,-6.7895,-6.8597,-7.0197,-7.3454,-7.5836,-7.8095,-8.026,-8.0875,-8.2143,-8.4569,-8.4958,-8.5003,-8.4717,-8.44,-8.3103,-8.081,-8.0871,-8.0273,-7.9126,-7.987,-8.0073,-7.987,-7.8923,-7.7096,-7.4559,-7.3612,-7.236,-7.0973,-7.0398,-6.962,-6.8707,-6.8132,-6.732,-6.644,-6.5899,-6.5222,-6.4356,-6.2649,-6.0828,-5.8888,-5.6794,-5.5285,-5.4147,-5.3076,-5.2698,-5.2698,-5.2698,-5.2698,-5.2575,-5.1867,-5.1713,-5.1528,-5.0851,-5.0174,-4.9682,-4.9682,-4.8974,-4.8173,-4.7711,-4.7311,-4.688,-4.6419,-4.5741,-4.5311,-4.5311,-4.5741,-4.5865,-4.5372,-4.5078,-4.466,-4.4009,-4.3714,-4.3596,-4.3596,-4.2878,-4.241,-4.241,-4.1115,-4.0286,-4.0032,-3.9409,-3.8575,-3.7529,-3.6894,-3.6148,-3.5359,-3.4703,-3.4397,-3.4397,-3.4005,-3.4031,0.0,0.0,-3.6768,-4.1035,-4.3553,-4.5917,-4.9726,-5.1128,-5.2021,-5.3406,-5.3714,-5.3929,-5.4621,-5.6905,-5.8929,-5.9621,-6.1858,-6.3802,-6.4546,-6.4613,-6.4884,-6.5696,-6.7158,-6.8715,0.0,-7.4046,-7.702,-7.8632,-8.0223,-8.2143,-8.4569,-8.3804,-8.3967,-8.5502,-8.2362,-8.0926,-8.1569,-7.9975,-7.9126,-7.9126,-7.987,-7.9837,-7.9092,-7.7638,-7.6115,-7.4525,-7.3071,-7.1582,-7.0229,-7.0195,-6.9282,-6.7929,-6.7895,-6.7015,-6.573,-6.5696,-6.5222,-6.4356,-6.2649,-6.0088,-5.7407,-5.6416,-5.4559,-5.2774,-5.2729,-5.2698,-5.2698,-5.2698,-5.2698,-5.2575,-5.1867,-5.1713,-5.1528,-5.0851,-5.0174,-4.9682,-4.9682,-4.8604,-4.7619,-4.7619,-4.6542,-4.5649,-4.5618,-4.5064,-4.4641,-4.4641,-4.4671,-4.4671,-4.4603,-4.4289,-4.394,-4.3714,-4.3478,-4.329,-4.329,-4.2731,-4.241,-4.241,-4.1115,-4.0032,-3.9179,-3.8559,-3.7453,-3.5816,-3.5736,-3.5318,-3.4439,-3.4397,-3.4397,-3.4397,-3.4371,-3.4371,-3.4856,0.0,-3.8753,-4.1707,-4.4006,-4.6211,-4.8487,-5.0079,-5.1282,-5.2206,-5.1682,-5.1374,-5.2513,-5.4304,-5.6178,-5.802,-6.1537,-6.4698,-6.6525,-6.7252,-6.7692,-6.7929,-6.8872,0.0,0.0,0.0,0.0,-7.7665,-7.825,-7.9811,-8.2828,-8.256,-8.2505,-8.2935,-8.1887,-8.0837,-7.9975,-7.9377,-7.9126,-7.9126,-7.9363,-7.9363,-7.9058,-7.7029,-7.554,-7.4525,-7.3037,-7.1548,-7.0161,-6.9654,-6.8842,-6.7861,-6.7354,-6.688,-6.6305,-6.5324,-6.4412,-6.3415,-6.172,-5.9903,-5.7926,-5.5848,-5.4359,-5.3283,-5.2852,-5.2698,-5.2698,-5.2698,-5.2698,-5.2575,-5.1867,-5.1374,-5.0851,-5.0205,-4.9497,-4.8974,-4.8974,-4.8266,-4.7465,-4.7034,-4.6203,-4.5434,-4.5003,-4.4764,-4.461,-4.461,-4.461,-4.4496,-4.4258,-4.4104,-4.3871,-4.3478,-4.3329,-4.311,-4.2731,-4.253,-4.2021,-4.1115,-4.0636,-3.9854,-3.8559,-3.8318,-3.7414,-3.5736,-3.5696,-3.5277,-3.4397,-3.4397,-3.4397,-3.4397,-3.4397,-3.4397,-3.6334,-3.8125,-4.0213,-4.2541,-4.4226,-4.5892,-4.803,-4.9202,-5.0031,-5.0795,-5.0297,-4.9866,-5.0482,-5.1914,-5.3806,-5.6098,-5.935,-6.2899,-6.6627,-6.7557,-6.8301,-6.935,-7.0128,0.0,0.0,0.0,0.0,-7.7079,-7.749,-7.8782,-8.1443,-8.1453,-8.1457,-8.1569,-8.1304,-8.0512,-7.9126,-7.9126,-7.9126,-7.9126,-7.8822,-7.8585,-7.8247,-7.6217,-7.4762,-7.3747,-7.2529,-7.1176,-6.9755,-6.9316,-6.847,-6.7421,-6.6711,-6.6271,-6.5824,-6.4285,-6.3024,-6.1829,-6.0435,-5.8959,-5.7341,-5.5052,-5.3899,-5.3283,-5.2852,-5.2698,-5.2698,-5.2698,-5.2544,-5.2206,-5.1528,-5.0851,-5.0174,-4.9466,-4.8943,-4.8604,-4.8604,-4.8081,-4.7404,-4.6726,-4.6234,-4.5649,-4.4764,-4.4534,-4.4496,-4.4496,-4.4419,-4.4266,-4.4026,-4.3988,-4.3832,-4.3329,-4.329,-4.306,-4.244,-4.241,-4.1841,-4.0487,-4.0397,-3.9587,-3.7825,-3.7758,-3.6961,-3.5277,-3.5237,-3.495,-3.4397,-3.4397,-3.4397,-3.4397,-3.4397,-3.4397,-3.7892,-3.9454,-4.0986,-4.3594,-4.4322,-4.5164,-4.8206,-4.8492,-4.835,-4.9328,-4.9466,-4.9189,0.0,0.0,-5.1702,-5.4017,-5.5928,-5.9131,-6.5106,-6.6,-6.7151,0.0,0.0,0.0,0.0,0.0,0.0,-7.7048,0.0,-7.9002,-8.0595,-8.0535,-8.0772,-8.1509,-8.0656,-7.9803,-7.9058,-7.9058,-7.9058,-7.9058,-7.8314,-7.757,-7.6792,-7.527,-7.3781,-7.236,-7.1582,-7.0432,-6.9113,-6.9045,-6.8166,-6.6745,-6.5967,-6.5256,-6.4383,-6.2682,-6.1152,-5.9762,-5.8818,-5.7396,-5.5803,-5.4219,-5.3283,-5.2698,-5.2698,-5.2698,-5.2698,-5.2698,-5.2236,-5.1559,-5.0913,-5.0205,-4.9497,-4.882,-4.8635,-4.8604,-4.8604,-4.8081,-4.7404,-4.6757,-4.6603,-4.6172,-4.4887,-4.4481,-4.4366,-4.4335,-4.4143,-4.3988,-4.3988,-4.3988,-4.3832,-4.3329,-4.329,-4.306,-4.244,-4.2381,-4.1811,-4.0487,-4.0367,-3.9341,-3.7078,-3.6933,-3.6148,-3.4522,-3.4439,-3.4397,-3.4397,-3.4397,-3.4397,-3.4397,-3.4397,-3.4397,-4.0024,-4.1625,-4.3052,-4.3758,-4.4442,-4.5289,-4.6392,-4.6667,-4.6846,-4.7303,-4.6573,-4.568,0.0,0.0,0.0,-5.3974,-5.805,0.0,-6.8263,-7.0466,0.0,-7.2563,0.0,-7.4593,-7.4593,-7.5303,0.0,0.0,-7.8258,-7.8806,-8.0398,-8.0843,-8.0916,-8.0576,-7.9817,-7.9025,-7.828,-7.828,-7.828,-7.828,-7.8077,-7.7299,-7.5946,-7.4458,-7.3274,-7.2326,-7.1041,-6.9958,-6.9045,-6.8436,-6.7658,-6.6745,-6.5967,-6.5152,-6.4191,-6.2638,-6.0684,-5.855,-5.7184,-5.6137,-5.5184,-5.4064,-5.3283,-5.2698,-5.2698,-5.2698,-5.2698,-5.2698,-5.2236,-5.1652,-5.1498,-5.0574,-4.9651,-4.9466,-4.9004,-4.8604,-4.8604,-4.8081,-4.7558,-4.7373,-4.6942,-4.6326,-4.5464,-4.5186,-4.4847,-4.4396,-4.4143,-4.3949,-4.3793,-4.3754,-4.3636,-4.3329,-4.329,-4.306,-4.244,-4.1961,-4.1294,-4.0457,-3.9948,-3.9121,-3.791,-3.7242,-3.6425,-3.5399,-3.4703,-3.4397,-3.4397,-3.4397,-3.4397,-3.4397,-3.4397,-3.4397,-4.1571,-4.3009,-4.423,-4.4501,-4.4912,-4.5308,-4.5607,-4.5711,-4.5661,-4.537,-4.4664,0.0,0.0,0.0,0.0,0.0,0.0,0.0,-6.8186,-7.0567,-7.2293,0.0,-7.5506,0.0,-7.6217,-7.7232,-7.8348,0.0,-7.9194,-7.9476,-8.0746,-8.1427,-8.1426,-8.0716,-8.0276,-7.9566,-7.8483,-7.8145,-7.7976,-7.7976,-7.7671,-7.669,-7.5168,-7.4018,-7.2902,-7.1853,0.0,-6.9755,-6.9045,-6.8233,-6.7286,-6.6237,-6.5493,-6.4455,-6.3107,-6.1235,-5.9219,-5.7105,-5.5583,-5.459,-5.3983,-5.3433,-5.3037,-5.2698,-5.2698,-5.2513,-5.2267,-5.2267,-5.1559,-5.082,-5.082,-5.002,-4.922,-4.922,-4.8912,-4.8604,-4.8604,-4.8296,-4.805,-4.805,-4.725,-4.6441,-4.5993,-4.5528,-4.4904,-4.4156,-4.3832,-4.3675,-4.3557,-4.3636,-4.3596,-4.3329,-4.329,-4.306,-4.244,-4.2051,-4.1452,-4.0457,-4.0068,-3.9166,-3.7682,-3.7165,-3.6346,-3.5155,-3.4647,-3.4397,-3.4397,-3.4397,-3.4397,-3.4397,-3.4397,-3.4397,-4.3009,-4.4067,-4.4963,-4.556,-4.5548,-4.5345,-4.5355,-4.5212,-4.4759,-4.3683,0.0,-4.3377,-4.2602,-4.371,-4.6309,-5.1043,0.0,-5.8198,-6.7073,-6.9113,-7.121,-7.5371,-7.6555,-7.713,-7.7333,-7.8585,-7.9735,-8.0581,-8.0648,-8.0851,-8.1393,-8.2238,-8.2272,-8.1325,-8.119,-8.0445,-7.8991,-7.8314,-7.7942,-7.7841,-7.7198,-7.6082,-7.4593,-7.3815,-7.2699,-7.1278,0.0,0.0,-6.8876,-6.8098,-6.6948,-6.5595,-6.4761,-6.3375,-6.1626,-5.9285,-5.7329,-5.5687,-5.4204,-5.3283,-5.2698,-5.2698,-5.2698,-5.2698,-5.2698,-5.2236,-5.1713,-5.1713,-5.0728,-4.9682,-4.9682,-4.9158,-4.8604,-4.8604,-4.8604,-4.8604,-4.8604,-4.8604,-4.8604,-4.8604,-4.764,-4.677,-4.6477,-4.5748,-4.494,-4.4076,-4.3658,-4.3409,-4.3409,-4.3578,-4.3557,-4.3329,-4.329,-4.306,-4.244,-4.2321,-4.1752,-4.0487,-4.0196,-3.9207,-3.7155,-3.6855,-3.6068,-3.4605,-3.4481,-3.4397,-3.4397,-3.4397,-3.4397,-3.4397,-3.4397,-3.4397,-4.5261,-4.5641,-4.5587,-4.6157,-4.6132,-4.5721,-4.494,-4.4579,0.0,0.0,-4.3187,-4.3254,-4.1986,-4.3771,-4.734,-5.3201,0.0,0.0,0.0,0.0,-7.3713,0.0,0.0,0.0,0.0,0.0,0.0,0.0,0.0,0.0,-8.2238,-8.349,-8.3321,-8.1359,-8.0716,-7.9667,-7.8213,-7.8044,-7.7671,-7.7096,-7.6961,-7.6082,-7.4593,-7.3815,-7.2699,-7.1244,0.0,0.0,-6.8064,-6.732,-6.6474,-6.5553,-6.4027,-6.2451,-6.0639,-5.8243,-5.6333,-5.4838,-5.4006,-5.3283,-5.2698,-5.2698,-5.2698,-5.2698,-5.2698,-5.2236,-5.1713,-5.1713,-5.0728,-4.9682,-4.9682,-4.9158,-4.8604,-4.8604,-4.8604,-4.8604,-4.8604,-4.8604,-4.8604,-4.8604,-4.8254,-4.7823,-4.7201,-4.6689,-4.6067,-4.5363,-4.4618,-4.4137,-4.4137,-4.3658,-4.3329,-4.329,-4.329,-4.306,-4.244,-4.1901,-4.1235,-4.0457,-3.9268,-3.8393,-3.7985,-3.6649,-3.5776,-3.5481,-3.4744,-3.4397,-3.4397,-3.4397,-3.4397,-3.4397,-3.4397,-3.4397,-4.6075,-4.6727,-4.6971,-4.6997,-4.7146,-4.6738,-4.4525,0.0,0.0,0.0,-4.1771,-4.1894,-4.1648,0.0,0.0,0.0,0.0,0.0,0.0,0.0,0.0,0.0,0.0,0.0,0.0,0.0,0.0,0.0,0.0,0.0,-8.3524,-8.349,-8.2813,-8.1325,-8.0581,-7.9667,-7.8585,-7.8179,-7.7638,-7.6893,-7.6487,-7.5709,-7.4593,-7.3815,-7.2699,-7.1244,0.0,0.0,-6.7286,-6.6542,-6.5278,-6.3743,-6.2922,-6.1066,-5.864,-5.7127,-5.5527,-5.4068,-5.3437,-5.2975,-5.2698,-5.2698,-5.2698,-5.2698,-5.2698,-5.199,-5.119,-5.119,-5.0174,-4.9127,-4.9127,-4.8881,-4.8604,-4.8604,-4.8604,-4.8604,-4.8604,-4.8604,-4.8604,-4.8604,-4.8469,-4.8046,-4.7291,-4.6849,-4.6346,-4.556,-4.5117,-4.4825,-4.4825,-4.4556,-4.4077,-4.3349,-4.329,-4.317,-4.288,-4.2321,-4.1441,-4.0338,-3.9244,-3.8141,-3.695,-3.6136,-3.5521,-3.5032,-3.4605,-3.4397,-3.4397,-3.4397,-3.4397,-3.4397,-3.4397,-3.4397,-4.7037,-4.7888,-4.8543,-4.8316,-4.8358,-4.7623,-4.4719,-4.4357,0.0,0.0,-4.0843,-4.1155,-4.1709,0.0,-4.5228,0.0,0.0,0.0,0.0,0.0,0.0,0.0,0.0,0.0,0.0,0.0,0.0,0.0,0.0,0.0,0.0,-8.305,-8.2069,-8.1291,-8.0581,-7.9769,-7.8889,-7.8111,-7.7367,-7.6657,-7.6014,-7.5303,-7.4593,-7.3815,-7.2597,-7.1007,0.0,0.0,0.0,-6.5649,-6.4002,-6.1758,-6.1455,-5.9575,-5.6965,-5.5965,-5.4799,-5.3622,-5.2944,-5.2698,-5.2698,-5.2698,-5.2698,-5.2698,-5.2698,-5.1775,-5.0697,-5.0697,-4.9682,-4.8604,-4.8604,-4.8604,-4.8604,-4.8604,-4.8604,-4.8604,-4.8604,-4.8593,-4.8552,-4.8552,-4.8343,-4.7909,-4.7224,-4.6924,-4.6533,-4.5855,-4.5603,-4.5454,-4.5304,-4.5304,-4.4796,-4.3439,-4.3409,-4.3379,-4.315,-4.2485,-4.1479,-3.9964,-3.9053,-3.7659,-3.5763,-3.5521,-3.5114,-3.4397,-3.4397,-3.4397,-3.4397,-3.4397,-3.4397,-3.4397,-3.4397,-3.4397,-4.9266,-4.9659,-4.9953,-5.088,-4.9771,-4.7927,-4.6253,0.0,0.0,-4.1925,-4.1986,-4.2448,-4.2509,-4.3587,-4.5756,0.0,0.0,0.0,0.0,0.0,0.0,0.0,0.0,0.0,0.0,0.0,0.0,0.0,0.0,0.0,0.0,-8.2475,-8.2069,-8.1291,-8.0581,-7.9498,-7.8111,-7.7367,-7.6589,-7.5811,-7.5743,-7.5303,-7.4593,-7.3815,-7.2326,-7.0263,0.0,0.0,0.0,-6.4484,-6.2991,-6.0647,-5.9228,-5.7997,-5.6857,-5.4696,-5.3821,-5.3622,-5.2944,-5.2698,-5.2698,-5.2698,-5.2698,-5.2698,-5.2698,-5.1775,-5.0697,-5.0697,-4.9682,-4.8604,-4.8604,-4.8604,-4.8604,-4.8604,-4.8604,-4.8604,-4.8604,-4.8469,-4.8343,-4.8343,-4.7964,-4.7666,-4.7533,-4.7362,-4.7233,-4.713,-4.6621,-4.5992,-4.5364,-4.5304,-4.4796,-4.3439,-4.3828,-4.3748,-4.259,-4.1666,-4.0564,-3.9247,-3.765,-3.6443,-3.5723,-3.495,-3.4481,-3.4397,-3.4397,-3.4397,-3.4397,-3.4397,-3.4397,-3.4397,-3.4397,-3.4397,-5.0376,-5.1431,-5.1937,-5.1599,-5.0126,-4.8276,-4.6526,0.0,0.0,-4.2386,-4.2078,-4.2232,-4.3033,-4.3655,-4.4723,0.0,0.0,0.0,0.0,0.0,0.0,0.0,0.0,0.0,0.0,0.0,0.0,0.0,0.0,0.0,0.0,-8.0175,-8.0276,-8.0006,-7.9261,-7.8382,-7.7333,-7.7063,-7.6487,-7.5709,-7.5709,-7.5303,-7.4559,-7.3375,-7.1853,-7.0094,0.0,0.0,0.0,-6.315,-6.1153,-5.8305,-5.7779,-5.6444,-5.4683,-5.3776,-5.33,-5.3022,-5.261,-5.2563,-5.2698,-5.2698,-5.2452,-5.2175,-5.2575,-5.1498,-5.0174,-5.0574,-4.9682,-4.8604,-4.8604,-4.8604,-4.8604,-4.8604,-4.8604,-4.8563,-4.8469,-4.8385,-4.826,-4.8133,-4.7837,-4.7581,-4.7581,-4.7409,-4.7309,-4.7309,-4.707,-4.6681,-4.5992,-4.6262,-4.5992,-4.4646,-4.4407,-4.3726,-4.2283,-4.1831,-4.0773,-3.8796,-3.8017,-3.6976,-3.5493,-3.5157,-3.4763,-3.4397,-3.4397,-3.4397,-3.4397,-3.4397,-3.4214,-3.3927,-3.4241,-3.4214,-5.0896,-5.2331,-5.3173,-5.2821,-5.0983,-4.8895,0.0,0.0,0.0,-4.2971,-4.2509,-4.2479,-4.3439,-4.3778,-4.4209,0.0,0.0,0.0,0.0,0.0,0.0,0.0,0.0,0.0,0.0,0.0,0.0,0.0,0.0,0.0,0.0,-7.8077,-7.8314,-7.8754,-7.8044,-7.7435,-7.6893,-7.6657,-7.6251,-7.5709,-7.5473,-7.4999,-7.4221,-7.2687,-7.1098,0.0,0.0,0.0,0.0,-6.1284,-5.9056,-5.6248,-5.5981,-5.4807,-5.3192,-5.3009,-5.2734,-5.2473,-5.2352,-5.2397,-5.2577,-5.2438,-5.1959,-5.1498,-5.1959,-5.0974,-4.9774,-5.0266,-4.9528,-4.8604,-4.8604,-4.8604,-4.8604,-4.8604,-4.8604,-4.8521,-4.8313,-4.826,-4.8175,-4.7922,-4.7666,-4.7495,-4.7495,-4.7366,-4.7309,-4.7309,-4.7309,-4.707,-4.6369,-4.689,-4.68,-4.5424,-4.5065,-4.4311,-4.2808,-4.2257,-4.1095,-3.8886,-3.8542,-3.7467,-3.5381,-3.5443,-3.5182,-3.4424,-3.458,-3.458,-3.4397,-3.4397,-3.4214,-3.3822,-3.4058,-3.3953,-5.0734,-5.2049,-5.3428,-5.5214,-5.2805,-4.9929,0.0,0.0,0.0,-4.387,-4.3593,-4.3593,-4.3593,-4.4148,-4.4572,-4.4641,0.0,0.0,0.0,0.0,0.0,0.0,0.0,0.0,0.0,0.0,0.0,0.0,0.0,0.0,0.0,0.0,-7.642,-7.7942,-7.7299,-7.6893,-7.6893,-7.6115,-7.5709,-7.5676,-7.4965,-7.4221,-7.3443,-7.1693,0.0,0.0,0.0,0.0,0.0,-5.8617,-5.6823,-5.4904,-5.3567,-5.305,-5.2913,-5.2245,-5.2002,-5.2048,-5.2215,-5.2306,-5.2229,-5.184,-5.1251,-5.0697,-5.0697,-5.0236,-4.9682,-4.9682,-4.9158,-4.8604,-4.8604,-4.8604,-4.8604,-4.8604,-4.8604,-4.8521,-4.8313,-4.8133,-4.7922,-4.7666,-4.7409,-4.7309,-4.7309,-4.7309,-4.7309,-4.7309,-4.7309,-4.707,-4.6369,-4.689,-4.68,-4.5424,-4.5903,-4.5711,-4.4366,-4.2849,-4.1344,-3.9746,-3.8858,-3.7467,-3.5381,-3.5809,-3.5547,-3.4424,-3.4972,-3.4999,-3.4397,-3.4397,-3.4397,-3.4371,-3.3849,-3.3613,-4.9804,-5.1103,-5.2047,-5.1686,-4.9947,-4.8218,-4.7691,0.0,0.0,-4.4756,-4.461,-4.4579,-4.5464,-4.5803,-4.6111,-4.6573,0.0,0.0,0.0,0.0,0.0,0.0,0.0,0.0,0.0,0.0,0.0,0.0,0.0,0.0,0.0,0.0,-7.6183,-7.7198,-7.6487,-7.6082,-7.6082,-7.5811,-7.5439,-7.4965,-7.408,-7.2613,-7.0662,-6.8884,0.0,0.0,0.0,0.0,0.0,-5.6789,-5.507,-5.3313,-5.3108,-5.2607,-5.2013,-5.1802,-5.1834,-5.2002,-5.2063,-5.217,-5.2229,-5.1809,-5.0944,-5.002,-5.002,-4.9528,-4.8943,-4.8943,-4.8789,-4.8604,-4.8604,-4.8604,-4.8593,-4.8427,-4.8396,-4.8301,-4.7922,-4.7752,-4.7666,-4.7439,-4.7352,-4.7309,-4.7309,-4.7309,-4.7309,-4.7309,-4.7309,-4.707,-4.6369,-4.689,-4.698,-4.6082,-4.5783,-4.4995,-4.3524,-4.2393,-4.1055,-3.9447,-3.8148,-3.7139,-3.6488,-3.5887,-3.5391,-3.5025,-3.4789,-3.458,-3.4397,-3.4397,-3.4397,-3.4397,-3.3849,-3.3796,0.0,-4.9897,-5.0574,-5.079,-4.9404,0.0,0.0,0.0,0.0,0.0,0.0,0.0,-4.6449,-4.6603,-4.6726,0.0,0.0,0.0,0.0,0.0,0.0,0.0,0.0,0.0,0.0,0.0,0.0,0.0,0.0,0.0,0.0,0.0,-7.5912,-7.642,-7.5946,-7.5709,-7.5709,-7.5439,-7.4661,-7.3424,-7.2309,-7.049,-6.8177,0.0,0.0,0.0,0.0,0.0,0.0,-5.507,-5.3605,-5.2442,-5.2373,-5.1964,-5.1433,-5.1433,-5.1468,-5.147,-5.1562,-5.1606,-5.1495,-5.1072,-5.0174,-4.9281,-4.9281,-4.8974,-4.8604,-4.8604,-4.8604,-4.8604,-4.8604,-4.8521,-4.8438,-4.8396,-4.8301,-4.8133,-4.7794,-4.7666,-4.7538,-4.7352,-4.7309,-4.7309,-4.7309,-4.7309,-4.7309,-4.7309,-4.7309,-4.716,-4.6741,-4.704,-4.704,-4.6339,-4.6172,-4.5327,-4.3454,-4.2381,-4.1109,-3.9652,-3.8443,-3.7553,-3.7011,-3.6332,-3.573,-3.5312,-3.492,-3.4633,-3.4397,-3.4397,-3.4293,-3.4084,-3.3744,-3.3666,0.0,-4.8501,0.0,0.0,0.0,0.0,0.0,0.0,0.0,0.0,0.0,0.0,0.0,0.0,0.0,0.0,0.0,0.0,0.0,0.0,0.0,0.0,0.0,0.0,0.0,0.0,0.0,0.0,0.0,0.0,0.0,0.0,0.0,-7.5465,-7.5465,-7.5465,-7.5465,-7.4641,-7.3227,-7.1276,-6.9777,-6.7981,-6.587,0.0,0.0,0.0,0.0,0.0,0.0,-5.3398,-5.2365,-5.2067,-5.1439,-5.1199,-5.1139,-5.1139,-5.0859,-5.0517,-5.0819,-5.0618,-5.0197,-4.975,-4.9158,-4.8563,-4.847,-4.8501,-4.8604,-4.8604,-4.8604,-4.8604,-4.8563,-4.8438,-4.8385,-4.851,-4.826,-4.8007,-4.7964,-4.7752,-4.7495,-4.7352,-4.7309,-4.7309,-4.7309,-4.7309,-4.7309,-4.7309,-4.7279,-4.7249,-4.7249,-4.7189,-4.695,-4.6339,-4.683,-4.6264,-4.4037,-4.2734,-4.1483,-4.0196,-3.9419,-3.8452,-3.7135,-3.6985,-3.6436,-3.5391,-3.5286,-3.4946,-3.4397,-3.4397,-3.411,-3.3587,-3.3587,-3.3273,-4.7169,0.0,-4.7865,-4.7989,-4.7927,-4.7702,0.0,0.0,0.0,0.0,0.0,0.0,0.0,0.0,0.0,0.0,0.0,0.0,0.0,0.0,0.0,0.0,0.0,0.0,0.0,0.0,0.0,0.0,0.0,0.0,0.0,0.0,0.0,-7.3376,-7.3326,-7.3326,-7.3326,-7.1258,-6.9592,-6.8309,-6.6703,-6.4739,-6.2347,0.0,0.0,0.0,0.0,0.0,0.0,-5.2167,-5.1486,-5.1439,-5.1289,-5.0853,-5.0435,-5.0435,-5.0108,-4.9629,-4.9854,-4.9867,-4.9623,-4.887,-4.8508,-4.8171,-4.716,-4.7681,-4.8604,-4.8604,-4.8604,-4.8563,-4.8396,-4.8438,-4.8396,-4.7964,-4.7922,-4.788,-4.7568,-4.7439,-4.7352,-4.7309,-4.7309,-4.7309,-4.7309,-4.7309,-4.7309,-4.7309,-4.686,-4.6561,-4.6561,-4.6112,-4.5903,-4.6249,-4.5992,-4.5433,-4.4632,-4.3283,-4.1763,-4.0205,-3.8442,-3.755,-3.7665,-3.6802,-3.6201,-3.5913,-3.5051,-3.4528,-3.4397,-3.4397,-3.411,-3.3587,-3.3587,-3.3273,-4.6902,-4.7159,-4.7395,-4.7763,-4.7773,-4.7721,-4.769,0.0,0.0,0.0,0.0,0.0,0.0,0.0,0.0,0.0,0.0,0.0,0.0,0.0,0.0,0.0,0.0,0.0,0.0,0.0,0.0,0.0,0.0,0.0,0.0,0.0,0.0,0.0,-7.048,-6.9834,-7.067,-6.9038,-6.7279,-6.5437,-6.3924,-6.1968,-5.9744,0.0,0.0,0.0,0.0,0.0,-5.2665,-5.1648,-5.105,-5.0734,-5.0734,-5.0361,-4.9793,-4.9793,-4.9419,-4.8984,-4.9117,-4.9038,-4.8806,-4.8335,-4.7962,-4.7566,-4.6864,-4.7007,-4.7487,-4.7793,-4.8099,-4.8301,-4.8175,-4.8175,-4.8091,-4.7837,-4.7709,-4.7624,-4.7452,-4.7396,-4.7309,-4.7309,-4.7309,-4.7309,-4.7309,-4.7309,-4.7309,-4.7309,-4.6741,-4.6279,-4.6279,-4.5723,-4.5334,-4.5394,-4.5633,-4.5086,-4.3413,-4.2631,-4.1586,-4.0205,-3.8421,-3.756,-3.79,-3.7011,-3.6279,-3.573,-3.4868,-3.4397,-3.4397,-3.4397,-3.4241,-3.3953,-3.343,-3.3012,-4.7171,-4.7383,-4.7819,-4.8816,-4.8578,-4.8238,-4.8907,0.0,0.0,0.0,0.0,0.0,0.0,-4.9287,0.0,0.0,0.0,0.0,0.0,0.0,0.0,0.0,0.0,0.0,0.0,0.0,0.0,0.0,0.0,0.0,0.0,0.0,0.0,0.0,-6.7578,-6.6089,-6.6953,-6.6528,-6.5134,-6.2805,-6.1371,-5.9683,-5.7782,-5.6585,0.0,0.0,0.0,0.0,-5.2127,-5.1379,-5.0704,-5.0196,-5.0076,-4.9703,-4.9179,-4.9179,-4.8819,-4.838,-4.838,-4.8192,-4.788,-4.7922,-4.7467,-4.6891,-4.6841,-4.6375,-4.6041,-4.6576,-4.7255,-4.7855,-4.7813,-4.7704,-4.7709,-4.7837,-4.7581,-4.7396,-4.7495,-4.7439,-4.7309,-4.7309,-4.7309,-4.7309,-4.7309,-4.7219,-4.716,-4.716,-4.6501,-4.598,-4.598,-4.5424,-4.4825,-4.4377,-4.5209,-4.467,-4.1949,-4.1574,-4.1035,-4.0042,-3.858,-3.7795,-3.79,-3.7246,-3.641,-3.5443,-3.4737,-3.4397,-3.4397,-3.4397,-3.4345,-3.4241,-3.3195,-3.2646,-4.8022,-4.9284,-5.0155,-4.8589,-4.8523,-4.868,-4.8024,-4.7898,0.0,0.0,0.0,0.0,0.0,0.0,0.0,0.0,0.0,0.0,0.0,0.0,0.0,0.0,0.0,0.0,0.0,0.0,0.0,0.0,0.0,0.0,0.0,0.0,0.0,0.0,0.0,-6.3734,-6.0577,-6.1247,-6.1291,-6.056,-5.9235,-5.7843,-5.6436,-5.5688,-5.467,0.0,0.0,0.0,-5.2097,-5.0853,-5.0285,-5.0136,-4.9643,-4.9015,-4.8446,-4.8446,-4.8071,-4.7502,-4.7502,-4.7486,-4.7439,-4.7581,-4.7214,-4.6592,-4.6048,-4.5837,-4.5705,-4.559,-4.635,-4.7114,-4.6875,-4.7341,-4.7837,-4.7495,-4.7452,-4.7495,-4.7396,-4.7309,-4.7309,-4.7309,-4.7309,-4.7309,-4.7309,-4.683,-4.6429,-4.6429,-4.5424,-4.4616,-4.4616,-4.4007,-4.3768,-4.4257,-4.3808,-4.3293,-4.2836,-4.1311,-4.014,-3.9373,-3.797,-3.7377,-3.7874,-3.6828,-3.6149,-3.5992,-3.4946,-3.4397,-3.4397,-3.4397,-3.4162,-3.3692,-3.3012,-3.2437,-4.7712,-4.8686,-4.9479,-4.8876,-5.0035,-5.1104,-5.0442,-4.999,0.0,0.0,0.0,0.0,0.0,0.0,0.0,0.0,0.0,0.0,0.0,0.0,0.0,0.0,0.0,0.0,0.0,0.0,0.0,0.0,0.0,0.0,0.0,0.0,0.0,0.0,0.0,0.0,-5.9129,-5.8871,-5.8631,-5.8441,-5.7154,-5.6226,-5.5598,-5.4221,-5.3054,0.0,0.0,-5.1259,-5.0571,-4.9972,-4.9284,-4.8626,-4.8327,-4.7818,-4.7279,-4.7638,-4.7339,-4.683,-4.7189,-4.683,-4.6262,-4.6736,-4.6179,-4.532,-4.5049,-4.4689,-4.4438,-4.4717,-4.568,-4.6677,-4.6911,-4.7327,-4.7568,-4.7352,-4.7396,-4.7439,-4.7309,-4.7309,-4.7309,-4.7309,-4.7309,-4.7309,-4.7309,-4.704,-4.6741,-4.6339,-4.5484,-4.4706,-4.4377,-4.3708,-4.3249,-4.3071,-4.3023,-4.2451,-4.1053,-4.0222,-3.9402,-3.853,-3.784,-3.7612,-3.79,-3.675,-3.6096,-3.6096,-3.4972,-3.4397,-3.4397,-3.4397,-3.4267,-3.4005,-3.3456,-3.2855,-4.7489,-4.8117,-4.8865,-4.9374,-5.078,-5.2145,-5.2635,-5.206,-5.1498,0.0,0.0,0.0,0.0,0.0,0.0,0.0,0.0,0.0,0.0,0.0,0.0,0.0,0.0,0.0,0.0,0.0,0.0,0.0,0.0,0.0,0.0,0.0,0.0,0.0,0.0,0.0,-5.8201,-5.7154,-5.6735,-5.6855,-5.5718,-5.5029,-5.467,-5.2965,-5.1768,-5.099,-5.099,-5.0331,-4.9299,-4.9149,-4.8446,-4.7519,-4.7369,-4.689,-4.6339,-4.689,-4.6651,-4.6142,-4.6651,-4.6172,-4.5394,-4.5903,-4.5274,-4.4317,-4.4317,-4.3828,-4.3439,-4.4137,-4.5155,-4.6232,-4.689,-4.7189,-4.7309,-4.7309,-4.7309,-4.7309,-4.7309,-4.7309,-4.7309,-4.7309,-4.7309,-4.7309,-4.7309,-4.7189,-4.689,-4.6411,-4.5603,-4.4885,-4.4377,-4.3708,-4.305,-4.2374,-4.237,-4.1482,-3.9087,-3.8863,-3.855,-3.7946,-3.7769,-3.7691,-3.7691,-3.6671,-3.6044,-3.5913,-3.492,-3.4397,-3.4397,-3.4397,-3.4397,-3.4397,-3.3849,-3.3352,-4.8057,-4.9134,-5.0076,-5.0106,-4.9404,-4.9434,-5.2474,-5.2606,-5.2815,-5.5239,0.0,0.0,0.0,0.0,0.0,0.0,0.0,0.0,0.0,0.0,0.0,0.0,0.0,0.0,0.0,0.0,0.0,0.0,0.0,0.0,0.0,0.0,0.0,0.0,0.0,0.0,-5.5508,-5.5388,-5.5628,-5.6278,-5.5538,-5.4551,-5.3294,-5.2546,-5.1498,-5.0255,-5.0255,-4.9912,-4.9269,-4.864,-4.8297,-4.8147,-4.7549,-4.689,-4.6322,-4.6339,-4.5963,-4.5364,-4.5424,-4.5364,-4.5304,-4.5364,-4.4885,-4.4317,-4.4317,-4.3828,-4.3439,-4.4137,-4.4825,-4.5514,-4.6202,-4.686,-4.7309,-4.7309,-4.7309,-4.7309,-4.7309,-4.7309,-4.7309,-4.7309,-4.7309,-4.7309,-4.7309,-4.68,-4.6381,-4.6279,-4.5214,-4.4377,-4.4317,-4.3708,-4.329,-4.321,-4.1757,-4.0012,-3.8148,-3.7468,-3.7389,-3.7874,-3.7377,-3.7063,-3.7063,-3.6436,-3.5861,-3.5365,-3.4737,-3.4397,-3.4397,-3.4397,-3.4397,-3.4397,-3.3849,-3.3561,-4.7489,-4.8327,-4.9134,-4.9523,-4.9254,0.0,0.0,-5.485,-5.5179,-5.7004,-5.8231,0.0,0.0,0.0,0.0,0.0,0.0,0.0,0.0,0.0,0.0,0.0,0.0,0.0,0.0,0.0,0.0,0.0,0.0,0.0,0.0,0.0,0.0,0.0,0.0,0.0,0.0,-5.4162,-5.3862,-5.3713,-5.3443,-5.2845,-5.1947,-5.1289,-5.0272,-4.9045,-4.9464,-4.9045,-4.8027,-4.7788,-4.7429,-4.704,-4.68,-4.6292,-4.5753,-4.6172,-4.5633,-4.4736,-4.5155,-4.4766,-4.4137,-4.4556,-4.4227,-4.3678,-4.3678,-4.3499,-4.3529,-4.4616,-4.5095,-4.5454,-4.6142,-4.68,-4.7189,-4.68,-4.701,-4.7189,-4.677,-4.701,-4.7309,-4.7309,-4.7309,-4.7309,-4.7309,-4.677,-4.6172,-4.5753,-4.4915,-4.4167,-4.3708,-4.2998,-4.2263,-4.1657,-3.9668,-3.8078,-3.7396,-3.6802,-3.6541,-3.6776,-3.6933,-3.7011,-3.7011,-3.6436,-3.5861,-3.5312,-3.4711,-3.4397,-3.4397,-3.4397,-3.4397,-3.4397,-3.4188,-3.3927,-4.692,-4.7489,-4.8177,-4.909,0.0,0.0,-5.5987,-5.6765,-5.7214,-5.9757,-6.0027,-5.9638,-5.9159,0.0,0.0,0.0,0.0,0.0,0.0,0.0,0.0,0.0,0.0,0.0,0.0,0.0,0.0,0.0,0.0,0.0,0.0,0.0,0.0,0.0,0.0,0.0,0.0,-5.2905,-5.2247,-5.1588,-5.1379,-5.1139,-5.0853,-5.0242,-4.9314,-4.8327,-4.882,-4.8327,-4.7309,-4.7309,-4.68,-4.5963,-4.5783,-4.5155,-4.4436,-4.4885,-4.4347,-4.3449,-4.3898,-4.3599,-4.309,-4.3539,-4.3539,-4.329,-4.329,-4.329,-4.3469,-4.4436,-4.4975,-4.5394,-4.5873,-4.6651,-4.713,-4.6429,-4.6681,-4.686,-4.6369,-4.6681,-4.707,-4.7279,-4.713,-4.698,-4.698,-4.6441,-4.5843,-4.5364,-4.4736,-4.4016,-4.3326,-4.2491,-4.1519,-4.0303,-3.8519,-3.7298,-3.7056,-3.6305,-3.5913,-3.6096,-3.6332,-3.6462,-3.6462,-3.641,-3.594,-3.5025,-3.4789,-3.458,-3.4397,-3.4397,-3.4397,-3.4397,-3.4397,-3.4188,-4.6501,-4.68,-4.7638,0.0,0.0,0.0,-5.7902,-5.8082,-5.8596,-6.3888,-6.1882,-5.9548,-6.0864,0.0,0.0,0.0,0.0,0.0,0.0,0.0,0.0,0.0,0.0,0.0,0.0,0.0,0.0,0.0,0.0,0.0,0.0,0.0,0.0,0.0,0.0,0.0,0.0,-5.1528,-5.0823,-5.0166,-4.9553,-4.9583,-5.0136,-4.9553,-4.894,-4.8267,-4.8267,-4.7908,-4.7309,-4.7279,-4.6471,-4.5214,-4.4556,-4.3509,-4.2381,-4.241,-4.1991,-4.1422,-4.1422,-4.1841,-4.2381,-4.2381,-4.2791,-4.326,-4.326,-4.329,-4.329,-4.329,-4.4287,-4.5274,-4.5304,-4.6292,-4.713,-4.6429,-4.6279,-4.6322,-4.6279,-4.6279,-4.6531,-4.716,-4.677,-4.6279,-4.6279,-4.5753,-4.5274,-4.5274,-4.4736,-4.3961,-4.306,-4.2382,-4.1239,-3.936,-3.8695,-3.8021,-3.7075,-3.594,-3.5521,-3.6044,-3.56,-3.5286,-3.5312,-3.6384,-3.6175,-3.445,-3.4999,-3.4999,-3.4397,-3.4397,-3.4397,-3.4397,-3.4397,-3.4397,-4.6339,-4.713,0.0,-4.9613,0.0,0.0,0.0,-5.88,0.0,0.0,-6.2989,-6.1194,-6.1134,0.0,0.0,0.0,0.0,0.0,0.0,0.0,0.0,0.0,0.0,0.0,0.0,0.0,0.0,0.0,0.0,0.0,0.0,0.0,0.0,0.0,0.0,0.0,0.0,0.0,-5.0182,-4.9553,-4.8416,-4.8237,-4.8865,-4.8656,-4.8207,-4.7608,-4.7608,-4.7219,-4.6488,-4.5603,-4.4436,-4.3309,-4.3509,-4.2821,-4.1752,-4.2231,-4.1991,-4.1422,-4.1422,-4.1542,-4.1722,-4.1722,-4.1803,-4.1953,-4.1953,-4.2282,-4.2761,-4.317,-4.3958,-4.4825,-4.5783,-4.6322,-4.6441,-4.5753,-4.6322,-4.677,-4.5813,-4.6352,-4.692,-4.6681,-4.6471,-4.613,-4.5693,-4.5035,-4.4616,-4.4616,-4.3489,-4.2113,-4.051,-4.0154,-3.9442,-3.7811,-3.714,-3.6507,-3.5878,-3.5103,-3.4737,-3.4894,-3.5155,-3.5469,-3.5861,-3.5835,-3.5547,-3.5025,-3.4789,-3.458,-3.4397,-3.4397,-3.4397,-3.4397,-3.4397,-3.4188,-4.6262,-4.71,0.0,-5.0481,-5.2725,-5.5359,-5.9069,0.0,0.0,0.0,0.0,0.0,0.0,0.0,0.0,0.0,0.0,0.0,0.0,0.0,0.0,0.0,0.0,0.0,0.0,0.0,0.0,0.0,0.0,0.0,0.0,0.0,0.0,0.0,0.0,0.0,0.0,0.0,0.0,-4.8476,-4.713,-4.6711,-4.71,-4.71,-4.689,-4.6501,-4.6501,-4.6292,-4.5843,-4.4766,-4.3688,-4.2761,-4.288,-4.2312,-4.1482,-4.1871,-4.1752,-4.1422,-4.1422,-4.1602,-4.1811,-4.1811,-4.1811,-4.1841,-4.2073,-4.2252,-4.253,-4.315,-4.3768,-4.4556,-4.5633,-4.6112,-4.619,-4.5813,-4.6322,-4.6681,-4.5873,-4.6352,-4.68,-4.6411,-4.607,-4.5693,-4.5035,-4.4377,-4.3807,-4.3453,-4.1757,-4.0153,-3.906,-3.8361,-3.7732,-3.7056,-3.6279,-3.5652,-3.5338,-3.4737,-3.4397,-3.4397,-3.4737,-3.5182,-3.5757,-3.5678,-3.5391,-3.4946,-3.4816,-3.4633,-3.4397,-3.4397,-3.4397,-3.4397,-3.4397,-3.411,-4.6112,0.0,0.0,0.0,0.0,0.0,-6.0685,-6.3677,-6.5592,0.0,0.0,0.0,0.0,0.0,0.0,0.0,0.0,0.0,0.0,0.0,0.0,0.0,0.0,0.0,0.0,0.0,0.0,0.0,0.0,0.0,0.0,0.0,0.0,0.0,0.0,0.0,0.0,0.0,0.0,0.0,-4.5813,-4.5214,-4.5214,-4.5274,-4.5304,-4.5274,-4.5185,-4.5095,-4.4975,-4.4257,-4.3599,-4.2961,-4.2402,-4.1901,-4.1422,-4.1324,-4.1294,-4.1294,-4.1235,-4.1662,-4.2231,-4.2231,-4.2231,-4.2351,-4.294,-4.2791,-4.253,-4.315,-4.3798,-4.4556,-4.5125,-4.5753,-4.619,-4.619,-4.6249,-4.6249,-4.613,-4.6202,-4.6202,-4.6142,-4.5633,-4.4964,-4.4195,-4.3598,-4.286,-4.1835,-3.9759,-3.8288,-3.8201,-3.698,-3.6305,-3.6802,-3.5913,-3.5286,-3.5208,-3.4711,-3.4397,-3.4397,-3.4397,-3.4633,-3.5182,-3.5678,-3.5495,-3.4502,-3.4972,-3.4946,-3.4397,-3.4397,-3.4397,-3.4397,-3.4397,-3.411,0.0,-4.7549,0.0,0.0,0.0,0.0,0.0,0.0,0.0,0.0,0.0,0.0,0.0,0.0,0.0,0.0,0.0,0.0,0.0,0.0,0.0,0.0,0.0,0.0,0.0,0.0,0.0,0.0,0.0,0.0,0.0,0.0,0.0,0.0,0.0,0.0,-4.7728,-4.7459,-4.677,0.0,-4.4915,-4.4526,-4.4556,-4.5065,-4.5304,-4.5244,-4.4227,-4.3509,-4.295,-4.1713,-4.1145,-4.1025,-4.0876,-4.1055,-4.1324,-4.0816,-4.0606,-4.0546,-4.0008,-4.0277,-4.0816,-4.0816,-4.0816,-4.0935,-4.1594,-4.2111,-4.253,-4.315,-4.4167,-4.5125,-4.5244,-4.5394,-4.5514,-4.5514,-4.5933,-4.598,-4.4975,-4.5155,-4.5364,-4.4855,-4.4616,-4.4113,-4.2737,-4.238,-4.1555,-3.9476,-3.8316,-3.7423,-3.6673,-3.6306,-3.5992,-3.5704,-3.5443,-3.5103,-3.4633,-3.4476,-3.4397,-3.4397,-3.4397,-3.445,-3.458,-3.4711,-3.4868,-3.5103,-3.4763,-3.4528,-3.4397,-3.4397,-3.4397,-3.4397,-3.4397,-3.411,0.0,0.0,0.0,0.0,0.0,0.0,0.0,0.0,0.0,0.0,0.0,0.0,0.0,0.0,0.0,0.0,0.0,0.0,0.0,0.0,0.0,0.0,0.0,0.0,0.0,0.0,0.0,0.0,0.0,0.0,0.0,0.0,0.0,0.0,0.0,0.0,-4.6352,-4.5641,-4.5094,-4.4825,-4.3248,-4.2614,-4.2758,-4.3558,-4.3938,-4.3878,-4.2851,-4.2222,-4.1871,-4.1145,-4.0876,-4.0905,-4.1205,-4.1602,-4.1841,-4.1512,-4.1354,-4.1235,-4.0576,-4.0786,-4.1354,-4.1354,-4.1115,-4.0995,-4.1692,-4.1901,-4.2141,-4.309,-4.4077,-4.4975,-4.5633,-4.5544,-4.5304,-4.5304,-4.5574,-4.5633,-4.4945,-4.5035,-4.4971,-4.3874,-4.3673,-4.3177,-4.1606,-4.0759,-3.9662,-3.7848,-3.6961,-3.6263,-3.5748,-3.5469,-3.5286,-3.5286,-3.5025,-3.4737,-3.4424,-3.4397,-3.4397,-3.4397,-3.4397,-3.4397,-3.4397,-3.4397,-3.4554,-3.4868,-3.4554,-3.4397,-3.4397,-3.4397,-3.4397,-3.4397,-3.4397,-3.411,0.0,0.0,0.0,0.0,0.0,0.0,0.0,0.0,0.0,0.0,0.0,0.0,0.0,0.0,0.0,0.0,0.0,0.0,0.0,0.0,0.0,0.0,0.0,0.0,0.0,0.0,0.0,0.0,0.0,0.0,0.0,0.0,0.0,0.0,0.0,-4.6224,-4.4679,-4.3533,-4.3182,-4.3482,-4.1337,-4.0376,-4.0498,-4.1283,-4.1841,-4.2201,-4.1542,-4.1205,-4.1205,-4.1085,-4.1115,-4.1265,-4.1841,-4.2141,-4.2201,-4.2111,-4.2051,-4.1991,-4.1414,-4.1692,-4.2261,-4.2351,-4.1961,-4.1542,-4.2201,-4.2021,-4.1833,-4.318,-4.4077,-4.4915,-4.598,-4.5903,-4.5412,-4.5096,-4.4888,-4.4709,-4.459,-4.456,-4.4104,-4.2598,-4.2147,-4.1609,-4.0293,-3.8855,-3.7531,-3.6574,-3.569,-3.5129,-3.5129,-3.4711,-3.458,-3.5077,-3.4685,-3.4397,-3.4397,-3.4397,-3.4397,-3.4397,-3.4397,-3.4397,-3.4397,-3.4397,-3.4397,-3.4397,-3.4397,-3.4397,-3.4397,-3.4397,-3.4397,-3.4397,-3.4397,-3.4162,0.0,0.0,0.0,0.0,0.0,0.0,0.0,0.0,0.0,0.0,0.0,0.0,0.0,0.0,0.0,0.0,0.0,0.0,0.0,0.0,0.0,0.0,0.0,0.0,0.0,0.0,0.0,0.0,0.0,0.0,0.0,0.0,-4.6575,-4.4412,-4.5137,0.0,-4.2122,-4.2709,-4.2132,-4.0306,-3.9517,-3.8867,-3.8405,-3.8473,-3.9605,-4.1512,-4.0816,-4.0516,-4.0487,-3.9918,-4.0008,-4.0546,-4.0636,-4.0995,-4.1482,-4.0876,-4.0666,-4.0636,-4.0546,-4.0965,-4.1632,-4.2201,-4.1961,-4.1542,-4.2201,-4.2351,-4.253,-4.3808,-4.5095,-4.604,-4.6219,-4.6219,-4.5811,-4.4339,-4.3261,-4.238,-4.1796,-4.1679,-4.1233,-3.9747,-3.8783,-3.8196,-3.7945,-3.6721,-3.5683,-3.5526,-3.4926,-3.4528,-3.4528,-3.445,-3.4424,-3.4502,-3.445,-3.4397,-3.4397,-3.4397,-3.4397,-3.4397,-3.4397,-3.4397,-3.4397,-3.4397,-3.4397,-3.4397,-3.4397,-3.4397,-3.4397,-3.4397,-3.4397,-3.4397,-3.4397,-3.4371,0.0,0.0,0.0,0.0,0.0,0.0,0.0,0.0,0.0,0.0,0.0,0.0,0.0,0.0,0.0,0.0,0.0,0.0,0.0,0.0,0.0,0.0,0.0,0.0,0.0,0.0,0.0,0.0,0.0,0.0,0.0,-4.5526,-4.4774,-4.3454,-4.3298,0.0,-4.0533,-4.0448,-3.9517,-3.7698,-3.7977,-3.7786,-3.7178,-3.7125,-3.795,-3.9431,-3.9241,-3.9164,-3.9172,-3.9348,-3.9553,-3.9888,-4.0247,-4.0576,-4.0786,-4.0516,-4.0397,-4.0337,-3.9978,-4.0516,-4.1422,-4.1332,-4.1324,-4.1354,-4.1294,-4.1542,-4.2141,-4.3419,-4.4139,-4.4621,-4.5357,-4.4588,-4.3473,-4.2753,-4.1639,-4.0472,-3.9324,-3.947,-3.9536,-3.8352,-3.7362,-3.6641,-3.6322,-3.5742,-3.5182,-3.4842,-3.458,-3.4397,-3.4397,-3.4397,-3.4397,-3.4397,-3.4397,-3.4397,-3.4397,-3.4397,-3.4397,-3.4397,-3.4397,-3.4397,-3.4397,-3.4397,-3.4397,-3.4397,-3.4397,-3.4397,-3.4397,-3.4397,-3.4397,-3.4397,-3.4397,-3.4397,0.0,0.0,0.0,0.0,0.0,0.0,0.0,0.0,0.0,0.0,0.0,0.0,0.0,0.0,0.0,0.0,0.0,0.0,0.0,0.0,0.0,0.0,0.0,0.0,0.0,0.0,0.0,0.0,0.0,0.0,-4.4971,-4.4144,-4.3141,-4.2038,-4.1439,-4.0348,-3.878,-3.8032,-3.6994,-3.5678,-3.638,-3.6395,-3.5748,-3.5909,-3.6375,-3.7078,-3.7844,-3.8202,-3.8277,-3.9083,-3.9373,-3.9433,-3.9948,-4.0157,-4.0157,-4.0157,-4.0157,-4.0098,-3.9768,-4.0307,-4.1085,-4.0756,-4.0876,-4.1025,-4.0546,-4.0696,-4.1288,-4.2476,-4.2726,-4.2897,-4.4036,-4.3079,-4.1771,-4.1339,-4.0386,-3.9213,-3.763,-3.7552,-3.7566,-3.686,-3.6167,-3.5547,-3.5129,-3.5077,-3.492,-3.4476,-3.4397,-3.4397,-3.4397,-3.4397,-3.4397,-3.4397,-3.4397,-3.4397,-3.4397,-3.4397,-3.4397,-3.4397,-3.4397,-3.4397,-3.4397,-3.4397,-3.4397,-3.4397,-3.4397,-3.4319,-3.4188,-3.4188,-3.4188,-3.4188,-3.4188,-3.4267,0.0,0.0,0.0,0.0,0.0,0.0,0.0,0.0,0.0,0.0,0.0,0.0,0.0,0.0,0.0,0.0,0.0,0.0,0.0,0.0,0.0,0.0,0.0,0.0,0.0,0.0,0.0,0.0,0.0,0.0,-4.3935,-4.3354,-4.1953,-3.9486,-3.9645,-3.8653,-3.6323,-3.5712,-3.5119,-3.4476,-3.4518,-3.4271,-3.3773,-3.4297,-3.4533,-3.4714,-3.7144,-3.8202,-3.8277,-3.9083,-3.9373,-3.9373,-3.9469,-3.9433,-3.9433,-3.9433,-3.9433,-3.9559,-4.0157,-4.0397,-4.0546,-4.1145,-4.0935,-4.0457,-4.0397,-4.025,-4.0245,-4.0942,-4.1365,-4.1846,-4.2523,-4.262,-4.2155,-4.0631,-3.9823,-3.8896,-3.7137,-3.5621,-3.4601,-3.4559,-3.4518,-3.4476,-3.445,-3.445,-3.4424,-3.4397,-3.4397,-3.4397,-3.4397,-3.4397,-3.4397,-3.4397,-3.4397,-3.4397,-3.4397,-3.4397,-3.4397,-3.4397,-3.4397,-3.4397,-3.4397,-3.4397,-3.4397,-3.4397,-3.4397,-3.4136,-3.3639,-3.3639,-3.3639,-3.3639,-3.3639,-3.3901,0.0,0.0,0.0,0.0,0.0,0.0,0.0,0.0,0.0,0.0,0.0,0.0,0.0,0.0,0.0,0.0,0.0,0.0,0.0,0.0,0.0,0.0,0.0,0.0,0.0,0.0,0.0,0.0,0.0,0.0,-4.1227,-4.0491,-3.9431,-3.8141,-3.7639,-3.6817,-3.56,-3.4999,-3.4424,-3.3875,-3.4241,-3.411,-3.3613,-3.4162,-3.4397,-3.4481,-3.5936,-3.661,-3.6688,-3.806,-3.8612,-3.8686,-3.9192,-3.9373,-3.9373,-3.9373,-3.9373,-3.9403,-3.9679,-4.0337,-4.0935,-4.0307,-4.0546,-4.0801,-3.9416,-3.9478,-4.0018,-4.0126,-4.0096,-4.0178,-4.0883,-4.0323,-3.9221,-3.7874,-3.775,-3.7378,-3.5626,-3.4778,-3.4397,-3.4397,-3.4397,-3.4397,-3.4397,-3.4397,-3.4397,-3.4397,-3.4397,-3.4397,-3.4397,-3.4397,-3.4397,-3.4397,-3.4397,-3.4397,-3.4397,-3.4397,-3.4397,-3.4397,-3.4397,-3.4397,-3.4397,-3.4397,-3.4397,-3.4397,-3.4397,-3.4293,-3.411,-3.377,-3.3587,-3.3587,-3.3195,-3.3117,-4.0606,0.0,0.0,0.0,0.0,0.0,0.0,0.0,0.0,0.0,0.0,0.0,0.0,0.0,0.0,0.0,0.0,0.0,0.0,0.0,0.0,0.0,0.0,0.0,0.0,0.0,0.0,0.0,0.0,0.0,-3.9589,-3.8605,-3.7687,-3.6795,-3.5785,-3.5077,-3.4737,-3.4136,-3.3639,-3.33,-3.3666,-3.3639,-3.33,-3.3875,-3.4136,-3.4177,-3.4911,-3.5575,-3.6215,-3.7309,-3.7947,-3.824,-3.876,-3.901,-3.9046,-3.9301,-3.9373,-3.9373,-3.9373,-4.0127,-4.0876,-3.9768,-3.9973,-4.0326,-3.8672,-3.8476,-3.8807,-3.8657,-3.841,-3.8282,-3.8684,-3.7899,-3.6933,-3.6515,-3.6253,-3.5913,-3.5129,-3.4816,-3.4633,-3.4424,-3.4397,-3.4397,-3.4397,-3.4397,-3.4397,-3.4397,-3.4397,-3.4397,-3.4397,-3.4397,-3.4397,-3.4397,-3.4397,-3.4397,-3.4397,-3.4397,-3.4397,-3.4397,-3.4397,-3.4397,-3.4397,-3.4397,-3.4397,-3.4397,-3.4397,-3.4356,-3.4314,-3.3625,-3.33,-3.3273,-3.2593,-3.2267,0.0,0.0,0.0,0.0,0.0,0.0,0.0,0.0,0.0,0.0,0.0,0.0,0.0,0.0,0.0,0.0,0.0,0.0,0.0,0.0,0.0,0.0,0.0,0.0,0.0,0.0,0.0,0.0,0.0,-3.9463,-3.9129,-3.8016,-3.6768,-3.5303,-3.4162,-3.3587,-3.3561,-3.2986,-3.2672,-3.2672,-3.2672,-3.2646,-3.2672,-3.3273,-3.3561,-3.3587,-3.4136,-3.5305,-3.6855,-3.6855,-3.7386,-3.8127,-3.8165,-3.8165,-3.8248,-3.9083,-3.9373,-3.9409,-3.9469,-3.9888,-4.0337,-3.9642,-3.9306,-3.9015,-3.833,-3.7372,-3.651,-3.6468,-3.6269,-3.6096,-3.6096,-3.573,-3.5626,-3.6698,-3.5678,-3.4763,-3.5835,-3.5678,-3.5129,-3.4528,-3.4424,-3.4424,-3.4397,-3.4424,-3.4424,-3.4397,-3.4397,-3.4397,-3.4397,-3.4397,-3.4397,-3.4397,-3.4397,-3.4397,-3.4397,-3.4397,-3.4397,-3.4397,-3.4397,-3.4397,-3.4397,-3.4397,-3.4397,-3.4397,-3.4371,-3.4246,-3.4063,-3.3152,-3.2698,-3.2672,-3.1837,-3.1358,-3.9373,0.0,0.0,0.0,0.0,0.0,0.0,0.0,0.0,0.0,0.0,0.0,0.0,0.0,0.0,0.0,0.0,0.0,0.0,0.0,0.0,0.0,0.0,0.0,0.0,0.0,0.0,0.0,0.0,-3.7519,-3.6964,-3.5854,-3.4899,-3.4084,-3.3744,-3.3378,-3.2934,-3.2777,-3.2489,-3.2032,-3.2032,-3.1862,-3.147,-3.2045,-3.2542,-3.296,-3.3561,-3.4659,-3.6056,-3.6056,-3.6175,-3.6452,-3.7011,-3.7329,-3.7629,-3.8785,-3.8959,-3.8871,-4.0337,-4.0965,-4.101,-4.0127,-3.9848,-3.9458,-3.7526,-3.6743,-3.6385,-3.5812,-3.5851,-3.6096,-3.6096,-3.6305,-3.641,-3.5887,-3.6044,-3.6149,-3.5626,-3.5704,-3.5574,-3.458,-3.5077,-3.5365,-3.4528,-3.4763,-3.4894,-3.4476,-3.4397,-3.4397,-3.4397,-3.4397,-3.4397,-3.4397,-3.4397,-3.4397,-3.4397,-3.4397,-3.4397,-3.4397,-3.4397,-3.4397,-3.4397,-3.4272,-3.4189,-3.4189,-3.3607,-3.3276,-3.3235,-3.3116,-3.2794,-3.226,-3.1177,-3.0599,-3.939,-3.9619,-3.9978,0.0,0.0,0.0,0.0,-4.1017,0.0,0.0,0.0,0.0,0.0,0.0,0.0,0.0,0.0,0.0,0.0,0.0,0.0,0.0,0.0,0.0,0.0,0.0,0.0,0.0,-3.7245,-3.6253,-3.5443,-3.4554,-3.3927,-3.3613,-3.3117,-3.2698,-3.2333,-3.2097,-3.1705,-3.1092,-3.1092,-3.0805,-3.0294,-3.1104,-3.1653,-3.2045,-3.3117,-3.4096,-3.4834,-3.5048,-3.5399,-3.5776,-3.6582,-3.6977,-3.7299,-3.9019,-3.9202,-3.887,-4.0288,-4.0734,-4.0488,-3.9682,-3.9406,-3.9071,-3.7413,-3.6596,-3.6189,-3.5467,-3.5338,-3.5391,-3.5391,-3.5652,-3.5809,-3.5391,-3.5626,-3.5809,-3.5391,-3.5547,-3.5574,-3.4894,-3.5312,-3.5469,-3.4554,-3.4685,-3.4816,-3.445,-3.4397,-3.4397,-3.4397,-3.4397,-3.4397,-3.4397,-3.4397,-3.4397,-3.4397,-3.4397,-3.4397,-3.4397,-3.4314,-3.4168,-3.3934,-3.3933,-3.3833,-3.3601,-3.3142,-3.2752,-3.2465,-3.2397,-3.1986,-3.1249,-3.056,-3.0177,-3.9483,-3.9994,-4.0457,-4.1002,0.0,0.0,-4.1388,-4.0237,-3.9188,0.0,0.0,0.0,0.0,0.0,0.0,0.0,0.0,0.0,0.0,0.0,0.0,0.0,0.0,0.0,0.0,0.0,0.0,-3.709,-3.6332,-3.5417,-3.4267,-3.3744,-3.3456,-3.3404,-3.2346,-3.1771,-3.1719,-3.1235,-3.0712,-3.01,-3.0022,-2.9745,-2.9258,-3.0294,-3.0817,-3.0973,-3.2672,-3.3483,-3.3639,-3.411,-3.4815,-3.5615,-3.6346,-3.6643,-3.6905,-3.9174,-3.9425,-3.8755,-3.9613,-3.9727,-3.9424,-3.8782,-3.8503,-3.826,-3.7574,-3.6758,-3.5992,-3.5521,-3.4999,-3.458,-3.458,-3.458,-3.4711,-3.5182,-3.4894,-3.4633,-3.5182,-3.5286,-3.5286,-3.5286,-3.5338,-3.5182,-3.4502,-3.445,-3.4476,-3.4397,-3.4397,-3.4397,-3.4397,-3.4397,-3.4397,-3.4397,-3.4397,-3.4397,-3.4397,-3.4397,-3.4356,-3.4356,-3.4147,-3.3856,-3.3379,-3.3518,-3.3376,-3.3024,-3.2813,-3.2347,-3.1599,-3.1261,-3.0802,-3.0164,-3.0075,-2.9972,-4.0583,-4.0562,-3.9964,-3.9624,0.0,0.0,-3.8069,-3.7466,-3.744,0.0,0.0,0.0,0.0,0.0,0.0,0.0,0.0,0.0,0.0,0.0,0.0,0.0,0.0,0.0,0.0,0.0,-3.824,-3.709,-3.56,-3.4214,-3.3091,-3.2934,-3.2646,-3.2163,-3.1928,-3.1588,-3.1156,-3.1052,-3.0712,-3.01,-2.9666,-2.9144,-2.8603,-2.9336,-2.9876,-3.0335,-3.1588,-3.2725,-3.3613,-3.3718,-3.4129,-3.4688,-3.4827,-3.4982,-3.5323,-3.6859,-3.7007,-3.6749,-3.8507,-3.9037,-3.8878,-3.8556,-3.8433,-3.8212,-3.7343,-3.6621,-3.6096,-3.5966,-3.5861,-3.5783,-3.5783,-3.5783,-3.5678,-3.5365,-3.5208,-3.5155,-3.526,-3.5286,-3.5286,-3.5286,-3.5652,-3.5626,-3.458,-3.4789,-3.4946,-3.4476,-3.4397,-3.4397,-3.4397,-3.4397,-3.4397,-3.4397,-3.4397,-3.4397,-3.4397,-3.423,-3.4147,-3.4147,-3.3937,-3.3843,-3.3949,-3.3197,-3.3046,-3.3546,-3.232,-3.1206,-3.0184,-3.0511,-3.0637,-3.0471,-3.0083,-2.9818,0.0,0.0,0.0,-3.8757,0.0,0.0,0.0,-3.6696,0.0,0.0,0.0,0.0,0.0,0.0,0.0,0.0,0.0,0.0,0.0,0.0,0.0,0.0,0.0,0.0,0.0,0.0,-3.7377,-3.6253,-3.4816,-3.3744,-3.3169,-3.2594,-3.2084,-3.1823,-3.1536,-3.1287,-3.0973,-3.0973,-3.0712,-3.01,-2.9562,-2.8996,-2.842,-2.9048,-2.9431,-2.9797,-3.1171,-3.2137,-3.2751,-3.3352,-3.3744,-3.4073,-3.4762,-3.4902,-3.4935,-3.6325,-3.6389,-3.5963,-3.6995,-3.7387,-3.735,-3.6614,-3.6807,-3.72,-3.6673,-3.6541,-3.6541,-3.6541,-3.6332,-3.6096,-3.6096,-3.6096,-3.6044,-3.5757,-3.5495,-3.5365,-3.5626,-3.5495,-3.5391,-3.5652,-3.5704,-3.5417,-3.4554,-3.5129,-3.5391,-3.4528,-3.4659,-3.4737,-3.4424,-3.4397,-3.4397,-3.4397,-3.4397,-3.4356,-3.4272,-3.423,-3.4189,-3.4131,-3.3852,-3.3639,-3.3482,-3.3064,-3.2769,-3.2548,-3.1786,-3.0859,-2.9804,-3.008,-3.0206,-3.0206,-2.993,-2.9804,0.0,0.0,0.0,0.0,0.0,-3.6419,0.0,0.0,0.0,0.0,0.0,0.0,0.0,0.0,0.0,0.0,0.0,0.0,0.0,0.0,0.0,0.0,0.0,0.0,0.0,0.0,-3.6253,-3.5208,-3.4058,-3.3326,-3.3091,-3.2202,-3.1641,-3.1641,-3.1235,-3.0973,-3.0973,-3.0973,-3.0712,-3.01,-2.9666,-2.9118,-2.8569,-2.917,-2.9431,-2.9536,-3.0988,-3.1693,-3.1876,-3.2855,-3.3378,-3.3721,-3.4982,-3.5063,-3.4684,-3.5896,-3.5849,-3.513,-3.517,-3.5405,-3.5469,-3.4554,-3.4946,-3.5783,-3.5913,-3.6358,-3.6828,-3.6828,-3.6645,-3.6462,-3.6462,-3.6358,-3.6279,-3.6279,-3.5783,-3.5417,-3.5861,-3.56,-3.5417,-3.5861,-3.5678,-3.526,-3.4685,-3.5338,-3.5626,-3.4711,-3.4972,-3.5129,-3.4633,-3.4476,-3.4397,-3.4397,-3.4397,-3.4314,-3.4147,-3.423,-3.4189,-3.4021,-3.3768,-3.3343,-3.2864,-3.2862,-3.2349,-3.126,-3.1235,-3.0758,-2.9804,-2.9804,-2.9804,-2.9804,-2.9804,-2.9804,0.0,0.0,0.0,0.0,-3.663,0.0,0.0,0.0,0.0,0.0,0.0,0.0,0.0,0.0,0.0,0.0,0.0,0.0,0.0,0.0,0.0,0.0,0.0,0.0,0.0,0.0,0.0,-3.4554,-3.343,-3.2359,-3.1339,-3.1156,-3.1078,-3.1078,-3.1026,-3.0973,-3.0973,-3.0973,-3.0712,-3.01,-3.0022,-2.9745,-2.9231,-2.9771,-2.9996,-3.0048,-3.079,-3.1365,-3.1823,-3.1954,-3.2607,-3.3639,-3.4312,-3.4222,-3.375,-3.3924,-3.3567,-3.304,-3.304,-3.3447,-3.3849,-3.3718,-3.4084,-3.4685,-3.5234,-3.5783,-3.6201,-3.6201,-3.6933,-3.7691,-3.7691,-3.7299,-3.6907,-3.6907,-3.607,-3.5312,-3.5391,-3.5338,-3.5312,-3.5391,-3.573,-3.5835,-3.5286,-3.5312,-3.5338,-3.5208,-3.526,-3.5286,-3.5208,-3.4737,-3.4397,-3.4397,-3.4397,-3.4397,-3.4356,-3.4021,-3.3768,-3.3768,-3.3386,-3.2988,-3.2682,-3.2184,-3.1554,-3.0708,-3.0708,-3.0407,-2.9804,-2.9804,-2.9804,-2.9804,-2.9804,-2.9804,0.0,0.0,0.0,0.0,0.0,0.0,-3.4349,0.0,-3.4238,0.0,0.0,0.0,0.0,0.0,0.0,0.0,0.0,0.0,0.0,0.0,0.0,0.0,0.0,0.0,0.0,0.0,0.0,0.0,0.0,-3.2333,-3.1522,-3.1156,-3.0973,-3.0973,-3.0973,-3.0973,-3.0973,-3.0973,-3.0869,-3.0634,-3.0257,-2.997,-2.9771,-2.9996,-3.01,-3.0127,-3.0738,-3.113,-3.1365,-3.1667,-3.2084,-3.2672,-3.3561,-3.3587,-3.3038,-3.2698,-3.2411,-3.215,-3.181,-3.2306,-3.3064,-3.3064,-3.3456,-3.4031,-3.4607,-3.5391,-3.6096,-3.6096,-3.6462,-3.6933,-3.7299,-3.7194,-3.7011,-3.7011,-3.6358,-3.5757,-3.5757,-3.5757,-3.5861,-3.6227,-3.6201,-3.6044,-3.5809,-3.6044,-3.594,-3.492,-3.5338,-3.5521,-3.4868,-3.4554,-3.4397,-3.4397,-3.4397,-3.4314,-3.4021,-3.3937,-3.381,-3.3556,-3.3107,-3.2828,-3.2887,-3.2028,-3.1407,-3.106,-3.0758,-3.0357,-2.9804,-2.9804,-2.9804,-2.9804,-2.9804,-2.9804,-3.6132,0.0,0.0,0.0,0.0,0.0,0.0,0.0,0.0,0.0,0.0,0.0,0.0,0.0,0.0,-3.3674,0.0,0.0,0.0,0.0,0.0,0.0,0.0,0.0,0.0,0.0,0.0,0.0,-3.3117,0.0,-3.1615,-3.1209,-3.0973,-3.0973,-3.0973,-3.0973,-3.0973,-3.0973,-3.0973,-3.0973,-3.0581,-3.0335,-3.0335,-3.0335,-3.0335,-3.0361,-3.0817,-3.0973,-3.1026,-3.1444,-3.1667,-3.1876,-3.2594,-3.2803,-3.2646,-3.2228,-3.1928,-3.1719,-3.1182,-3.1522,-3.228,-3.2594,-3.2881,-3.3247,-3.3953,-3.4868,-3.5626,-3.5626,-3.5861,-3.6253,-3.6854,-3.6881,-3.6802,-3.6959,-3.6436,-3.5887,-3.5887,-3.5887,-3.6018,-3.6436,-3.6175,-3.594,-3.607,-3.6358,-3.6096,-3.4842,-3.5469,-3.5809,-3.4972,-3.4868,-3.4826,-3.4783,-3.4783,-3.4562,-3.3982,-3.4041,-3.3828,-3.3098,-3.2693,-3.2584,-3.2817,-3.1763,-3.1235,-3.1386,-3.0884,-3.0357,-2.9804,-2.9955,-2.993,-2.9804,-2.9804,-2.9804,0.0,0.0,0.0,-3.5002,0.0,0.0,0.0,0.0,-3.4045,0.0,0.0,0.0,0.0,-3.4187,-3.4366,-3.3802,-3.4187,0.0,0.0,0.0,0.0,0.0,0.0,0.0,0.0,0.0,0.0,0.0,-3.3326,0.0,-3.1078,-3.0999,-3.0973,-3.0973,-3.0973,-3.0973,-3.0973,-3.0973,-3.0973,-3.0973,-3.0973,-3.0947,-3.0947,-3.0947,-3.0947,-3.0947,-3.0973,-3.0973,-3.0973,-3.0999,-3.1339,-3.1745,-3.1261,-3.1731,-3.2698,-3.2672,-3.2306,-3.1719,-3.1182,-3.0999,-3.1235,-3.2333,-3.2333,-3.2084,-3.3273,-3.4005,-3.445,-3.445,-3.526,-3.6253,-3.6854,-3.6567,-3.6279,-3.6854,-3.6149,-3.5338,-3.5338,-3.5338,-3.5338,-3.5338,-3.5338,-3.5495,-3.6018,-3.5678,-3.5338,-3.5286,-3.573,-3.6096,-3.6044,-3.6044,-3.5983,-3.5771,-3.5771,-3.545,-3.4622,-3.4328,-3.3655,-3.2315,-3.2215,-3.2215,-3.224,-3.121,-3.0884,-3.1386,-3.0884,-3.0357,-2.9804,-3.0331,-3.0306,-2.9804,-2.9804,-2.9804,0.0,0.0,-3.6229,-3.5454,0.0,0.0,0.0,0.0,0.0,0.0,0.0,0.0,0.0,-3.373,-3.368,-3.3788,-3.373,-3.3275,0.0,0.0,0.0,0.0,0.0,0.0,0.0,0.0,0.0,-3.3123,-3.2489,-3.1784,0.0,-3.0973,-3.0973,-3.0973,-3.0973,-3.0973,-3.0973,-3.0973,-3.0973,-3.0973,-3.0973,-3.0973,-3.0973,-3.0973,-3.0973,-3.0973,-3.0973,-3.0973,-3.0973,-3.0973,-3.1104,-3.1287,-3.1432,-3.2019,-3.2646,-3.2254,-3.2254,-3.2385,-3.2176,-3.1862,-3.1679,-3.2437,-3.2568,-3.2542,-3.3352,-3.3979,-3.4397,-3.4397,-3.4685,-3.5103,-3.573,-3.573,-3.5626,-3.5835,-3.5574,-3.5182,-3.4789,-3.5286,-3.5835,-3.5835,-3.5835,-3.6018,-3.6593,-3.5913,-3.5417,-3.5783,-3.6332,-3.6523,-3.5981,-3.5885,-3.5797,-3.5576,-3.5531,-3.5366,-3.4965,-3.4363,-3.3809,-3.3345,-3.2616,-3.2541,-3.3294,-3.1913,-3.1386,-3.1913,-3.1411,-3.0859,-3.0331,-3.0532,-3.0331,-2.9804,-2.9804,-2.9804,-3.4906,-3.5353,0.0,0.0,-3.47,0.0,-3.3746,0.0,0.0,0.0,0.0,0.0,0.0,0.0,-3.342,-3.3571,-3.3144,-3.239,0.0,-3.1256,0.0,0.0,0.0,0.0,0.0,0.0,-3.3168,-3.2552,-3.1993,-3.1498,0.0,0.0,-3.0973,-3.0973,-3.0973,-3.0973,-3.0973,-3.0973,-3.0973,-3.0973,-3.0973,-3.0973,-3.0973,-3.0973,-3.0973,-3.0973,-3.0973,-3.0973,-3.0973,-3.0973,-3.0973,-3.1026,-3.1392,-3.1888,-3.2359,-3.2163,-3.2385,-3.2672,-3.2463,-3.228,-3.2163,-3.2568,-3.2829,-3.3117,-3.3692,-3.411,-3.445,-3.4659,-3.4554,-3.458,-3.5391,-3.5286,-3.5025,-3.5234,-3.5129,-3.4868,-3.4476,-3.4972,-3.5495,-3.5495,-3.5495,-3.5626,-3.6051,-3.5543,-3.5236,-3.5739,-3.6488,-3.6757,-3.6007,-3.6293,-3.6418,-3.6032,-3.5853,-3.536,-3.4464,-3.3708,-3.3144,-3.2767,-3.2215,-3.2164,-3.2717,-3.1863,-3.1662,-3.2215,-3.1662,-3.1235,-3.0884,-3.0708,-3.0331,-2.9804,-2.9804,-2.9905]},{"header":{"parameterUnit":"m.s-1","parameterCategory":1,"la1":30.6,"la2":29.2853,"lo1":-89.7004,"lo2":-87.6739,"dy":0.0162,"dx":0.0183,"nx":112,"ny":82,"refTime":"2023-08-08T12:00:00:Z","depth":0,"parameterNumber":3,"parameterNumberName":"V-component_of_WINDS"},"data":[0.0,0.0,0.0,0.0,0.0,0.0,0.0,0.0,0.0,0.0,0.0,0.0,0.0,0.0,0.0,0.0,0.0,0.0,0.0,0.0,0.0,0.0,0.0,0.0,0.0,0.0,0.0,0.0,0.0,0.0,0.0,0.0,0.0,0.0,0.0,0.0,0.0,0.0,0.0,0.0,0.0,0.0,0.0,0.0,0.0,0.0,0.0,0.0,0.0,0.0,0.0,0.0,0.0,0.0,0.0,0.0,0.0,0.0,0.0,0.0,0.0,0.0,0.0,0.0,0.0,0.0,0.0,0.0,0.0,0.0,0.0,0.0,0.0,0.0,0.0,0.0,0.0,0.0,0.0,0.0,0.0,0.0,0.0,0.0,0.0,0.0,0.0,0.0,0.0,0.0,-2.9394,-3.2539,-3.7402,-4.0781,-4.1621,-4.1582,-4.0073,-3.6599,0.0,0.0,0.0,0.0,0.0,0.0,0.0,0.0,0.0,0.0,0.0,0.0,0.0,0.0,0.0,0.0,0.0,0.0,0.0,0.0,0.0,0.0,0.0,0.0,0.0,0.0,0.0,0.0,0.0,0.0,0.0,0.0,0.0,0.0,0.0,0.0,0.0,0.0,0.0,0.0,0.0,0.0,0.0,0.0,0.0,0.0,0.0,0.0,0.0,0.0,0.0,0.0,0.0,0.0,0.0,0.0,0.0,0.0,0.0,0.0,0.0,0.0,0.0,0.0,0.0,0.0,0.0,0.0,0.0,0.0,0.0,0.0,0.0,0.0,0.0,0.0,0.0,0.0,0.0,0.0,0.0,0.0,0.0,0.0,0.0,0.0,0.0,0.0,0.0,0.0,0.0,0.0,0.0,0.0,0.0,0.0,0.0,0.0,0.0,0.0,0.0,0.0,0.0,0.0,-2.9883,-3.541,-3.8398,-4.0332,-4.1191,-4.0605,-3.9103,-3.6538,0.0,0.0,0.0,0.0,0.0,0.0,0.0,0.0,0.0,0.0,0.0,0.0,0.0,0.0,0.0,0.0,0.0,0.0,0.0,0.0,0.0,0.0,0.0,0.0,0.0,0.0,0.0,0.0,0.0,0.0,0.0,0.0,0.0,0.0,0.0,0.0,0.0,0.0,0.0,0.0,0.0,0.0,0.0,0.0,0.0,0.0,0.0,0.0,0.0,0.0,0.0,0.0,0.0,0.0,0.0,0.0,0.0,0.0,0.0,0.0,0.0,0.0,0.0,0.0,0.0,0.0,0.0,0.0,0.0,0.0,0.0,0.0,0.0,0.0,0.0,0.0,0.0,0.0,0.0,0.0,0.0,0.0,0.0,0.0,0.0,0.0,0.0,0.0,0.0,0.0,0.0,0.0,0.0,0.0,0.0,0.0,0.0,0.0,0.0,0.0,0.0,0.0,0.0,-2.9199,-3.1445,-3.584,-3.8457,-4.0234,-4.1094,-4.133,-4.0288,-3.7777,-3.7201,0.0,0.0,0.0,0.0,0.0,0.0,0.0,0.0,0.0,0.0,0.0,0.0,0.0,0.0,0.0,0.0,0.0,0.0,0.0,0.0,0.0,0.0,0.0,0.0,0.0,0.0,0.0,0.0,0.0,0.0,0.0,0.0,0.0,0.0,0.0,0.0,0.0,0.0,0.0,0.0,0.0,0.0,0.0,0.0,0.0,0.0,0.0,0.0,0.0,0.0,0.0,0.0,0.0,0.0,0.0,0.0,0.0,0.0,0.0,0.0,0.0,0.0,0.0,0.0,0.0,0.0,0.0,0.0,0.0,0.0,0.0,0.0,0.0,0.0,0.0,0.0,0.0,0.0,0.0,0.0,0.0,0.0,0.0,0.0,0.0,0.0,0.0,0.0,0.0,0.0,0.0,0.0,0.0,0.0,0.0,0.0,0.0,0.0,0.0,0.0,0.0,0.0,-3.0994,-3.3139,-3.5723,-3.8164,-4.0073,-4.1319,-4.1441,-4.0688,-3.8957,-3.7331,0.0,0.0,0.0,0.0,0.0,0.0,0.0,0.0,0.0,0.0,0.0,0.0,0.0,0.0,0.0,0.0,0.0,0.0,0.0,0.0,0.0,0.0,0.0,0.0,0.0,0.0,0.0,0.0,0.0,0.0,0.0,0.0,0.0,0.0,0.0,0.0,0.0,0.0,0.0,0.0,0.0,0.0,0.0,0.0,0.0,0.0,0.0,0.0,0.0,0.0,0.0,0.0,0.0,0.0,0.0,0.0,0.0,0.0,0.0,0.0,0.0,0.0,0.0,0.0,0.0,0.0,0.0,0.0,0.0,0.0,0.0,0.0,0.0,0.0,0.0,0.0,0.0,0.0,0.0,0.0,0.0,0.0,0.0,0.0,0.0,0.0,0.0,0.0,0.0,0.0,0.0,0.0,0.0,0.0,0.0,0.0,0.0,0.0,0.0,0.0,0.0,0.0,-3.1808,-3.4649,-3.5849,-3.7617,-3.9592,-4.1912,-3.9511,-3.8369,-3.9453,-3.5844,0.0,0.0,0.0,0.0,0.0,0.0,0.0,0.0,0.0,0.0,0.0,0.0,0.0,0.0,0.0,0.0,0.0,0.0,0.0,0.0,0.0,0.0,0.0,0.0,0.0,0.0,0.0,0.0,0.0,0.0,0.0,0.0,0.0,0.0,0.0,0.0,0.0,0.0,0.0,0.0,0.0,0.0,0.0,0.0,0.0,0.0,0.0,0.0,0.0,0.0,0.0,0.0,0.0,0.0,0.0,0.0,0.0,0.0,0.0,0.0,0.0,0.0,0.0,0.0,0.0,0.0,0.0,0.0,0.0,0.0,0.0,0.0,0.0,0.0,0.0,0.0,0.0,0.0,0.0,0.0,0.0,0.0,0.0,0.0,0.0,0.0,0.0,0.0,0.0,0.0,0.0,0.0,0.0,0.0,0.0,0.0,0.0,0.0,0.0,0.0,0.0,0.0,-3.2173,-3.5423,0.0,-3.9309,-4.1411,-4.2543,-4.2105,-4.0974,-3.9197,0.0,0.0,0.0,0.0,0.0,0.0,0.0,0.0,0.0,0.0,0.0,0.0,0.0,0.0,0.0,0.0,0.0,0.0,0.0,0.0,0.0,0.0,0.0,0.0,0.0,0.0,0.0,0.0,0.0,0.0,0.0,0.0,0.0,0.0,0.0,0.0,0.0,0.0,0.0,0.0,0.0,0.0,0.0,0.0,0.0,0.0,0.0,0.0,0.0,0.0,0.0,0.0,0.0,0.0,0.0,0.0,0.0,0.0,0.0,0.0,0.0,0.0,0.0,0.0,0.0,0.0,0.0,0.0,0.0,0.0,0.0,0.0,0.0,0.0,0.0,0.0,0.0,0.0,0.0,0.0,0.0,0.0,0.0,0.0,0.0,0.0,0.0,0.0,0.0,0.0,0.0,0.0,0.0,0.0,0.0,0.0,0.0,0.0,0.0,0.0,0.0,0.0,-2.9352,-3.321,-3.6494,0.0,-4.0315,-4.2206,-4.31,-4.2632,-4.1358,-3.8943,0.0,0.0,0.0,0.0,0.0,0.0,0.0,0.0,0.0,0.0,0.0,0.0,0.0,0.0,0.0,0.0,0.0,0.0,0.0,0.0,0.0,0.0,0.0,0.0,0.0,0.0,0.0,0.0,0.0,0.0,0.0,0.0,0.0,0.0,0.0,0.0,0.0,0.0,0.0,0.0,0.0,0.0,0.0,0.0,0.0,0.0,0.0,0.0,0.0,0.0,0.0,0.0,0.0,0.0,0.0,0.0,0.0,0.0,0.0,0.0,0.0,0.0,0.0,0.0,0.0,0.0,0.0,0.0,0.0,0.0,0.0,0.0,0.0,0.0,0.0,0.0,0.0,0.0,0.0,0.0,0.0,0.0,0.0,0.0,0.0,0.0,0.0,0.0,0.0,0.0,0.0,0.0,0.0,0.0,0.0,0.0,0.0,0.0,0.0,0.0,0.0,0.0,-3.1576,-3.5061,-3.7988,-3.9272,-4.0258,-4.1617,-4.3519,-4.0342,-3.8377,0.0,0.0,0.0,0.0,0.0,0.0,0.0,0.0,0.0,0.0,0.0,0.0,0.0,0.0,0.0,0.0,0.0,0.0,0.0,0.0,0.0,0.0,0.0,0.0,0.0,0.0,0.0,0.0,0.0,0.0,0.0,0.0,0.0,0.0,0.0,0.0,0.0,0.0,0.0,0.0,0.0,0.0,0.0,0.0,0.0,0.0,0.0,0.0,0.0,0.0,0.0,0.0,0.0,0.0,0.0,0.0,0.0,0.0,0.0,0.0,0.0,0.0,0.0,0.0,0.0,0.0,0.0,0.0,0.0,0.0,0.0,0.0,0.0,0.0,0.0,0.0,0.0,0.0,0.0,0.0,0.0,0.0,0.0,0.0,0.0,0.0,0.0,0.0,0.0,0.0,0.0,0.0,0.0,0.0,0.0,0.0,0.0,0.0,0.0,0.0,0.0,0.0,0.0,-3.102,-3.5014,-3.8363,-3.9674,-4.1923,-4.3521,-4.4089,-4.216,-4.0093,-3.8359,0.0,0.0,0.0,0.0,0.0,0.0,0.0,0.0,0.0,0.0,0.0,0.0,0.0,0.0,0.0,0.0,0.0,0.0,0.0,0.0,0.0,0.0,0.0,0.0,0.0,0.0,0.0,0.0,0.0,0.0,0.0,0.0,0.0,0.0,0.0,0.0,0.0,0.0,0.0,0.0,0.0,0.0,0.0,0.0,0.0,0.0,0.0,0.0,0.0,0.0,0.0,0.0,0.0,0.0,0.0,0.0,0.0,0.0,0.0,0.0,0.0,0.0,0.0,0.0,0.0,0.0,0.0,0.0,0.0,0.0,0.0,0.0,0.0,0.0,0.0,0.0,0.0,0.0,0.0,0.0,0.0,0.0,0.0,0.0,0.0,0.0,0.0,0.0,0.0,0.0,0.0,0.0,0.0,0.0,0.0,0.0,0.0,0.0,0.0,0.0,0.0,0.0,-3.1997,-3.5549,-3.8639,-4.0294,-4.2375,-4.3625,-4.3409,-4.2134,-4.021,-3.7517,0.0,0.0,0.0,0.0,0.0,0.0,0.0,0.0,0.0,0.0,0.0,0.0,0.0,0.0,0.0,0.0,0.0,0.0,0.0,0.0,0.0,0.0,0.0,0.0,0.0,0.0,0.0,0.0,0.0,0.0,0.0,0.0,0.0,0.0,0.0,0.0,0.0,0.0,0.0,0.0,0.0,0.0,0.0,0.0,0.0,0.0,0.0,0.0,0.0,0.0,0.0,0.0,0.0,0.0,0.0,0.0,0.0,0.0,0.0,0.0,0.0,0.0,0.0,0.0,0.0,0.0,0.0,0.0,0.0,0.0,0.0,0.0,0.0,0.0,0.0,0.0,0.0,0.0,0.0,0.0,0.0,0.0,0.0,0.0,0.0,0.0,0.0,0.0,0.0,0.0,0.0,0.0,0.0,0.0,0.0,0.0,0.0,0.0,0.0,0.0,0.0,0.0,-3.3646,-3.6266,-3.8719,-4.0812,-4.2097,-4.2506,-4.187,-4.0908,-3.92,-3.6579,0.0,0.0,0.0,0.0,0.0,0.0,0.0,0.0,0.0,0.0,0.0,0.0,0.0,0.0,0.0,0.0,0.0,0.0,0.0,0.0,0.0,0.0,0.0,0.0,0.0,0.0,0.0,0.0,0.0,0.0,0.0,0.0,0.0,0.0,0.0,0.0,0.0,0.0,0.0,0.0,0.0,0.0,0.0,0.0,0.0,0.0,0.0,0.0,0.0,0.0,0.0,0.0,0.0,0.0,0.0,0.0,0.0,0.0,0.0,0.0,-2.7429,0.0,0.0,0.0,0.0,0.0,0.0,0.0,0.0,0.0,0.0,0.0,0.0,0.0,0.0,0.0,0.0,0.0,0.0,0.0,0.0,0.0,0.0,0.0,0.0,0.0,0.0,0.0,0.0,0.0,0.0,0.0,0.0,0.0,0.0,0.0,0.0,0.0,0.0,0.0,0.0,0.0,-3.3236,-3.5737,-3.8022,-3.9753,-4.1268,-4.1749,-4.0812,-4.0138,-3.8815,-3.6555,-3.4967,0.0,0.0,0.0,0.0,0.0,0.0,0.0,0.0,0.0,0.0,0.0,0.0,0.0,0.0,0.0,0.0,0.0,0.0,0.0,0.0,0.0,0.0,0.0,0.0,0.0,0.0,0.0,0.0,0.0,0.0,0.0,0.0,0.0,0.0,0.0,0.0,0.0,0.0,0.0,0.0,0.0,0.0,0.0,0.0,0.0,0.0,0.0,0.0,0.0,0.0,0.0,0.0,0.0,0.0,0.0,0.0,0.0,0.0,0.0,0.0,-2.9425,0.0,0.0,0.0,0.0,0.0,0.0,0.0,0.0,0.0,0.0,0.0,0.0,0.0,0.0,0.0,0.0,0.0,0.0,0.0,0.0,0.0,0.0,0.0,0.0,0.0,0.0,0.0,0.0,0.0,0.0,0.0,0.0,0.0,0.0,0.0,0.0,0.0,0.0,0.0,0.0,-3.3404,-3.5497,-3.7445,-3.9056,-4.0427,-4.0884,-4.009,-3.9753,-3.8695,-3.6531,-3.516,0.0,0.0,0.0,0.0,0.0,0.0,0.0,0.0,0.0,0.0,0.0,0.0,0.0,0.0,0.0,0.0,0.0,0.0,0.0,0.0,0.0,0.0,0.0,0.0,0.0,0.0,0.0,0.0,0.0,0.0,0.0,0.0,0.0,0.0,0.0,0.0,0.0,0.0,0.0,0.0,0.0,0.0,0.0,0.0,0.0,0.0,0.0,0.0,0.0,0.0,0.0,0.0,0.0,0.0,-2.9183,-3.0038,-3.163,-3.3162,-3.4478,-3.4504,-3.389,-3.2826,0.0,0.0,0.0,0.0,0.0,0.0,0.0,0.0,0.0,0.0,0.0,0.0,0.0,0.0,0.0,0.0,0.0,0.0,0.0,0.0,0.0,0.0,0.0,0.0,0.0,-3.7829,-3.7902,0.0,0.0,0.0,0.0,0.0,0.0,0.0,0.0,0.0,0.0,0.0,0.0,-3.3742,-3.5497,-3.7084,-3.8527,-3.9633,-3.9994,-3.9369,-3.9489,-3.8695,-3.6531,-3.5593,-3.439,0.0,0.0,0.0,0.0,0.0,0.0,0.0,0.0,0.0,0.0,0.0,0.0,0.0,0.0,0.0,0.0,0.0,0.0,0.0,0.0,0.0,0.0,0.0,0.0,0.0,0.0,0.0,0.0,0.0,0.0,0.0,0.0,-2.7971,-2.7195,0.0,0.0,0.0,0.0,0.0,0.0,0.0,0.0,0.0,0.0,0.0,0.0,0.0,0.0,-2.4783,-2.6132,-2.7753,-2.9462,-3.1037,-3.353,-3.666,-3.7182,-3.8373,-4.007,-3.9658,0.0,-3.4092,-3.3521,0.0,0.0,0.0,0.0,0.0,0.0,0.0,0.0,0.0,0.0,0.0,0.0,0.0,0.0,0.0,0.0,0.0,0.0,0.0,0.0,0.0,0.0,-3.9296,-3.9753,-4.0331,-4.0427,0.0,-3.7036,-3.5064,-3.391,0.0,0.0,0.0,0.0,0.0,0.0,0.0,0.0,-3.3838,-3.5833,-3.7348,-3.8022,-3.9056,-3.9296,-3.8286,-3.9056,-3.8695,-3.6531,-3.6266,-3.5497,-3.3862,-3.2298,0.0,0.0,0.0,0.0,0.0,0.0,0.0,0.0,0.0,0.0,0.0,0.0,0.0,0.0,0.0,0.0,0.0,0.0,0.0,0.0,0.0,0.0,0.0,0.0,0.0,0.0,0.0,0.0,0.0,-2.7757,-2.8061,-2.7323,-2.7538,-2.6784,0.0,0.0,0.0,0.0,0.0,0.0,0.0,0.0,0.0,-2.4796,-2.5384,-2.6199,-2.7295,-2.827,-2.9244,-3.0312,-3.216,-3.4525,-3.7107,-3.8366,-4.0137,-4.2148,-4.174,-4.07,-3.9093,-3.6811,-3.5398,-3.4545,0.0,0.0,0.0,0.0,0.0,-3.2519,-3.3926,0.0,0.0,0.0,0.0,0.0,0.0,0.0,0.0,0.0,0.0,0.0,0.0,0.0,0.0,-4.1605,-4.1894,-4.187,-4.11,-3.9561,-3.7733,0.0,-3.4944,-3.4078,-3.2418,0.0,0.0,0.0,0.0,0.0,-3.4703,-3.6002,-3.706,-3.7902,-3.8695,-3.896,-3.8503,-3.8888,-3.8503,-3.694,-3.629,-3.5376,-3.4054,-3.2515,-3.1496,0.0,0.0,0.0,0.0,0.0,0.0,0.0,0.0,0.0,0.0,0.0,0.0,0.0,0.0,0.0,0.0,0.0,0.0,0.0,0.0,0.0,0.0,0.0,0.0,0.0,0.0,0.0,0.0,-2.7954,-2.8813,-2.7936,-2.8804,-2.815,0.0,0.0,0.0,0.0,0.0,0.0,-2.3651,-2.4302,-2.5398,-2.7014,-2.7495,-2.8297,-2.9472,-2.9993,-3.0394,-3.078,-3.3273,-3.5273,-3.6781,-3.941,-4.1511,-4.318,-4.2862,-4.3017,-4.312,-3.9651,-3.8083,-3.7643,-3.578,-3.4665,-3.4141,-3.457,-3.459,-3.4668,-3.6387,-3.6641,-3.6133,-3.5801,0.0,-3.3793,-3.2658,0.0,0.0,0.0,0.0,-3.896,-4.0571,0.0,-4.2362,-4.2832,-4.2952,-4.2784,-4.211,-4.1244,-3.985,0.0,-3.6386,-3.54,-3.3428,0.0,0.0,0.0,0.0,-3.3717,-3.54,-3.6194,-3.6964,-3.7878,-3.8359,-3.8551,-3.8407,-3.8527,-3.8094,-3.6867,-3.617,-3.5352,-3.4246,-3.2851,-3.1974,-3.1617,0.0,0.0,0.0,0.0,0.0,0.0,0.0,0.0,0.0,0.0,0.0,0.0,0.0,0.0,0.0,0.0,0.0,0.0,0.0,0.0,0.0,0.0,0.0,0.0,0.0,0.0,0.0,0.0,0.0,-2.9629,-3.0549,0.0,0.0,0.0,0.0,-2.2822,-2.3343,-2.4275,-2.5795,-2.6627,-2.7642,-2.8871,-2.974,-3.0354,-3.0702,-3.1009,-3.1303,-3.1691,-3.5271,-3.7119,-3.7528,-4.1923,-4.3825,-4.3609,-4.4027,-4.4233,-4.4021,-4.143,-3.9855,-3.899,-3.7637,-3.6641,-3.5937,-3.6387,-3.6777,-3.7168,-3.7676,-3.7324,-3.6836,-3.8008,-3.7906,-3.697,-3.5209,-3.6144,0.0,0.0,-3.9099,-4.0643,-4.223,-4.2747,-4.2916,-4.3361,-4.3481,-4.3192,-4.2182,-4.1533,-4.0499,0.0,-3.7469,-3.6603,-3.4992,0.0,-3.3718,-3.3284,-3.4078,-3.4944,-3.5545,-3.6507,-3.7372,-3.7926,-3.7998,-3.7829,-3.7324,-3.7733,-3.7348,-3.5785,-3.6122,-3.5881,-3.4775,-3.3765,-3.3039,-3.271,-3.1156,0.0,0.0,0.0,0.0,0.0,0.0,0.0,0.0,0.0,0.0,0.0,0.0,0.0,0.0,0.0,0.0,0.0,0.0,0.0,0.0,0.0,0.0,0.0,0.0,0.0,0.0,0.0,0.0,-3.2109,-3.2794,0.0,0.0,-2.7097,-2.5796,-2.5363,-2.5899,-2.6774,-2.7883,-2.8778,-2.9619,-3.0421,-3.0755,-3.1062,-3.1356,-3.1463,-3.157,-3.1758,-3.4022,-3.6144,-3.8095,-4.0448,-4.2623,-4.45,-4.4119,-4.4376,-4.5055,-4.3288,-4.2045,-4.1152,-4.0158,-3.9277,-3.8535,-3.8691,-3.8848,-3.8984,-3.9141,-3.9004,-3.8681,-3.8406,-3.8262,-3.8121,-3.7862,-3.9078,-4.0653,-4.0985,-4.1755,-4.2615,-4.3553,-4.3505,-4.3289,-4.3457,-4.3,-4.2423,-4.2062,-4.1293,-4.0355,-3.9248,-3.831,-3.73,-3.605,-3.5112,-3.4438,-3.4294,-3.4246,-3.4583,-3.5497,-3.6242,-3.6892,-3.7421,-3.7781,-3.7902,-3.7709,-3.7565,-3.694,-3.5689,-3.5473,-3.4919,-3.3885,-3.3278,-3.2661,-3.1981,-3.122,-3.0474,0.0,0.0,0.0,0.0,0.0,0.0,0.0,0.0,0.0,0.0,0.0,0.0,0.0,0.0,0.0,0.0,0.0,0.0,0.0,0.0,0.0,0.0,0.0,0.0,0.0,0.0,-3.3848,-3.3848,-3.4198,-3.3608,-3.1283,-2.9233,-2.7874,-2.7726,-2.83,-2.8964,-2.9593,-3.0381,-3.0929,-3.1209,-3.1316,-3.1476,-3.1664,-3.1664,-3.1664,-3.1758,-3.4216,-3.6296,-3.7905,-4.0647,-4.2968,-4.4741,-4.4624,-4.4842,-4.5176,-4.4297,-4.334,-4.2363,-4.1816,-4.1152,-4.0527,-4.0371,-4.0332,-4.0293,-4.0,-3.9902,-3.9661,-3.8286,-3.8786,-3.9841,-3.9938,-4.1387,-4.312,-4.3457,-4.3673,-4.3842,-4.3949,-4.3794,-4.3433,-4.3072,-4.2471,-4.187,-4.1509,-4.0884,-4.0186,-3.9489,-3.8767,-3.7926,-3.6843,-3.6098,-3.5497,-3.5111,-3.5088,-3.5232,-3.5569,-3.6242,-3.6747,-3.6916,-3.7252,-3.7372,-3.7204,-3.6867,-3.6218,-3.516,-3.4607,-3.3957,-3.3136,-3.2672,-3.222,-3.1792,-3.1331,-3.0738,-2.9896,0.0,0.0,0.0,0.0,0.0,0.0,0.0,0.0,0.0,0.0,0.0,0.0,0.0,0.0,0.0,0.0,0.0,0.0,0.0,0.0,0.0,0.0,0.0,-3.0216,-3.291,-3.4805,-3.4778,-3.4902,-3.4273,-3.2676,-3.0828,-2.9718,-2.9772,-3.0301,-3.0723,-3.0768,-3.1356,-3.153,-3.1249,-3.1517,-3.1664,-3.1745,-3.1664,-3.1664,-3.1745,-3.6159,-3.7905,-3.7241,-4.3004,-4.5107,-4.4356,-4.5686,-4.5527,-4.4375,-4.4355,-4.3594,-4.2441,-4.2422,-4.2148,-4.1758,-4.1328,-4.1152,-4.1016,-4.0176,-3.9863,-3.9551,-3.7994,-3.9626,-4.2114,-4.1308,-4.294,-4.5053,-4.5029,-4.4669,-4.4141,-4.3625,-4.3481,-4.3216,-4.2206,-4.2024,-4.1677,-4.0643,-4.0403,-4.0066,-3.9032,-3.8815,-3.8455,-3.7397,-3.7204,-3.6843,-3.5833,-3.6531,0.0,-3.5761,-3.6531,-3.6964,-3.6435,-3.6386,-3.6194,-3.5665,-3.5593,-3.5063,-3.4006,-3.3501,-3.3063,-3.2734,-3.2067,-3.1865,-3.2234,-3.1455,-3.1008,-3.0895,0.0,0.0,0.0,0.0,0.0,0.0,0.0,0.0,0.0,0.0,0.0,0.0,0.0,0.0,0.0,0.0,0.0,0.0,0.0,0.0,0.0,0.0,-3.1719,-3.2441,-3.4883,-3.654,-3.6422,-3.6199,-3.5534,-3.429,-3.2284,-3.1007,-3.0859,-3.1111,-3.1158,-3.0782,-3.1356,-3.1637,-3.1557,-3.1623,-3.1746,-3.1812,-3.1746,-3.1935,-3.2454,-3.6097,-3.8284,-3.9041,-4.2937,-4.4701,-4.481,-4.4505,-4.4219,-4.3848,-4.3223,-4.2949,-4.2832,-4.2207,-4.1894,-4.1758,-4.1328,-4.0781,-4.0215,-3.998,-3.9277,-3.8682,-3.9931,-4.074,-4.1507,-4.2939,-4.3915,-4.4405,-4.4082,-4.3842,-4.3625,-4.3096,-4.2687,-4.2327,-4.2038,-4.1677,-4.1317,-4.1028,-4.0355,-3.9729,-3.9441,-3.8743,-3.8118,-3.7805,-3.7445,-3.7084,-3.6795,0.0,0.0,-3.5713,-3.6218,-3.6411,-3.5881,-3.617,-3.6194,-3.5665,-3.4871,-3.3982,0.0,-3.2192,-3.1487,-3.0845,-3.11,-3.119,-3.1082,-3.0488,-3.0405,0.0,0.0,0.0,0.0,0.0,0.0,0.0,0.0,0.0,0.0,0.0,0.0,0.0,0.0,0.0,0.0,0.0,0.0,0.0,0.0,0.0,0.0,-3.1543,-3.3594,-3.4629,-3.6543,-3.7859,-3.7906,-3.7193,-3.6275,-3.5231,-3.333,-3.2057,-3.2053,-3.2057,-3.1997,-3.1795,-3.2136,-3.2327,-3.2327,-3.2327,-3.2339,-3.2429,-3.2326,-3.2971,-3.4173,-3.715,-3.9272,-4.0745,-4.3634,-4.4822,0.0,-4.4219,-4.3672,-4.3125,-4.2637,-4.2363,0.0,0.0,0.0,0.0,0.0,-4.0195,-3.957,-3.9394,-3.9076,-3.8889,-3.9689,-4.0757,-4.1896,-4.2809,-4.3555,-4.3938,-4.3601,-4.3361,-4.3072,-4.2567,-4.2265,-4.1918,-4.1701,-4.1413,-4.1124,-4.0908,-4.0379,-3.9801,-3.9369,0.0,0.0,-3.8022,-3.7733,-3.7445,-3.7228,-3.7132,-3.6723,0.0,-3.6074,-3.6122,-3.5376,-3.5569,-3.5617,-3.5304,-3.4462,0.0,0.0,0.0,-3.084,-3.0022,-3.0491,0.0,0.0,0.0,-3.0815,0.0,0.0,0.0,0.0,-3.4237,-3.4478,0.0,0.0,0.0,0.0,0.0,0.0,0.0,0.0,0.0,0.0,0.0,0.0,0.0,0.0,0.0,0.0,-3.3407,-3.541,-3.6836,-3.8008,-3.8836,-3.8982,-3.7836,-3.6577,-3.5572,-3.391,-3.2863,-3.2856,-3.2999,-3.3101,-3.3131,0.0,0.0,0.0,0.0,-3.3285,-3.3215,-3.3285,-3.4262,-3.6159,-3.8562,-4.0494,-4.215,-4.4529,-4.5156,-4.4394,-4.4297,-4.3535,-4.2344,-4.2305,-4.1797,-4.1035,-4.1074,-4.1074,-4.0937,-4.0117,-3.9531,0.0,0.0,0.0,0.0,-3.8481,-4.0192,-4.2527,-4.1884,-4.2494,-4.3409,-4.3361,-4.3024,-4.2602,-4.2073,-4.1894,-4.1774,-4.1293,-4.1172,-4.1028,-4.0499,-4.0355,-4.0018,-3.9008,-3.8767,-3.8575,-3.807,-3.7974,-3.7829,-3.7348,-3.7685,0.0,-3.5978,-3.6146,-3.6026,-3.4967,0.0,0.0,-3.4823,-3.4246,-3.3763,-3.3511,-3.1981,-3.0796,-3.0105,-3.0217,-3.0313,-3.0313,-3.0876,-3.1778,-3.3115,-3.4174,-3.529,-3.6367,-3.5146,-3.5139,0.0,0.0,0.0,0.0,0.0,0.0,0.0,0.0,0.0,0.0,0.0,0.0,0.0,0.0,0.0,-3.4346,-3.5525,-3.6992,-3.8984,-3.9492,-3.9222,-3.8204,-3.7421,-3.6476,-3.5135,-3.3882,-3.2832,-3.2255,-3.2956,-3.3144,-3.2527,-3.2897,0.0,-3.3177,-3.3415,-3.3601,-3.3479,-3.3587,-3.4543,-3.6479,0.0,0.0,-4.2696,-4.4329,-4.4883,-4.4355,-4.3633,-4.2793,-4.1894,-4.1562,-4.0918,-4.0176,-4.0508,-4.0449,-4.0078,-3.9531,-3.9062,-3.8633,-3.8203,-3.8127,-3.844,-3.9297,-4.0287,-4.1268,-4.2265,-4.2724,0.0,-4.2399,-4.2206,-4.2014,-4.1485,-4.1341,-4.1317,-4.1196,-4.1172,-4.1028,-4.0499,-4.0066,-3.9585,-3.8936,-3.8455,-3.8118,-3.7998,-3.7974,-3.795,-3.7853,-3.7926,-3.7709,-3.6988,-3.6603,-3.617,-3.5521,-3.5088,-3.4872,-3.5114,-3.3666,-3.2822,-3.2949,-3.1442,-3.0719,-3.1073,-3.0991,-3.0991,-3.1154,-3.1295,-3.2117,-3.3729,-3.3946,-3.5123,-3.7099,-3.6837,-3.6533,0.0,0.0,0.0,0.0,0.0,0.0,0.0,0.0,0.0,0.0,0.0,-3.4196,0.0,0.0,-3.5387,-3.6352,-3.6583,-3.7109,-3.8418,-3.8965,-3.8709,-3.7312,-3.6916,-3.5908,-3.3837,-3.3085,-3.2806,-3.2858,-3.3336,-3.3576,-3.3457,-3.3772,-3.3944,-3.3944,-3.4087,-3.4493,-3.518,-3.5476,-3.7036,-3.9659,-4.0733,-4.2458,-4.4523,-4.4864,-4.4805,-4.4336,-4.3223,-4.2383,-4.1758,-4.1348,-4.0664,-3.9922,-4.0137,-3.9805,-3.918,-3.873,-3.8301,-3.7871,-3.7441,-3.7457,-3.7868,-3.8959,-3.9784,-4.056,-4.1685,-4.1966,-4.1918,-4.1653,-4.1581,-4.1509,-4.1244,-4.1172,-4.1172,-4.1172,-4.098,-4.0715,-4.0451,-3.997,-3.9441,-3.8912,-3.8599,-3.831,-3.8022,-3.7757,-3.7589,-3.7589,-3.7805,-3.7685,-3.6892,-3.6579,-3.6194,-3.5665,-3.5136,-3.492,-3.5187,-3.4088,-3.3346,-3.3187,-3.2013,-3.1456,-3.1813,-3.1455,-3.1304,-3.1386,-3.2087,-3.3064,-3.4365,-3.5052,-3.623,-3.7738,-3.7447,-3.7273,0.0,0.0,0.0,0.0,0.0,0.0,0.0,0.0,-3.3212,-3.4919,-3.5617,-3.6296,-3.7729,-3.7322,-3.7068,-3.795,-3.7347,-3.6934,-3.7363,-3.8008,-3.8007,-3.6647,-3.6401,-3.5494,-3.3294,-3.2686,-3.2676,-3.3393,-3.3685,-3.4051,-3.4578,-3.4666,-3.4739,-3.4797,-3.5099,-3.5835,-3.698,-3.7799,-3.9677,-4.2803,-4.3114,-4.4272,-4.6152,-4.5371,-4.4805,-4.4316,-4.291,-4.207,-4.1641,-4.123,-4.0586,-3.9883,-3.9805,-3.9277,-3.8516,-3.8086,-3.7656,-3.7226,-3.6816,-3.7166,-3.7822,-3.8418,-3.9321,-4.0362,-4.1004,-4.1172,-4.1172,-4.1172,-4.1172,-4.1172,-4.1172,-4.1172,-4.1172,-4.1172,-4.0787,-4.0355,-4.0258,-3.9826,-3.9296,-3.8767,-3.8575,-3.8359,-3.7902,-3.7397,-3.7084,-3.718,-3.7469,-3.7372,-3.6507,-3.6314,-3.6098,-3.5715,-3.5185,-3.4945,-3.5137,-3.473,-3.4264,-3.3697,-3.2921,-3.2499,-3.2541,-3.2014,-3.1795,-3.2,-3.3131,-3.4166,-3.5237,-3.6359,-3.7376,-3.8202,-3.7709,-3.7738,-3.3762,-3.3859,-3.4584,-3.5331,-3.5219,-3.5538,0.0,0.0,-3.7156,-3.9248,-3.9729,-4.0082,-4.1215,-4.003,-3.9063,-3.9606,-3.8337,-3.7363,-3.7793,-3.793,-3.7613,-3.6688,-3.6158,-3.5893,-3.5988,-3.4064,-3.2646,-3.2456,-3.351,-3.4197,-3.4271,-3.4549,-3.4827,-3.5105,-3.6373,-3.7207,-3.7528,-3.9192,-4.0939,-4.2803,-4.2839,-4.3859,-4.5723,-4.5234,-4.4805,-4.4316,-4.2598,-4.1621,-4.1211,-4.0781,-4.0312,-3.9863,-3.9434,-3.8984,-3.8516,-3.8086,-3.7656,-3.7226,-3.6816,-3.7458,-3.848,-3.8562,-3.9727,-4.1071,-4.1196,-4.1172,-4.1172,-4.1172,-4.1172,-4.1172,-4.1172,-4.1172,-4.1172,-4.1172,-4.0787,-4.0258,-3.9801,-3.9272,-3.8743,-3.819,-3.7685,-3.7348,-3.73,-3.6843,-3.6651,-3.7132,-3.6843,-3.6531,-3.6411,-3.6002,-3.5789,-3.5939,-3.5503,-3.5089,-3.4838,-3.4994,-3.4881,-3.4313,-3.3692,-3.3477,-3.3721,-3.3169,-3.325,-3.4022,-3.4225,-3.5089,-3.6682,-3.6816,-3.7376,-3.8202,-3.8144,-3.8144,-3.5639,-3.5911,-3.6403,0.0,-3.713,-3.7805,-3.8485,-3.8101,-3.8262,-4.0403,-4.11,-4.1725,-4.3096,-4.1565,-4.0214,0.0,-3.8719,-3.7441,-3.7871,-3.7715,-3.7778,-3.8442,-3.7203,-3.58,-3.4768,-3.2976,-3.2105,-3.2529,-3.3071,-3.3627,-3.4183,-3.4534,-3.5301,-3.6528,-3.7397,-3.87,-4.0621,-4.1638,-4.2922,-4.45,-4.4747,-4.5231,-4.6035,-4.5605,-4.4746,-4.3574,-4.2598,-4.1797,-4.1133,-4.0703,-4.0273,-3.9844,-3.9375,-3.8945,-3.8516,-3.8086,-3.7656,-3.7367,-3.7746,-3.7868,-3.8103,-3.9379,-4.0128,-4.0599,-4.1095,-4.1172,-4.1172,-4.1172,-4.1172,-4.1124,-4.0812,-4.0715,-4.0643,-4.0331,-3.985,-3.9417,-3.92,-3.8719,-3.8166,-3.7637,-3.7348,-3.7108,-3.6795,-3.629,-3.6026,-3.6242,-3.6338,-3.629,-3.5978,-3.5861,-3.5793,-3.5795,-3.5695,-3.5618,-3.5491,-3.5404,-3.5269,-3.5044,-3.4195,-3.3765,-3.3897,-3.337,-3.3496,-3.4397,-3.4841,-3.5696,-3.6883,-3.7414,-3.7834,-3.8202,-3.7854,-3.7854,-3.6427,0.0,0.0,-3.7391,-3.853,-3.9527,-3.8963,-3.8717,-3.9176,-4.1028,-4.1701,-4.2375,-4.3673,-4.1993,-4.0476,-4.0694,-3.8705,-3.7266,-3.7695,-3.748,-3.7812,-3.9199,-3.7634,-3.5864,-3.4545,-3.2975,-3.2148,-3.2529,-3.2676,-3.3188,-3.4168,-3.4974,-3.6081,-3.7718,-3.8797,-4.0532,-4.2968,-4.3681,-4.461,-4.5683,-4.6113,-4.623,-4.6113,-4.5566,-4.4512,-4.3047,-4.25,-4.1777,-4.0976,-4.0644,-4.0195,-3.9668,-3.9336,-3.8867,-3.8359,-3.8047,-3.7656,-3.7437,-3.8391,-3.8287,-3.806,-4.0045,-4.0537,-4.0434,-4.1004,-4.1172,-4.1172,-4.1172,-4.1172,-4.1076,-4.0523,-4.0403,-4.0258,-3.9729,-3.92,-3.8815,-3.8815,-3.8262,-3.7637,-3.7276,-3.6964,-3.6627,-3.6266,-3.5737,-3.54,-3.54,-3.5737,-3.5833,-3.5449,-3.5696,-3.5844,-3.5718,-3.5955,-3.6098,-3.6098,-3.574,-3.5508,-3.5508,-3.45,-3.4029,-3.4266,-3.3733,-3.3979,-3.5073,-3.5628,-3.6385,-3.726,-3.7872,-3.8202,-3.8202,-3.7767,-3.7796,0.0,0.0,-3.709,-3.7437,-3.8787,-4.0003,-3.9642,-3.9946,-4.0643,-4.1725,-4.1966,-4.2134,-4.2771,-4.0966,-3.9561,-3.9931,-3.8186,-3.6836,-3.7266,-3.7305,-3.7461,-3.793,-3.6844,-3.6344,0.0,-3.512,-3.329,-3.1969,-3.2412,-3.3188,-3.4168,-3.6005,-3.7385,-3.8068,-4.1064,-4.2916,-4.3371,-4.4903,-4.5683,-4.5683,-4.6113,-4.6094,-4.5664,-4.4824,-4.3945,-4.3027,-4.2187,-4.1328,-4.0547,-4.0527,-4.0,-3.9219,-3.9199,-3.8691,-3.7949,-3.793,-3.7656,-3.7437,-3.8391,-3.865,-3.8813,-4.0241,-4.0927,-4.1139,-4.1196,-4.1172,-4.1172,-4.1172,-4.1172,-4.1076,-4.0523,-4.0403,-4.0258,-3.9729,-3.92,-3.8815,-3.8815,-3.7974,-3.7204,-3.7204,-3.6362,-3.5665,-3.5641,-3.5208,-3.4799,-3.4799,-3.4823,-3.4823,-3.4847,-3.5308,-3.5741,-3.5955,-3.6241,-3.6405,-3.6405,-3.5855,-3.5508,-3.5508,-3.45,-3.4266,-3.5122,-3.4643,-3.5155,-3.6766,-3.6844,-3.7299,-3.8165,-3.8202,-3.8202,-3.8202,-3.8173,-3.8173,-3.6174,0.0,-3.9522,-3.9752,-4.0324,-4.0616,-4.0237,-4.0013,-4.0066,-4.0787,-4.0379,-4.0138,-4.1028,-4.0091,-3.9154,-3.8951,-3.8921,-3.8779,-3.8602,-3.8828,-3.9082,-3.9219,-3.9065,0.0,0.0,0.0,0.0,-3.3568,-3.5147,-3.6057,-3.58,-3.7843,-3.9796,-4.1576,-4.2514,-4.3663,-4.4903,-4.5483,-4.5683,-4.5683,-4.582,-4.582,-4.5644,-4.4473,-4.3613,-4.3027,-4.2168,-4.1308,-4.0508,-4.0215,-3.9746,-3.918,-3.8887,-3.8613,-3.8281,-3.7715,-3.8036,-3.8861,-3.9795,-3.9649,-3.944,-4.142,-4.19,-4.1629,-4.1293,-4.1172,-4.1172,-4.1172,-4.1172,-4.1076,-4.0523,-4.0138,-3.9729,-3.9224,-3.8671,-3.8262,-3.8262,-3.7709,-3.7084,-3.6747,-3.6098,-3.5497,-3.516,-3.4895,-3.4775,-3.4775,-3.4775,-3.492,-3.5284,-3.5476,-3.5764,-3.6241,-3.6358,-3.6254,-3.5855,-3.5608,-3.5182,-3.45,-3.4098,-3.4114,-3.4643,-3.4502,-3.5196,-3.6844,-3.6883,-3.7337,-3.8202,-3.8202,-3.8202,-3.8202,-3.8202,-3.8202,-3.7625,-3.9479,-4.11,-4.1532,-4.1694,-4.1503,-4.0841,-4.029,-3.9886,-3.9864,-3.9296,-3.896,-3.9441,-3.8854,-3.8114,-3.775,-3.7992,-3.8356,-3.8661,-3.9004,-3.9434,-4.0039,-4.0488,0.0,0.0,0.0,0.0,-3.5738,-3.7065,-3.7894,-3.7654,-3.9727,-4.1728,-4.3371,-4.403,-4.4743,-4.5683,-4.5683,-4.5683,-4.5683,-4.5508,-4.5371,-4.5176,-4.4004,-4.3164,-4.2578,-4.1875,-4.1094,-4.0273,-4.0019,-3.9531,-3.8926,-3.8516,-3.8262,-3.8099,-3.7867,-3.815,-3.8823,-3.9906,-4.0144,-4.015,-4.1958,-4.211,-4.1629,-4.1293,-4.1172,-4.1172,-4.1172,-4.1052,-4.0787,-4.0258,-3.9729,-3.92,-3.8647,-3.8238,-3.7974,-3.7974,-3.7565,-3.7036,-3.6507,-3.6122,-3.5665,-3.4895,-3.4872,-3.492,-3.492,-3.5017,-3.5211,-3.5572,-3.562,-3.5812,-3.6358,-3.6405,-3.6132,-3.5533,-3.5508,-3.5031,-3.3972,-3.3897,-3.4186,-3.4812,-3.4827,-3.5615,-3.7337,-3.7376,-3.7644,-3.8202,-3.8202,-3.8202,-3.8202,-3.8202,-3.8202,-3.9324,-4.0856,-4.1982,-4.2746,-4.2895,-4.2579,-4.1537,-4.0779,-4.0034,-3.8887,-3.8647,-3.8431,0.0,0.0,-3.6624,-3.6435,-3.5802,-3.6058,-3.7779,-3.8105,-3.8769,0.0,0.0,0.0,0.0,0.0,0.0,-3.8415,0.0,-3.8959,-3.9526,-4.1812,-4.3287,-4.3567,-4.5285,-4.6074,-4.5644,-4.5644,-4.5644,-4.5644,-4.5215,-4.4785,-4.4336,-4.3457,-4.2598,-4.1777,-4.1328,-4.0664,-3.9902,-3.9863,-3.9355,-3.8535,-3.8086,-3.7676,-3.7547,-3.8412,-3.8212,-3.7707,-3.9023,-4.0003,-4.0823,-4.1697,-4.1629,-4.1172,-4.1172,-4.1172,-4.1172,-4.1172,-4.0812,-4.0282,-3.9777,-3.9224,-3.8671,-3.8142,-3.7998,-3.7974,-3.7974,-3.7565,-3.7036,-3.6531,-3.6411,-3.6074,-3.4991,-3.5066,-3.5211,-3.5187,-3.5428,-3.562,-3.562,-3.562,-3.5812,-3.6358,-3.6405,-3.6132,-3.5533,-3.5483,-3.5006,-3.3972,-3.3872,-3.435,-3.5494,-3.5588,-3.6385,-3.8089,-3.8165,-3.8202,-3.8202,-3.8202,-3.8202,-3.8202,-3.8202,-3.8202,-4.1446,-4.3104,-4.4387,-4.4626,-4.4056,-4.3071,-4.1589,-4.0211,-3.8789,-3.7291,-3.6386,-3.5689,0.0,0.0,0.0,-3.6149,-3.8059,0.0,-3.981,-4.0684,0.0,-4.1894,0.0,-4.3066,-4.3066,-4.3476,0.0,0.0,-4.3491,-4.29,-4.2075,-4.4467,-4.578,-4.5588,-4.5735,-4.5625,-4.5195,-4.5195,-4.5195,-4.5195,-4.5078,-4.4629,-4.3848,-4.2988,-4.2305,-4.1758,-4.1016,-4.0391,-3.9863,-3.9512,-3.9062,-3.8535,-3.8086,-3.8473,-3.924,-3.8856,-3.9597,-4.0807,-4.0508,-4.0227,-4.0278,-4.1578,-4.1629,-4.1172,-4.1172,-4.1172,-4.1172,-4.1172,-4.0812,-4.0355,-4.0234,-3.9513,-3.8791,-3.8647,-3.8286,-3.7974,-3.7974,-3.7565,-3.7156,-3.7012,-3.6675,-3.6194,-3.5521,-3.5622,-3.5673,-3.5235,-3.5428,-3.5668,-3.586,-3.5908,-3.6051,-3.6358,-3.6405,-3.6132,-3.5533,-3.5132,-3.465,-3.3947,-3.352,-3.3709,-3.4662,-3.5264,-3.6108,-3.7222,-3.7872,-3.8202,-3.8202,-3.8202,-3.8202,-3.8202,-3.8202,-3.8202,-4.3048,-4.4537,-4.5802,-4.6083,-4.4912,-4.3278,-4.17,-3.9823,-3.7892,-3.5767,-3.4895,0.0,0.0,0.0,0.0,0.0,0.0,0.0,-3.9865,-4.0742,-4.1738,0.0,-4.3594,0.0,-4.4004,-4.459,-4.5234,0.0,-4.5723,-4.5309,-4.4643,-4.6304,-4.7012,-4.6601,-4.6348,-4.5937,-4.5312,-4.5117,-4.5019,-4.5019,-4.4844,-4.4277,-4.3398,-4.2734,-4.209,-4.1484,0.0,-4.0273,-3.9863,-3.9394,-3.8848,-3.8242,-3.7812,-3.8347,-3.9433,-3.9105,-4.0038,-4.1489,-4.1317,-4.095,-4.0587,-4.1372,-4.1437,-4.1172,-4.1172,-4.1028,-4.0836,-4.0836,-4.0282,-3.9705,-3.9705,-3.908,-3.8455,-3.8455,-3.8214,-3.7974,-3.7974,-3.7733,-3.7541,-3.7541,-3.6916,-3.6365,-3.6176,-3.6134,-3.6039,-3.5598,-3.5812,-3.6003,-3.6146,-3.6051,-3.6098,-3.6358,-3.6405,-3.6132,-3.5533,-3.5207,-3.4705,-3.3947,-3.3621,-3.3896,-3.4909,-3.5346,-3.6188,-3.7453,-3.7976,-3.8202,-3.8202,-3.8202,-3.8202,-3.8202,-3.8202,-3.8202,-4.4537,-4.5633,-4.656,-4.7178,-4.5548,-4.3409,-4.1743,-3.9563,-3.7143,-3.4437,0.0,-3.3814,-3.3284,-3.415,-3.4738,-3.4348,0.0,-3.7255,-3.9214,-3.9902,-4.1113,-4.3516,-4.4199,-4.4531,-4.4648,-4.5371,-4.6035,-4.6523,-4.6562,-4.668,-4.6992,-4.748,-4.75,-4.6953,-4.6875,-4.6445,-4.5605,-4.5215,-4.5,-4.4941,-4.457,-4.3926,-4.3066,-4.2617,-4.1973,-4.1152,0.0,0.0,-3.9766,-3.9316,-3.8652,-3.7871,-3.7673,-3.8174,-3.9072,-3.952,-4.0235,-4.1112,-4.178,-4.1629,-4.1172,-4.1172,-4.1172,-4.1172,-4.1172,-4.0812,-4.0403,-4.0403,-3.9633,-3.8815,-3.8815,-3.8407,-3.7974,-3.7974,-3.7974,-3.7974,-3.7974,-3.7974,-3.7974,-3.7974,-3.7304,-3.6705,-3.6887,-3.6798,-3.6554,-3.6253,-3.6391,-3.6505,-3.6505,-3.6243,-3.6146,-3.6358,-3.6405,-3.6132,-3.5533,-3.5433,-3.4956,-3.3972,-3.3953,-3.4384,-3.5413,-3.5669,-3.6464,-3.8014,-3.8127,-3.8202,-3.8202,-3.8202,-3.8202,-3.8202,-3.8202,-3.8202,-4.6869,-4.7263,-4.7207,-4.7797,-4.6233,-4.3864,-4.1271,-3.8923,0.0,0.0,-3.3741,-3.3718,-3.2803,-3.4198,-3.5512,-3.5548,0.0,0.0,0.0,0.0,-4.2558,0.0,0.0,0.0,0.0,0.0,0.0,0.0,0.0,0.0,-4.748,-4.8203,-4.8105,-4.6973,-4.6601,-4.5996,-4.5156,-4.5058,-4.4844,-4.4512,-4.4433,-4.3926,-4.3066,-4.2617,-4.1973,-4.1133,0.0,0.0,-3.9297,-3.8867,-3.8379,-3.7943,-3.8757,-3.9595,-4.0517,-4.0972,-4.1684,-4.2365,-4.2099,-4.1629,-4.1172,-4.1172,-4.1172,-4.1172,-4.1172,-4.0812,-4.0403,-4.0403,-3.9633,-3.8815,-3.8815,-3.8407,-3.7974,-3.7974,-3.7974,-3.7974,-3.7974,-3.7974,-3.7974,-3.7974,-3.804,-3.7955,-3.7545,-3.7808,-3.7891,-3.7394,-3.7191,-3.7036,-3.7036,-3.6634,-3.6358,-3.6405,-3.6405,-3.6132,-3.5533,-3.5082,-3.46,-3.3947,-3.4135,-3.4418,-3.4579,-3.5936,-3.6805,-3.7144,-3.7834,-3.8202,-3.8202,-3.8202,-3.8202,-3.8202,-3.8202,-3.8202,-4.7712,-4.8387,-4.864,-4.856,-4.6432,-4.3584,-4.0799,0.0,0.0,0.0,-3.2635,-3.2731,-3.2539,0.0,0.0,0.0,0.0,0.0,0.0,0.0,0.0,0.0,0.0,0.0,0.0,0.0,0.0,0.0,0.0,0.0,-4.8223,-4.8203,-4.7812,-4.6953,-4.6523,-4.5996,-4.5371,-4.5137,-4.4824,-4.4394,-4.416,-4.3711,-4.3066,-4.2617,-4.1973,-4.1133,0.0,0.0,-3.8848,-3.8418,-3.826,-3.8396,-3.8842,-3.9942,-4.1155,-4.1126,-4.1653,-4.2338,-4.1749,-4.1389,-4.1172,-4.1172,-4.1172,-4.1172,-4.1172,-4.0619,-3.9994,-3.9994,-3.92,-3.8383,-3.8383,-3.819,-3.7974,-3.7974,-3.7974,-3.7974,-3.7974,-3.7974,-3.7974,-3.7974,-3.821,-3.8303,-3.7871,-3.8107,-3.829,-3.7892,-3.769,-3.7613,-3.7613,-3.7387,-3.6985,-3.6455,-3.6405,-3.6304,-3.5981,-3.5433,-3.5082,-3.4988,-3.4873,-3.5103,-3.5683,-3.6452,-3.7106,-3.7567,-3.8014,-3.8202,-3.8202,-3.8202,-3.8202,-3.8202,-3.8202,-3.8202,-4.7866,-4.8837,-4.9398,-4.8634,-4.6192,-4.3257,-4.0353,-3.7138,0.0,0.0,-3.1982,-3.2154,-3.2587,0.0,-3.4548,0.0,0.0,0.0,0.0,0.0,0.0,0.0,0.0,0.0,0.0,0.0,0.0,0.0,0.0,0.0,0.0,-4.7949,-4.7383,-4.6933,-4.6523,-4.6055,-4.5547,-4.5098,-4.4668,-4.4258,-4.3887,-4.3476,-4.3066,-4.2617,-4.1914,-4.0996,0.0,0.0,0.0,-3.8477,-3.8647,-3.9155,-3.934,-4.0279,-4.1483,-4.1129,-4.1387,-4.1894,-4.1365,-4.1172,-4.1172,-4.1172,-4.1172,-4.1172,-4.1172,-4.0451,-3.9609,-3.9609,-3.8815,-3.7974,-3.7974,-3.7974,-3.7974,-3.7974,-3.7974,-3.7974,-3.7974,-3.8051,-3.8104,-3.8104,-3.8368,-3.8537,-3.8327,-3.851,-3.8615,-3.8392,-3.8266,-3.814,-3.8015,-3.8015,-3.7588,-3.6531,-3.6505,-3.648,-3.6207,-3.5966,-3.5819,-3.5826,-3.5785,-3.6129,-3.6872,-3.7106,-3.7491,-3.8202,-3.8202,-3.8202,-3.8202,-3.8202,-3.8202,-3.8202,-3.8202,-3.8202,-4.7784,-4.8165,-4.8029,-4.693,-4.5308,-4.3154,-3.9854,0.0,0.0,-3.2755,-3.2803,-3.3164,-3.3212,-3.4054,-3.4952,0.0,0.0,0.0,0.0,0.0,0.0,0.0,0.0,0.0,0.0,0.0,0.0,0.0,0.0,0.0,0.0,-4.7617,-4.7383,-4.6933,-4.6523,-4.5898,-4.5098,-4.4668,-4.4219,-4.3769,-4.373,-4.3476,-4.3066,-4.2617,-4.1758,-4.0566,0.0,0.0,0.0,-3.9807,-4.0129,-4.0715,-4.1472,-4.1656,-4.1499,-4.1781,-4.1955,-4.1894,-4.1365,-4.1172,-4.1172,-4.1172,-4.1172,-4.1172,-4.1172,-4.0451,-3.9609,-3.9609,-3.8815,-3.7974,-3.7974,-3.7974,-3.7974,-3.7974,-3.7974,-3.7974,-3.7974,-3.821,-3.8368,-3.8368,-3.8841,-3.9206,-3.9183,-3.939,-3.9545,-3.9546,-3.912,-3.8592,-3.8065,-3.8015,-3.7588,-3.6531,-3.6857,-3.6709,-3.5658,-3.6379,-3.6444,-3.5338,-3.6757,-3.741,-3.6911,-3.7644,-3.8127,-3.8202,-3.8202,-3.8202,-3.8202,-3.8202,-3.8202,-3.8202,-3.8202,-3.8202,-4.6669,-4.7542,-4.78,-4.6664,-4.4445,-4.1874,-3.9474,0.0,0.0,-3.3116,-3.2875,-3.2996,-3.3621,-3.403,-3.4628,0.0,0.0,0.0,0.0,0.0,0.0,0.0,0.0,0.0,0.0,0.0,0.0,0.0,0.0,0.0,0.0,-4.6289,-4.6348,-4.6191,-4.5762,-4.5254,-4.4648,-4.4492,-4.416,-4.3711,-4.3711,-4.3476,-4.3047,-4.2363,-4.1484,-4.0469,0.0,0.0,0.0,-3.9364,-4.0094,-4.1493,-4.1691,-4.1862,-4.2055,-4.2204,-4.1924,-4.1519,-4.1474,-4.1344,-4.1172,-4.1172,-4.098,-4.0763,-4.1076,-4.0234,-3.92,-3.9513,-3.8815,-3.7974,-3.7974,-3.7974,-3.7974,-3.7974,-3.7974,-3.8027,-3.821,-3.8315,-3.8473,-3.8631,-3.8998,-3.931,-3.931,-3.9517,-3.9697,-3.9697,-3.9496,-3.917,-3.8592,-3.8818,-3.8592,-3.7462,-3.7262,-3.7099,-3.6919,-3.7254,-3.7608,-3.7876,-3.8602,-3.8795,-3.8312,-3.8621,-3.8609,-3.8202,-3.8202,-3.8202,-3.8202,-3.8202,-3.7999,-3.768,-3.8028,-3.7999,-4.493,-4.6197,-4.6837,-4.5815,-4.364,-4.121,0.0,0.0,0.0,-3.3573,-3.3212,-3.3188,-3.3862,-3.4126,-3.4462,0.0,0.0,0.0,0.0,0.0,0.0,0.0,0.0,0.0,0.0,0.0,0.0,0.0,0.0,0.0,0.0,-4.5078,-4.5215,-4.5469,-4.5058,-4.4707,-4.4394,-4.4258,-4.4023,-4.3711,-4.3574,-4.3301,-4.2851,-4.2071,-4.1152,0.0,0.0,0.0,0.0,-3.9894,-4.0968,-4.2579,-4.2089,-4.215,-4.2501,-4.2354,-4.1947,-4.1459,-4.1549,-4.1492,-4.1263,-4.1061,-4.0595,-4.0234,-4.0595,-3.9826,-3.8888,-3.9272,-3.8695,-3.7974,-3.7974,-3.7974,-3.7974,-3.7974,-3.7974,-3.808,-3.8344,-3.8473,-3.8579,-3.8893,-3.9206,-3.9413,-3.9413,-3.9569,-3.9697,-3.9697,-3.9697,-3.9496,-3.8994,-3.9346,-3.927,-3.8115,-3.7814,-3.7678,-3.7624,-3.7716,-3.8238,-3.9227,-3.9564,-3.9568,-3.9209,-3.9363,-3.9073,-3.8231,-3.8405,-3.8405,-3.8202,-3.8202,-3.7999,-3.7564,-3.7825,-3.7709,-4.2665,-4.3771,-4.4436,-4.3723,-4.2856,-4.1618,0.0,0.0,0.0,-3.4198,-3.3982,-3.3982,-3.3982,-3.4414,-3.4823,-3.4799,0.0,0.0,0.0,0.0,0.0,0.0,0.0,0.0,0.0,0.0,0.0,0.0,0.0,0.0,0.0,0.0,-4.4121,-4.5,-4.4629,-4.4394,-4.4394,-4.3945,-4.3711,-4.3691,-4.3281,-4.2851,-4.2402,-4.1915,0.0,0.0,0.0,0.0,0.0,-4.2198,-4.3307,-4.4361,-4.3281,-4.2864,-4.2848,-4.2307,-4.211,-4.2054,-4.172,-4.1606,-4.1452,-4.0684,-4.0042,-3.9609,-3.9609,-3.9248,-3.8815,-3.8815,-3.8407,-3.7974,-3.7974,-3.7974,-3.7974,-3.7974,-3.7974,-3.808,-3.8344,-3.8631,-3.8893,-3.9206,-3.9517,-3.9697,-3.9697,-3.9697,-3.9697,-3.9697,-3.9697,-3.9496,-3.8994,-3.9346,-3.927,-3.8115,-3.8517,-3.8441,-3.731,-3.7577,-3.7968,-3.8298,-3.9199,-3.9568,-3.9209,-3.977,-3.9479,-3.8231,-3.8841,-3.887,-3.8202,-3.8202,-3.8202,-3.8173,-3.7593,-3.7331,-3.9794,-4.0923,-4.1493,-4.0564,-3.9552,-3.8526,-3.7429,0.0,0.0,-3.4968,-3.4775,-3.4751,-3.5521,-3.5785,-3.6026,-3.6386,0.0,0.0,0.0,0.0,0.0,0.0,0.0,0.0,0.0,0.0,0.0,0.0,0.0,0.0,0.0,0.0,-4.3984,-4.457,-4.416,-4.3926,-4.3926,-4.3769,-4.3555,-4.3281,-4.3094,-4.32,-4.3408,-4.2939,0.0,0.0,0.0,0.0,0.0,-4.2118,-4.264,-4.3655,-4.3102,-4.2791,-4.2591,-4.2418,-4.2256,-4.211,-4.1972,-4.1777,-4.1452,-4.066,-3.9801,-3.908,-3.908,-3.8695,-3.8238,-3.8238,-3.8118,-3.7974,-3.7974,-3.7974,-3.8051,-3.8262,-3.8238,-3.8421,-3.8893,-3.9102,-3.9206,-3.9542,-3.9645,-3.9697,-3.9697,-3.9697,-3.9697,-3.9697,-3.9697,-3.9496,-3.8994,-3.9346,-3.9421,-3.8668,-3.8417,-3.826,-3.817,-3.8846,-3.9473,-3.988,-4.0376,-4.0619,-4.0525,-3.9857,-3.9305,-3.8899,-3.8638,-3.8405,-3.8202,-3.8202,-3.8202,-3.8202,-3.7593,-3.7535,0.0,-3.8984,-3.9513,-3.9681,-3.8599,0.0,0.0,0.0,0.0,0.0,0.0,0.0,-3.629,-3.6411,-3.6507,0.0,0.0,0.0,0.0,0.0,0.0,0.0,0.0,0.0,0.0,0.0,0.0,0.0,0.0,0.0,0.0,0.0,-4.3828,-4.4121,-4.3848,-4.3711,-4.3711,-4.3555,-4.365,-4.39,-4.3555,-4.3834,-4.4699,0.0,0.0,0.0,0.0,0.0,0.0,-4.2448,-4.2735,-4.3422,-4.3077,-4.2836,-4.2681,-4.2681,-4.2332,-4.1959,-4.1847,-4.1418,-4.0869,-4.0081,-3.92,-3.8503,-3.8503,-3.8262,-3.7974,-3.7974,-3.7974,-3.7974,-3.7974,-3.808,-3.8185,-3.8238,-3.8421,-3.8631,-3.905,-3.9206,-3.9362,-3.9645,-3.9697,-3.9697,-3.9697,-3.9697,-3.9697,-3.9697,-3.9697,-3.9572,-3.922,-3.9471,-3.9471,-3.8969,-3.8743,-3.8713,-3.8955,-3.9091,-3.9699,-4.0882,-4.0956,-4.0982,-4.1105,-4.035,-3.9683,-3.9218,-3.8783,-3.8463,-3.8202,-3.8202,-3.8086,-3.7854,-3.7476,-3.7389,0.0,-3.7979,0.0,0.0,0.0,0.0,0.0,0.0,0.0,0.0,0.0,0.0,0.0,0.0,0.0,0.0,0.0,0.0,0.0,0.0,0.0,0.0,0.0,0.0,0.0,0.0,0.0,0.0,0.0,0.0,0.0,0.0,0.0,-4.3899,-4.3899,-4.3899,-4.3899,-4.3529,-4.3999,-4.5299,-4.4453,-4.4783,-4.6016,0.0,0.0,0.0,0.0,0.0,0.0,-4.3241,-4.3455,-4.3689,-4.3162,-4.2961,-4.2911,-4.2911,-4.2393,-4.1643,-4.1336,-4.0716,-3.9928,-3.9044,-3.8407,-3.8027,-3.7954,-3.7979,-3.7974,-3.7974,-3.7974,-3.7974,-3.8027,-3.8185,-3.8315,-3.8157,-3.8473,-3.8788,-3.8841,-3.9102,-3.9413,-3.9645,-3.9697,-3.9697,-3.9697,-3.9697,-3.9697,-3.9697,-3.9672,-3.9647,-3.9647,-3.9597,-3.9396,-3.8969,-3.9295,-3.9601,-3.9651,-3.8647,-3.9023,-4.1443,-4.0998,-4.0787,-4.1152,-4.1076,-4.0466,-3.9305,-3.9189,-3.8812,-3.8202,-3.8202,-3.7883,-3.7302,-3.7302,-3.6954,-3.7773,0.0,-3.7397,-3.7493,-3.7445,-3.7352,0.0,0.0,0.0,0.0,0.0,0.0,0.0,0.0,0.0,0.0,0.0,0.0,0.0,0.0,0.0,0.0,0.0,0.0,0.0,0.0,0.0,0.0,0.0,0.0,0.0,0.0,0.0,-4.5406,-4.5486,-4.5486,-4.5486,-4.5835,-4.6171,-4.6401,-4.5843,-4.5859,-4.6557,0.0,0.0,0.0,0.0,0.0,0.0,-4.3387,-4.3106,-4.3162,-4.3037,-4.2766,-4.2414,-4.2414,-4.1952,-4.1368,-4.1097,-4.0834,-4.0454,-3.896,-3.8412,-3.8146,-3.7345,-3.7505,-3.7974,-3.7974,-3.7974,-3.8027,-3.8238,-3.8185,-3.8238,-3.8841,-3.8893,-3.8945,-3.9387,-3.9542,-3.9645,-3.9697,-3.9697,-3.9697,-3.9697,-3.9697,-3.9697,-3.9697,-3.932,-3.9069,-3.9069,-3.8693,-3.8517,-3.8894,-3.8592,-3.889,-4.0099,-4.0186,-4.0595,-4.1543,-4.1224,-4.1249,-4.1831,-4.0873,-4.0205,-3.9886,-3.8928,-3.8347,-3.8202,-3.8202,-3.7883,-3.7302,-3.7302,-3.6954,-3.798,-3.7849,-3.7615,-3.7653,-3.783,-3.7959,-3.7934,0.0,0.0,0.0,0.0,0.0,0.0,0.0,0.0,0.0,0.0,0.0,0.0,0.0,0.0,0.0,0.0,0.0,0.0,0.0,0.0,0.0,0.0,0.0,0.0,0.0,0.0,0.0,-4.7093,-4.7214,-4.6665,-4.6786,-4.7,-4.7434,-4.6657,-4.6802,-4.7629,0.0,0.0,0.0,0.0,0.0,-4.4192,-4.3338,-4.2836,-4.2665,-4.2665,-4.2258,-4.1781,-4.1781,-4.1376,-4.0739,-4.0579,-4.0244,-3.9787,-3.8879,-3.8408,-3.809,-3.7529,-3.7475,-3.7688,-3.7931,-3.8174,-3.8421,-3.8579,-3.8579,-3.8684,-3.8998,-3.9154,-3.9258,-3.9465,-3.9594,-3.9697,-3.9697,-3.9697,-3.9697,-3.9697,-3.9697,-3.9697,-3.9697,-3.922,-3.8919,-3.8919,-3.8366,-3.804,-3.809,-3.8291,-3.8934,-4.0219,-4.0367,-4.0777,-4.1543,-4.1564,-4.1715,-4.2092,-4.1105,-4.0292,-3.9683,-3.8725,-3.8202,-3.8202,-3.8202,-3.8028,-3.7709,-3.7128,-3.6664,-3.8455,-3.8627,-3.8896,-3.9091,-3.9075,-3.9062,-3.9165,0.0,0.0,0.0,0.0,0.0,0.0,-4.0001,0.0,0.0,0.0,0.0,0.0,0.0,0.0,0.0,0.0,0.0,0.0,0.0,0.0,0.0,0.0,0.0,0.0,0.0,0.0,0.0,-4.8538,-4.8792,-4.7868,-4.7454,-4.7649,-4.841,-4.7518,-4.758,-4.8485,-4.7481,0.0,0.0,0.0,0.0,-4.374,-4.3112,-4.264,-4.2213,-4.2112,-4.1706,-4.1175,-4.1175,-4.0693,-4.0059,-4.0059,-3.955,-3.8945,-3.8893,-3.8524,-3.8056,-3.7931,-3.7638,-3.7367,-3.7885,-3.8352,-3.8666,-3.8718,-3.8976,-3.9154,-3.8998,-3.931,-3.9594,-3.9413,-3.9542,-3.9697,-3.9697,-3.9697,-3.9697,-3.9697,-3.9622,-3.9572,-3.9572,-3.9019,-3.8668,-3.8668,-3.8115,-3.7613,-3.7236,-3.8188,-3.9174,-3.9895,-4.006,-4.0501,-4.1374,-4.1736,-4.1976,-4.2092,-4.1366,-4.0437,-3.9363,-3.858,-3.8202,-3.8202,-3.8202,-3.8144,-3.8028,-3.6867,-3.6257,-3.994,-4.1171,-4.1713,-3.9435,-3.9206,-3.9508,-3.9325,-3.9047,0.0,0.0,0.0,0.0,0.0,0.0,0.0,0.0,0.0,0.0,0.0,0.0,0.0,0.0,0.0,0.0,0.0,0.0,0.0,0.0,0.0,0.0,0.0,0.0,0.0,0.0,0.0,-4.9571,-4.9273,-4.9376,-4.9633,-5.0033,-4.8938,-4.8108,-4.7355,-4.6728,-4.5874,0.0,0.0,0.0,-4.3714,-4.2766,-4.2288,-4.2162,-4.1656,-4.1128,-4.0651,-4.0651,-4.0247,-3.9771,-3.9771,-3.9669,-3.9542,-3.931,-3.8834,-3.8237,-3.7791,-3.7617,-3.7593,-3.7917,-3.8039,-3.8152,-3.8384,-3.8679,-3.8998,-3.9413,-3.9465,-3.9413,-3.9594,-3.9697,-3.9697,-3.9697,-3.9697,-3.9697,-3.9697,-3.9295,-3.9045,-3.9045,-3.8115,-3.7437,-3.7437,-3.7008,-3.6807,-3.7136,-3.8082,-3.8726,-3.8824,-4.0331,-4.1116,-4.0772,-4.1076,-4.1512,-4.2063,-4.0902,-4.0147,-3.9973,-3.8812,-3.8202,-3.8202,-3.8202,-3.7941,-3.7418,-3.6664,-3.6025,-3.9946,-4.0852,-4.1426,-4.038,-4.1246,-4.2221,-4.1673,-4.13,0.0,0.0,0.0,0.0,0.0,0.0,0.0,0.0,0.0,0.0,0.0,0.0,0.0,0.0,0.0,0.0,0.0,0.0,0.0,0.0,0.0,0.0,0.0,0.0,0.0,0.0,0.0,0.0,-4.9615,-4.9071,-4.8871,-4.9038,-4.7958,-4.7179,-4.6652,-4.5497,-4.4518,0.0,0.0,-4.3011,-4.2434,-4.1932,-4.1354,-4.0802,-4.0551,-4.0124,-3.9672,-3.9973,-3.9722,-3.9295,-3.9597,-3.9295,-3.8818,-3.9043,-3.8492,-3.7692,-3.7467,-3.7167,-3.7041,-3.7439,-3.7992,-3.8563,-3.9016,-3.9187,-3.9387,-3.9645,-3.9594,-3.9542,-3.9697,-3.9697,-3.9697,-3.9697,-3.9697,-3.9697,-3.9697,-3.9471,-3.922,-3.8969,-3.8165,-3.7513,-3.7236,-3.6757,-3.6694,-3.7441,-3.8148,-3.8899,-3.9644,-4.0487,-4.107,-4.1409,-4.1567,-4.1773,-4.2092,-4.0815,-4.0089,-4.0089,-3.8841,-3.8202,-3.8202,-3.8202,-3.8057,-3.7767,-3.7157,-3.6489,-3.9848,-4.0375,-4.1003,-4.143,-4.261,-4.3658,-4.3679,-4.3394,-4.3212,0.0,0.0,0.0,0.0,0.0,0.0,0.0,0.0,0.0,0.0,0.0,0.0,0.0,0.0,0.0,0.0,0.0,0.0,0.0,0.0,0.0,0.0,0.0,0.0,0.0,0.0,0.0,-4.8837,-4.7958,-4.7606,-4.7707,-4.6753,-4.6175,-4.5874,-4.4443,-4.3438,-4.2785,-4.2785,-4.2233,-4.1275,-4.115,-4.0651,-3.9873,-3.9747,-3.9346,-3.8969,-3.9346,-3.9145,-3.8718,-3.9145,-3.8743,-3.809,-3.8517,-3.799,-3.7186,-3.7186,-3.6857,-3.6531,-3.7036,-3.7889,-3.8793,-3.9346,-3.9597,-3.9697,-3.9697,-3.9697,-3.9697,-3.9697,-3.9697,-3.9697,-3.9697,-3.9697,-3.9697,-3.9697,-3.9597,-3.9346,-3.8944,-3.8266,-3.7663,-3.7236,-3.6757,-3.6687,-3.7407,-3.8234,-3.9365,-4.083,-4.0774,-4.107,-4.2051,-4.1947,-4.186,-4.186,-4.0728,-4.0031,-3.9886,-3.8783,-3.8202,-3.8202,-3.8202,-3.8202,-3.8202,-3.7593,-3.7041,-4.0325,-4.1229,-4.2112,-4.2137,-4.1455,-4.148,-4.3933,-4.4141,-4.4317,-4.6351,0.0,0.0,0.0,0.0,0.0,0.0,0.0,0.0,0.0,0.0,0.0,0.0,0.0,0.0,0.0,0.0,0.0,0.0,0.0,0.0,0.0,0.0,0.0,0.0,0.0,0.0,-4.6577,-4.6476,-4.6677,-4.7118,-4.6602,-4.5773,-4.4719,-4.4091,-4.3212,-4.2263,-4.2263,-4.1882,-4.125,-4.0724,-4.0526,-4.04,-3.9898,-3.9346,-3.8868,-3.8969,-3.8567,-3.8065,-3.8115,-3.8065,-3.8015,-3.8065,-3.7663,-3.7186,-3.7186,-3.6857,-3.6531,-3.7036,-3.7613,-3.8191,-3.8768,-3.932,-3.9697,-3.9697,-3.9697,-3.9697,-3.9697,-3.9697,-3.9697,-3.9697,-3.9697,-3.9697,-3.9697,-3.927,-3.8919,-3.8919,-3.7939,-3.7236,-3.7186,-3.6757,-3.6405,-3.6499,-3.8096,-3.9924,-4.1814,-4.143,-4.1343,-4.2063,-4.1512,-4.1163,-4.1163,-4.0466,-3.9828,-3.9276,-3.858,-3.8202,-3.8202,-3.8202,-3.8202,-3.8202,-3.7593,-3.7273,-3.9848,-4.0551,-4.1229,-4.1555,-4.1329,0.0,0.0,-4.6024,-4.6301,-4.7832,-4.8862,0.0,0.0,0.0,0.0,0.0,0.0,0.0,0.0,0.0,0.0,0.0,0.0,0.0,0.0,0.0,0.0,0.0,0.0,0.0,0.0,0.0,0.0,0.0,0.0,0.0,0.0,-4.5447,-4.5196,-4.507,-4.4844,-4.4342,-4.3589,-4.3037,-4.2183,-4.1153,-4.1505,-4.1153,-4.03,-4.0099,-3.9798,-3.9471,-3.927,-3.8843,-3.8391,-3.8743,-3.8291,-3.7538,-3.7889,-3.7563,-3.7036,-3.7387,-3.7111,-3.6732,-3.6732,-3.6581,-3.6606,-3.7437,-3.7839,-3.814,-3.8718,-3.927,-3.9597,-3.927,-3.9446,-3.9597,-3.9245,-3.9446,-3.9697,-3.9697,-3.9697,-3.9697,-3.9697,-3.9245,-3.8743,-3.8391,-3.7688,-3.7061,-3.6757,-3.7049,-3.7474,-3.8088,-3.9495,-4.0656,-4.1442,-4.0873,-4.0583,-4.0844,-4.1018,-4.1105,-4.1105,-4.0466,-3.9828,-3.9218,-3.8551,-3.8202,-3.8202,-3.8202,-3.8202,-3.8202,-3.797,-3.768,-3.9371,-3.9848,-4.0425,-4.11,0.0,0.0,-4.6979,-4.7631,-4.8008,-5.0142,-5.0368,-5.0042,-4.964,0.0,0.0,0.0,0.0,0.0,0.0,0.0,0.0,0.0,0.0,0.0,0.0,0.0,0.0,0.0,0.0,0.0,0.0,0.0,0.0,0.0,0.0,0.0,0.0,-4.4392,-4.384,-4.3288,-4.3112,-4.2911,-4.2766,-4.2158,-4.1379,-4.0551,-4.0874,-4.0551,-3.9697,-3.9697,-3.927,-3.8567,-3.8417,-3.7889,-3.7287,-3.7663,-3.7211,-3.6458,-3.6835,-3.6584,-3.6157,-3.6533,-3.6533,-3.6405,-3.6405,-3.6405,-3.6556,-3.7287,-3.7739,-3.809,-3.8492,-3.9145,-3.9546,-3.9045,-3.917,-3.932,-3.8994,-3.917,-3.9496,-3.9672,-3.9546,-3.9421,-3.9421,-3.8969,-3.8467,-3.8065,-3.7538,-3.718,-3.7086,-3.7511,-3.8296,-3.9519,-4.0238,-4.0792,-4.1065,-4.0321,-3.9886,-4.0089,-4.035,-4.0495,-4.0495,-4.0437,-3.9915,-3.8899,-3.8638,-3.8405,-3.8202,-3.8202,-3.8202,-3.8202,-3.8202,-3.797,-3.9019,-3.927,-3.9973,0.0,0.0,0.0,-4.8586,-4.8736,-4.9277,-5.3727,-5.1925,-4.9967,-5.1071,0.0,0.0,0.0,0.0,0.0,0.0,0.0,0.0,0.0,0.0,0.0,0.0,0.0,0.0,0.0,0.0,0.0,0.0,0.0,0.0,0.0,0.0,0.0,0.0,-4.3237,-4.274,-4.2187,-4.158,-4.1605,-4.2162,-4.158,-4.0974,-4.0501,-4.0501,-4.0199,-3.9697,-3.9672,-3.8994,-3.7939,-3.7387,-3.6508,-3.5483,-3.5508,-3.5157,-3.468,-3.468,-3.5031,-3.5483,-3.5483,-3.5906,-3.638,-3.638,-3.6405,-3.6405,-3.6405,-3.7161,-3.799,-3.8015,-3.8843,-3.9546,-3.9045,-3.8919,-3.8868,-3.8919,-3.8919,-3.9044,-3.9572,-3.9245,-3.8919,-3.8919,-3.8391,-3.799,-3.799,-3.7538,-3.7546,-3.8517,-3.8161,-3.8541,-4.0404,-4.0069,-4.0066,-4.0995,-3.9915,-3.945,-4.0031,-3.9538,-3.9189,-3.9218,-4.0408,-4.0176,-3.826,-3.887,-3.887,-3.8202,-3.8202,-3.8202,-3.8202,-3.8202,-3.8202,-3.8969,-3.9546,0.0,-4.163,0.0,0.0,0.0,-4.9339,0.0,0.0,-5.2854,-5.1348,-5.1297,0.0,0.0,0.0,0.0,0.0,0.0,0.0,0.0,0.0,0.0,0.0,0.0,0.0,0.0,0.0,0.0,0.0,0.0,0.0,0.0,0.0,0.0,0.0,0.0,0.0,-4.2108,-4.158,-4.0626,-4.0475,-4.1003,-4.0827,-4.045,-3.9948,-3.9948,-3.9622,-3.9095,-3.8266,-3.7287,-3.626,-3.6508,-3.5931,-3.4956,-3.5357,-3.5157,-3.468,-3.468,-3.4781,-3.4931,-3.4931,-3.5077,-3.5203,-3.5203,-3.5479,-3.5881,-3.6304,-3.6885,-3.7613,-3.8417,-3.8868,-3.8969,-3.8391,-3.8868,-3.9245,-3.8442,-3.8894,-3.9371,-3.917,-3.8994,-3.8793,-3.8341,-3.7789,-3.7437,-3.7437,-3.7556,-3.8169,-3.9809,-3.9892,-4.0049,-4.0904,-4.0354,-3.9928,-3.976,-3.8986,-3.858,-3.8754,-3.9044,-3.9392,-3.9828,-3.9799,-3.9479,-3.8899,-3.8638,-3.8405,-3.8202,-3.8202,-3.8202,-3.8202,-3.8202,-3.797,-3.8818,-3.9521,0.0,-4.2359,-4.4242,-4.6451,-4.9565,0.0,0.0,0.0,0.0,0.0,0.0,0.0,0.0,0.0,0.0,0.0,0.0,0.0,0.0,0.0,0.0,0.0,0.0,0.0,0.0,0.0,0.0,0.0,0.0,0.0,0.0,0.0,0.0,0.0,0.0,0.0,0.0,-4.0676,-3.9546,-3.9195,-3.9521,-3.9521,-3.9346,-3.9019,-3.9019,-3.8843,-3.8467,-3.7563,-3.6659,-3.5881,-3.5981,-3.5504,-3.4731,-3.5056,-3.4956,-3.468,-3.468,-3.4831,-3.5006,-3.5006,-3.5006,-3.5031,-3.5303,-3.5454,-3.5608,-3.6207,-3.6807,-3.7387,-3.8291,-3.8693,-3.8844,-3.8442,-3.8868,-3.917,-3.8492,-3.8894,-3.927,-3.8944,-3.8743,-3.8341,-3.7789,-3.7236,-3.7003,-3.7359,-3.8096,-3.8945,-4.0096,-4.0335,-4.0551,-4.1065,-4.0292,-3.9596,-3.9247,-3.858,-3.8202,-3.8202,-3.858,-3.9073,-3.9712,-3.9625,-3.9305,-3.8812,-3.8667,-3.8463,-3.8202,-3.8202,-3.8202,-3.8202,-3.8202,-3.7883,-3.8693,0.0,0.0,0.0,0.0,0.0,-5.0921,-5.3432,-5.5039,0.0,0.0,0.0,0.0,0.0,0.0,0.0,0.0,0.0,0.0,0.0,0.0,0.0,0.0,0.0,0.0,0.0,0.0,0.0,0.0,0.0,0.0,0.0,0.0,0.0,0.0,0.0,0.0,0.0,0.0,0.0,-3.8442,-3.7939,-3.7939,-3.799,-3.8015,-3.799,-3.7914,-3.7839,-3.7739,-3.7136,-3.6584,-3.6128,-3.5579,-3.5082,-3.468,-3.4675,-3.465,-3.465,-3.46,-3.4881,-3.5357,-3.5357,-3.5357,-3.5458,-3.6031,-3.5906,-3.5608,-3.6207,-3.6832,-3.7387,-3.7864,-3.8391,-3.8844,-3.8844,-3.8894,-3.8894,-3.8793,-3.8768,-3.8768,-3.8718,-3.8291,-3.7813,-3.7331,-3.6827,-3.6849,-3.7834,-3.8901,-3.9648,-3.9731,-3.9917,-4.0321,-4.0873,-3.9886,-3.9189,-3.9102,-3.8551,-3.8202,-3.8202,-3.8202,-3.8463,-3.9073,-3.9625,-3.9421,-3.8318,-3.8841,-3.8812,-3.8202,-3.8202,-3.8202,-3.8202,-3.8202,-3.7883,0.0,-3.9898,0.0,0.0,0.0,0.0,0.0,0.0,0.0,0.0,0.0,0.0,0.0,0.0,0.0,0.0,0.0,0.0,0.0,0.0,0.0,0.0,0.0,0.0,0.0,0.0,0.0,0.0,0.0,0.0,0.0,0.0,0.0,0.0,0.0,0.0,-4.0049,-3.9823,-3.9245,0.0,-3.7688,-3.7362,-3.7387,-3.7814,-3.8015,-3.7965,-3.7111,-3.6508,-3.5959,-3.5002,-3.4525,-3.4424,-3.4299,-3.4449,-3.4675,-3.4248,-3.4073,-3.4022,-3.3571,-3.3796,-3.4248,-3.4248,-3.4248,-3.4349,-3.4901,-3.5257,-3.5608,-3.6207,-3.7061,-3.7864,-3.7965,-3.809,-3.8191,-3.8191,-3.8542,-3.8668,-3.7739,-3.7889,-3.8065,-3.7638,-3.7437,-3.7427,-3.7645,-3.7577,-3.7911,-3.9133,-3.9075,-3.9178,-3.9934,-4.0058,-3.9973,-3.9654,-3.9363,-3.8986,-3.8463,-3.8289,-3.8202,-3.8202,-3.8202,-3.826,-3.8405,-3.8551,-3.8725,-3.8986,-3.8609,-3.8347,-3.8202,-3.8202,-3.8202,-3.8202,-3.8202,-3.7883,0.0,0.0,0.0,0.0,0.0,0.0,0.0,0.0,0.0,0.0,0.0,0.0,0.0,0.0,0.0,0.0,0.0,0.0,0.0,0.0,0.0,0.0,0.0,0.0,0.0,0.0,0.0,0.0,0.0,0.0,0.0,0.0,0.0,0.0,0.0,0.0,-3.8894,-3.9067,-3.8685,-3.7613,-3.8011,-3.7785,-3.7087,-3.6874,-3.6787,-3.6737,-3.5956,-3.5429,-3.5056,-3.4525,-3.4299,-3.4324,-3.4575,-3.4831,-3.5031,-3.4756,-3.47,-3.46,-3.4048,-3.4223,-3.47,-3.47,-3.45,-3.4399,-3.4906,-3.5082,-3.5282,-3.6157,-3.6985,-3.7739,-3.8291,-3.8216,-3.8015,-3.8015,-3.8241,-3.8291,-3.7713,-3.7789,-3.7986,-3.7887,-3.7881,-3.8032,-3.8376,-3.8595,-3.8722,-3.8768,-3.8863,-3.9143,-3.9615,-3.9392,-3.9189,-3.9189,-3.8899,-3.858,-3.8231,-3.8202,-3.8202,-3.8202,-3.8202,-3.8202,-3.8202,-3.8202,-3.8376,-3.8725,-3.8376,-3.8202,-3.8202,-3.8202,-3.8202,-3.8202,-3.8202,-3.7883,0.0,0.0,0.0,0.0,0.0,0.0,0.0,0.0,0.0,0.0,0.0,0.0,0.0,0.0,0.0,0.0,0.0,0.0,0.0,0.0,0.0,0.0,0.0,0.0,0.0,0.0,0.0,0.0,0.0,0.0,0.0,0.0,0.0,0.0,0.0,-3.9045,-3.8329,-3.8515,-3.8204,-3.7384,-3.8379,-3.8148,-3.6867,-3.6045,-3.5578,-3.5332,-3.4781,-3.4575,-3.4575,-3.4474,-3.45,-3.4625,-3.5031,-3.5282,-3.5332,-3.5257,-3.5207,-3.5157,-3.4751,-3.4906,-3.5382,-3.5458,-3.5132,-3.4781,-3.5332,-3.5182,-3.5102,-3.6232,-3.6985,-3.7688,-3.8668,-3.8517,-3.819,-3.8261,-3.8084,-3.7933,-3.7832,-3.7806,-3.7919,-3.8272,-3.8536,-3.8717,-3.9081,-3.9367,-3.9291,-3.8206,-3.8609,-3.9015,-3.9015,-3.8551,-3.8405,-3.8957,-3.8522,-3.8202,-3.8202,-3.8202,-3.8202,-3.8202,-3.8202,-3.8202,-3.8202,-3.8202,-3.8202,-3.8202,-3.8202,-3.8202,-3.8202,-3.8202,-3.8202,-3.8202,-3.8202,-3.7941,0.0,0.0,0.0,0.0,0.0,0.0,0.0,0.0,0.0,0.0,0.0,0.0,0.0,0.0,0.0,0.0,0.0,0.0,0.0,0.0,0.0,0.0,0.0,0.0,0.0,0.0,0.0,0.0,0.0,0.0,0.0,0.0,-3.9779,-3.9466,-3.8636,0.0,-3.9712,-3.8964,-3.8438,-3.8165,-3.7747,-3.7126,-3.6366,-3.635,-3.5817,-3.4756,-3.4248,-3.3997,-3.3972,-3.3495,-3.3571,-3.4022,-3.4098,-3.4399,-3.4731,-3.4299,-3.4123,-3.4098,-3.4022,-3.4374,-3.4856,-3.5332,-3.5132,-3.4781,-3.5332,-3.5458,-3.5608,-3.6759,-3.7839,-3.8718,-3.8869,-3.8869,-3.8868,-3.9314,-3.8527,-3.7577,-3.7059,-3.6955,-3.7045,-3.7391,-3.8112,-3.87,-3.8782,-3.9036,-3.9198,-3.9025,-3.862,-3.8347,-3.8347,-3.826,-3.8231,-3.8318,-3.826,-3.8202,-3.8202,-3.8202,-3.8202,-3.8202,-3.8202,-3.8202,-3.8202,-3.8202,-3.8202,-3.8202,-3.8202,-3.8202,-3.8202,-3.8202,-3.8202,-3.8202,-3.8202,-3.8173,0.0,0.0,0.0,0.0,0.0,0.0,0.0,0.0,0.0,0.0,0.0,0.0,0.0,0.0,0.0,0.0,0.0,0.0,0.0,0.0,0.0,0.0,0.0,0.0,0.0,0.0,0.0,0.0,0.0,0.0,0.0,-3.9141,-3.9352,-3.8955,-3.9071,0.0,-3.9057,-3.9146,-3.9259,-3.9294,-3.8477,-3.7786,-3.7178,-3.7287,-3.6728,-3.566,-3.4641,-3.4195,-3.4127,-3.3384,-3.3262,-3.347,-3.3771,-3.4048,-3.4223,-3.3997,-3.3897,-3.3847,-3.3545,-3.3997,-3.468,-3.4605,-3.4675,-3.47,-3.465,-3.4781,-3.5282,-3.6433,-3.7698,-3.8874,-3.9515,-3.9622,-3.9575,-3.9781,-3.8914,-3.7989,-3.7892,-3.7456,-3.7273,-3.7936,-3.8858,-3.9379,-3.9036,-3.9092,-3.9073,-3.8696,-3.8405,-3.8202,-3.8202,-3.8202,-3.8202,-3.8202,-3.8202,-3.8202,-3.8202,-3.8202,-3.8202,-3.8202,-3.8202,-3.8202,-3.8202,-3.8202,-3.8202,-3.8202,-3.8202,-3.8202,-3.8202,-3.8202,-3.8202,-3.8202,-3.8202,-3.8202,0.0,0.0,0.0,0.0,0.0,0.0,0.0,0.0,0.0,0.0,0.0,0.0,0.0,0.0,0.0,0.0,0.0,0.0,0.0,0.0,0.0,0.0,0.0,0.0,0.0,0.0,0.0,0.0,0.0,0.0,-3.8409,-3.8884,-3.9186,-3.9116,-3.941,-3.9305,-3.878,-3.9297,-3.9584,-3.9625,-3.8928,-3.8269,-3.7753,-3.7923,-3.7585,-3.6836,-3.5136,-3.4397,-3.4314,-3.3454,-3.3111,-3.3162,-3.352,-3.3696,-3.3696,-3.3696,-3.3696,-3.3646,-3.337,-3.3822,-3.4474,-3.4198,-3.4299,-3.4424,-3.4022,-3.4451,-3.5263,-3.6278,-3.7717,-3.9222,-4.0175,-4.0348,-4.025,-4.0359,-3.9601,-3.8788,-3.8544,-3.7964,-3.773,-3.842,-3.9126,-3.9479,-3.9015,-3.8957,-3.8783,-3.8289,-3.8202,-3.8202,-3.8202,-3.8202,-3.8202,-3.8202,-3.8202,-3.8202,-3.8202,-3.8202,-3.8202,-3.8202,-3.8202,-3.8202,-3.8202,-3.8202,-3.8202,-3.8202,-3.8202,-3.8115,-3.797,-3.797,-3.797,-3.797,-3.797,-3.8057,0.0,0.0,0.0,0.0,0.0,0.0,0.0,0.0,0.0,0.0,0.0,0.0,0.0,0.0,0.0,0.0,0.0,0.0,0.0,0.0,0.0,0.0,0.0,0.0,0.0,0.0,0.0,0.0,0.0,0.0,-3.9473,-3.895,-3.9207,-4.0445,-3.9129,-3.8907,-3.9989,-3.9489,-3.8919,-3.8289,-3.8252,-3.7895,-3.7345,-3.7924,-3.8185,-3.7967,-3.5481,-3.4397,-3.4314,-3.3454,-3.3111,-3.3111,-3.3119,-3.3162,-3.3162,-3.3162,-3.3162,-3.3194,-3.3696,-3.3897,-3.4022,-3.4525,-3.4349,-3.3947,-3.3897,-3.4912,-3.6157,-3.6784,-3.8405,-4.0059,-4.0707,-4.0889,-4.0976,-4.1346,-4.0879,-3.9928,-3.8206,-3.8033,-3.8176,-3.8214,-3.8252,-3.8289,-3.826,-3.826,-3.8231,-3.8202,-3.8202,-3.8202,-3.8202,-3.8202,-3.8202,-3.8202,-3.8202,-3.8202,-3.8202,-3.8202,-3.8202,-3.8202,-3.8202,-3.8202,-3.8202,-3.8202,-3.8202,-3.8202,-3.8202,-3.7912,-3.736,-3.736,-3.736,-3.736,-3.736,-3.7651,0.0,0.0,0.0,0.0,0.0,0.0,0.0,0.0,0.0,0.0,0.0,0.0,0.0,0.0,0.0,0.0,0.0,0.0,0.0,0.0,0.0,0.0,0.0,0.0,0.0,0.0,0.0,0.0,0.0,0.0,-3.8782,-3.9102,-3.9345,-3.941,-3.9404,-3.9482,-3.9538,-3.887,-3.8231,-3.7622,-3.8028,-3.7883,-3.7331,-3.7941,-3.8202,-3.8127,-3.6649,-3.5976,-3.5896,-3.4496,-3.3937,-3.3852,-3.3326,-3.3111,-3.3111,-3.3111,-3.3111,-3.3136,-3.3294,-3.3847,-3.4349,-3.3822,-3.4022,-3.4388,-3.4264,-3.5081,-3.635,-3.75,-3.906,-4.053,-4.1152,-4.1483,-4.1511,-4.0793,-4.0748,-4.0347,-3.8456,-3.8121,-3.8202,-3.8202,-3.8202,-3.8202,-3.8202,-3.8202,-3.8202,-3.8202,-3.8202,-3.8202,-3.8202,-3.8202,-3.8202,-3.8202,-3.8202,-3.8202,-3.8202,-3.8202,-3.8202,-3.8202,-3.8202,-3.8202,-3.8202,-3.8202,-3.8202,-3.8202,-3.8202,-3.8086,-3.7883,-3.7506,-3.7302,-3.7302,-3.6867,-3.678,-3.4073,0.0,0.0,0.0,0.0,0.0,0.0,0.0,0.0,0.0,0.0,0.0,0.0,0.0,0.0,0.0,0.0,0.0,0.0,0.0,0.0,0.0,0.0,0.0,0.0,0.0,0.0,0.0,0.0,0.0,-3.9074,-3.9284,-3.9196,-3.8859,-3.9053,-3.8957,-3.858,-3.7912,-3.736,-3.6983,-3.7389,-3.736,-3.6983,-3.7622,-3.7912,-3.7875,-3.752,-3.7,-3.6373,-3.5251,-3.462,-3.4356,-3.3768,-3.3539,-3.3496,-3.3197,-3.3111,-3.3111,-3.3111,-3.3671,-3.4299,-3.337,-3.3915,-3.4824,-3.4517,-3.5489,-3.6907,-3.7905,-3.9257,-4.0517,-4.0943,-4.1089,-4.1018,-4.0554,-4.0263,-3.9886,-3.9015,-3.8667,-3.8463,-3.8231,-3.8202,-3.8202,-3.8202,-3.8202,-3.8202,-3.8202,-3.8202,-3.8202,-3.8202,-3.8202,-3.8202,-3.8202,-3.8202,-3.8202,-3.8202,-3.8202,-3.8202,-3.8202,-3.8202,-3.8202,-3.8202,-3.8202,-3.8202,-3.8202,-3.8202,-3.824,-3.8277,-3.7426,-3.6983,-3.6954,-3.6357,-3.6073,0.0,0.0,0.0,0.0,0.0,0.0,0.0,0.0,0.0,0.0,0.0,0.0,0.0,0.0,0.0,0.0,0.0,0.0,0.0,0.0,0.0,0.0,0.0,0.0,0.0,0.0,0.0,0.0,0.0,-3.9035,-4.0519,-3.9367,-3.8831,-3.9122,-3.7941,-3.7302,-3.7273,-3.6635,-3.6286,-3.6286,-3.6286,-3.6257,-3.6286,-3.6954,-3.7273,-3.7302,-3.7912,-3.7204,-3.5669,-3.5669,-3.5169,-3.4481,-3.4439,-3.4439,-3.4288,-3.3454,-3.3111,-3.3068,-3.3119,-3.347,-3.3847,-3.3338,-3.4093,-3.5129,-3.4664,-3.609,-3.7889,-3.7929,-3.8978,-4.0089,-4.0089,-3.9683,-3.9567,-4.0757,-3.9625,-3.8609,-3.9799,-3.9625,-3.9015,-3.8347,-3.8231,-3.8231,-3.8202,-3.8231,-3.8231,-3.8202,-3.8202,-3.8202,-3.8202,-3.8202,-3.8202,-3.8202,-3.8202,-3.8202,-3.8202,-3.8202,-3.8202,-3.8202,-3.8202,-3.8202,-3.8202,-3.8202,-3.8202,-3.8202,-3.8173,-3.8285,-3.8501,-3.7063,-3.6315,-3.6286,-3.5828,-3.5678,-3.3111,0.0,0.0,0.0,0.0,0.0,0.0,0.0,0.0,0.0,0.0,0.0,0.0,0.0,0.0,0.0,0.0,0.0,0.0,0.0,0.0,0.0,0.0,0.0,0.0,0.0,0.0,0.0,0.0,-4.0322,-4.0251,-3.9042,-3.8169,-3.7854,-3.7476,-3.707,-3.6577,-3.6402,-3.6083,-3.5654,-3.5654,-3.5386,-3.4951,-3.559,-3.6141,-3.6606,-3.7273,-3.7168,-3.6531,-3.6531,-3.6413,-3.6136,-3.5507,-3.4658,-3.3807,-3.439,-3.3717,-3.2616,-3.3847,-3.4374,-3.4564,-3.5113,-3.5487,-3.592,-3.6716,-3.739,-3.8009,-3.8656,-3.9469,-4.0089,-4.0089,-4.0321,-4.0437,-3.9857,-4.0031,-4.0147,-3.9567,-3.9654,-3.9509,-3.8405,-3.8957,-3.9276,-3.8347,-3.8609,-3.8754,-3.8289,-3.8202,-3.8202,-3.8202,-3.8202,-3.8202,-3.8202,-3.8202,-3.8202,-3.8202,-3.8202,-3.8202,-3.8202,-3.8202,-3.8202,-3.8202,-3.8315,-3.8389,-3.8389,-3.8069,-3.7944,-3.7981,-3.7513,-3.7067,-3.6705,-3.5629,-3.52,-3.3273,-3.3244,-3.3545,0.0,0.0,0.0,0.0,-3.5577,0.0,0.0,0.0,0.0,0.0,0.0,0.0,0.0,0.0,0.0,0.0,0.0,0.0,0.0,0.0,0.0,0.0,0.0,0.0,0.0,-4.0735,-4.0263,-3.9363,-3.8376,-3.768,-3.7331,-3.678,-3.6315,-3.5909,-3.5648,-3.5212,-3.4608,-3.4608,-3.4288,-3.3645,-3.4545,-3.5154,-3.559,-3.678,-3.7209,-3.7111,-3.7339,-3.7222,-3.6805,-3.5949,-3.509,-3.4403,-3.4597,-3.4153,-3.3641,-3.4868,-3.5723,-3.6296,-3.6601,-3.7069,-3.7648,-3.8155,-3.8564,-3.8893,-3.9131,-3.9247,-3.9305,-3.9305,-3.9596,-3.977,-3.9305,-3.9567,-3.977,-3.9305,-3.9479,-3.9509,-3.8754,-3.9218,-3.9392,-3.8376,-3.8522,-3.8667,-3.826,-3.8202,-3.8202,-3.8202,-3.8202,-3.8202,-3.8202,-3.8202,-3.8202,-3.8202,-3.8202,-3.8202,-3.8202,-3.8277,-3.8198,-3.7936,-3.8355,-3.8495,-3.8231,-3.7958,-3.7676,-3.7511,-3.7105,-3.6634,-3.6187,-3.5389,-3.51,-3.3647,-3.3708,-3.425,-3.4634,0.0,0.0,-3.5506,-3.552,-3.5752,0.0,0.0,0.0,0.0,0.0,0.0,0.0,0.0,0.0,0.0,0.0,0.0,0.0,0.0,0.0,0.0,0.0,0.0,-4.1192,-4.035,-3.9334,-3.8057,-3.7476,-3.7157,-3.7099,-3.6002,-3.5363,-3.5305,-3.469,-3.4109,-3.3503,-3.3416,-3.3035,-3.2423,-3.3645,-3.4225,-3.4399,-3.6286,-3.7186,-3.736,-3.7883,-3.7663,-3.6961,-3.6188,-3.5774,-3.5561,-3.4658,-3.4727,-3.5358,-3.5982,-3.7127,-3.8238,-3.7945,-3.8671,-3.962,-3.925,-3.959,-3.9973,-3.945,-3.887,-3.8405,-3.8405,-3.8405,-3.8551,-3.9073,-3.8754,-3.8463,-3.9073,-3.9189,-3.9189,-3.9189,-3.9247,-3.9073,-3.8318,-3.826,-3.8289,-3.8202,-3.8202,-3.8202,-3.8202,-3.8202,-3.8202,-3.8202,-3.8202,-3.8202,-3.8202,-3.8202,-3.824,-3.824,-3.8427,-3.8267,-3.7645,-3.8304,-3.8479,-3.7906,-3.783,-3.7458,-3.6916,-3.628,-3.5748,-3.5317,-3.5291,-3.5326,-3.4584,-3.5028,-3.5591,-3.521,0.0,0.0,-3.5811,-3.6498,-3.7358,0.0,0.0,0.0,0.0,0.0,0.0,0.0,0.0,0.0,0.0,0.0,0.0,0.0,0.0,0.0,0.0,0.0,-4.2469,-4.1192,-3.9538,-3.7999,-3.6751,-3.6577,-3.6257,-3.5799,-3.5537,-3.516,-3.4603,-3.4486,-3.4109,-3.3503,-3.2948,-3.2367,-3.1698,-3.251,-3.318,-3.3765,-3.516,-3.6344,-3.7331,-3.7447,-3.7655,-3.7938,-3.7758,-3.7025,-3.6102,-3.6779,-3.6129,-3.5103,-3.6542,-3.7288,-3.7791,-3.8894,-3.9452,-3.9829,-4.0486,-4.0405,-4.0089,-3.9944,-3.9828,-3.9741,-3.9741,-3.9741,-3.9625,-3.9276,-3.9102,-3.9044,-3.916,-3.9189,-3.9189,-3.9189,-3.9596,-3.9567,-3.8405,-3.8638,-3.8812,-3.8289,-3.8202,-3.8202,-3.8202,-3.8202,-3.8202,-3.8202,-3.8202,-3.8202,-3.8202,-3.8352,-3.8427,-3.8427,-3.8612,-3.859,-3.8288,-3.8273,-3.8352,-3.859,-3.7842,-3.6943,-3.5813,-3.6201,-3.635,-3.6234,-3.5693,-3.5457,0.0,0.0,0.0,-3.6619,0.0,0.0,0.0,-3.6776,0.0,0.0,0.0,0.0,0.0,0.0,0.0,0.0,0.0,0.0,0.0,0.0,0.0,0.0,0.0,0.0,0.0,0.0,-4.1512,-4.0263,-3.8667,-3.7476,-3.6838,-3.6199,-3.5712,-3.5421,-3.5101,-3.4748,-3.4399,-3.4399,-3.4109,-3.3503,-3.2832,-3.2133,-3.1495,-3.2191,-3.2687,-3.3093,-3.4695,-3.577,-3.6373,-3.7041,-3.7476,-3.7759,-3.7605,-3.694,-3.6097,-3.6484,-3.631,-3.5963,-3.6754,-3.7797,-3.8761,-3.8922,-3.9384,-3.9979,-4.0463,-4.0583,-4.0583,-4.0583,-4.035,-4.0089,-4.0089,-4.0089,-4.0031,-3.9712,-3.9421,-3.9276,-3.9567,-3.9421,-3.9305,-3.9596,-3.9654,-3.9334,-3.8376,-3.9015,-3.9305,-3.8347,-3.8492,-3.858,-3.8231,-3.8202,-3.8202,-3.8202,-3.8202,-3.824,-3.8315,-3.8352,-3.8389,-3.8493,-3.8686,-3.8613,-3.8179,-3.8542,-3.8537,-3.8109,-3.763,-3.6776,-3.5519,-3.5848,-3.5998,-3.5998,-3.5669,-3.5519,0.0,0.0,0.0,0.0,0.0,-3.8462,0.0,0.0,0.0,0.0,0.0,0.0,0.0,0.0,0.0,0.0,0.0,0.0,0.0,0.0,0.0,0.0,0.0,0.0,0.0,0.0,-4.0263,-3.9102,-3.7825,-3.7012,-3.6751,-3.5764,-3.5218,-3.5218,-3.469,-3.4399,-3.4399,-3.4399,-3.4109,-3.3503,-3.2948,-3.2338,-3.1729,-3.2396,-3.2687,-3.2803,-3.4491,-3.5276,-3.5479,-3.6489,-3.707,-3.7287,-3.7187,-3.6787,-3.6231,-3.5974,-3.6242,-3.6777,-3.6739,-3.7967,-3.9392,-3.8376,-3.8812,-3.9741,-3.9886,-4.0379,-4.0902,-4.0902,-4.0699,-4.0495,-4.0495,-4.0379,-4.0292,-4.0292,-3.9741,-3.9334,-3.9828,-3.9538,-3.9334,-3.9828,-3.9625,-3.916,-3.8522,-3.9247,-3.9567,-3.8551,-3.8841,-3.9015,-3.8463,-3.8289,-3.8202,-3.8202,-3.8202,-3.8277,-3.8427,-3.8352,-3.8389,-3.8538,-3.876,-3.8611,-3.7889,-3.8561,-3.8381,-3.7255,-3.7225,-3.6656,-3.5519,-3.5519,-3.5519,-3.5519,-3.5519,-3.5519,0.0,0.0,0.0,0.0,-4.0238,0.0,0.0,0.0,0.0,0.0,0.0,0.0,0.0,0.0,0.0,0.0,0.0,0.0,0.0,0.0,0.0,0.0,0.0,0.0,0.0,0.0,0.0,-3.8376,-3.7128,-3.5938,-3.4806,-3.4603,-3.4516,-3.4516,-3.4457,-3.4399,-3.4399,-3.4399,-3.4109,-3.3503,-3.3416,-3.3035,-3.2394,-3.3064,-3.3387,-3.3445,-3.4196,-3.4835,-3.5421,-3.5566,-3.6293,-3.736,-3.7858,-3.7676,-3.7155,-3.7102,-3.6793,-3.6375,-3.6375,-3.6903,-3.7593,-3.7447,-3.7854,-3.8522,-3.9131,-3.9741,-4.0205,-4.0205,-4.1018,-4.186,-4.186,-4.1424,-4.0989,-4.0989,-4.006,-3.9218,-3.9305,-3.9247,-3.9218,-3.9305,-3.9683,-3.9799,-3.9189,-3.9218,-3.9247,-3.9102,-3.916,-3.9189,-3.9102,-3.858,-3.8202,-3.8202,-3.8202,-3.8202,-3.824,-3.8538,-3.876,-3.876,-3.909,-3.8967,-3.8098,-3.7599,-3.7109,-3.6596,-3.6596,-3.6237,-3.5519,-3.5519,-3.5519,-3.5519,-3.5519,-3.5519,0.0,0.0,0.0,0.0,0.0,0.0,-3.9601,0.0,-3.9127,0.0,0.0,0.0,0.0,0.0,0.0,0.0,0.0,0.0,0.0,0.0,0.0,0.0,0.0,0.0,0.0,0.0,0.0,0.0,0.0,-3.5909,-3.5009,-3.4603,-3.4399,-3.4399,-3.4399,-3.4399,-3.4399,-3.4399,-3.4283,-3.4022,-3.3678,-3.3358,-3.3064,-3.3387,-3.3503,-3.3532,-3.4138,-3.4574,-3.4835,-3.5247,-3.5712,-3.6286,-3.7273,-3.7302,-3.6693,-3.6315,-3.5996,-3.5706,-3.5328,-3.588,-3.6722,-3.6722,-3.7157,-3.7796,-3.8434,-3.9305,-4.0089,-4.0089,-4.0495,-4.1018,-4.1424,-4.1308,-4.1105,-4.1105,-4.0379,-3.9712,-3.9712,-3.9712,-3.9828,-4.0234,-4.0205,-4.0031,-3.977,-4.0031,-3.9915,-3.8783,-3.9247,-3.945,-3.8725,-3.8376,-3.8202,-3.8202,-3.8202,-3.8277,-3.8538,-3.8612,-3.8723,-3.8943,-3.8763,-3.8692,-3.8847,-3.7834,-3.7182,-3.7015,-3.6656,-3.6178,-3.5519,-3.5519,-3.5519,-3.5519,-3.5519,-3.5519,-4.306,0.0,0.0,0.0,0.0,0.0,0.0,0.0,0.0,0.0,0.0,0.0,0.0,0.0,0.0,-3.8738,0.0,0.0,0.0,0.0,0.0,0.0,0.0,0.0,0.0,0.0,0.0,0.0,-3.678,0.0,-3.5189,-3.4661,-3.4399,-3.4399,-3.4399,-3.4399,-3.4399,-3.4399,-3.4399,-3.4399,-3.3964,-3.3765,-3.3765,-3.3765,-3.3765,-3.3794,-3.4225,-3.4399,-3.4457,-3.4922,-3.5247,-3.5479,-3.6199,-3.6431,-3.6257,-3.5793,-3.5537,-3.5305,-3.4632,-3.5009,-3.5851,-3.6199,-3.6519,-3.6925,-3.7709,-3.8725,-3.9567,-3.9567,-3.9828,-4.0263,-4.0931,-4.096,-4.0873,-4.1047,-4.0466,-3.9857,-3.9857,-3.9857,-4.0002,-4.0466,-4.0176,-3.9915,-4.006,-4.0379,-4.0089,-3.8696,-3.9392,-3.977,-3.8841,-3.8725,-3.8763,-3.8801,-3.8801,-3.8894,-3.9092,-3.8988,-3.8915,-3.8924,-3.8448,-3.8489,-3.911,-3.7853,-3.7225,-3.7404,-3.6806,-3.6178,-3.5519,-3.5699,-3.5669,-3.5519,-3.5519,-3.5519,0.0,0.0,0.0,-4.1713,0.0,0.0,0.0,0.0,-3.9862,0.0,0.0,0.0,0.0,-3.9327,-3.9534,-3.8885,-3.9327,0.0,0.0,0.0,0.0,0.0,0.0,0.0,0.0,0.0,0.0,0.0,-3.7012,0.0,-3.4516,-3.4428,-3.4399,-3.4399,-3.4399,-3.4399,-3.4399,-3.4399,-3.4399,-3.4399,-3.4399,-3.437,-3.437,-3.437,-3.437,-3.437,-3.4399,-3.4399,-3.4399,-3.4428,-3.4806,-3.5334,-3.4719,-3.5241,-3.6315,-3.6286,-3.588,-3.5305,-3.4632,-3.4428,-3.469,-3.5909,-3.5909,-3.5712,-3.6954,-3.7767,-3.826,-3.826,-3.916,-4.0263,-4.0931,-4.0612,-4.0292,-4.0931,-4.0147,-3.9247,-3.9247,-3.9247,-3.9247,-3.9247,-3.9247,-3.9421,-4.0002,-3.9625,-3.9247,-3.9189,-3.9683,-4.0089,-4.0031,-4.0031,-4.0139,-4.0432,-4.0432,-4.0246,-3.9829,-3.9928,-3.9579,-3.8512,-3.8392,-3.8392,-3.8422,-3.7195,-3.6806,-3.7404,-3.6806,-3.6178,-3.5519,-3.6148,-3.6118,-3.5519,-3.5519,-3.5519,0.0,0.0,-4.308,-4.2252,0.0,0.0,0.0,0.0,0.0,0.0,0.0,0.0,0.0,-3.9668,-3.9609,-3.9824,-3.9668,-3.9133,0.0,0.0,0.0,0.0,0.0,0.0,0.0,0.0,0.0,-3.7193,-3.6241,-3.5299,0.0,-3.4399,-3.4399,-3.4399,-3.4399,-3.4399,-3.4399,-3.4399,-3.4399,-3.4399,-3.4399,-3.4399,-3.4399,-3.4399,-3.4399,-3.4399,-3.4399,-3.4399,-3.4399,-3.4399,-3.4545,-3.4748,-3.4985,-3.5561,-3.6257,-3.5822,-3.5822,-3.5967,-3.5735,-3.5386,-3.5183,-3.6025,-3.617,-3.6141,-3.7041,-3.7738,-3.8202,-3.8202,-3.8522,-3.8986,-3.9683,-3.9683,-3.9567,-3.9799,-3.9509,-3.9073,-3.8638,-3.9189,-3.9799,-3.9799,-3.9799,-4.0002,-4.0641,-3.9886,-3.9334,-3.9741,-4.035,-4.0651,-4.0402,-4.0383,-4.0461,-4.0656,-4.0694,-4.0683,-4.0668,-4.0412,-4.0114,-3.9738,-3.8871,-3.8781,-3.9679,-3.8033,-3.7404,-3.8033,-3.7434,-3.6776,-3.6148,-3.6387,-3.6148,-3.5519,-3.5519,-3.5519,-4.1692,-4.2132,0.0,0.0,-4.1354,0.0,-4.0217,0.0,0.0,0.0,0.0,0.0,0.0,0.0,-3.9828,-4.0008,-3.9499,-3.8601,0.0,-3.7003,0.0,0.0,0.0,0.0,0.0,0.0,-3.7572,-3.6551,-3.5846,-3.5136,0.0,0.0,-3.4399,-3.4399,-3.4399,-3.4399,-3.4399,-3.4399,-3.4399,-3.4399,-3.4399,-3.4399,-3.4399,-3.4399,-3.4399,-3.4399,-3.4399,-3.4399,-3.4399,-3.4399,-3.4399,-3.4457,-3.4864,-3.5415,-3.5938,-3.5799,-3.5967,-3.6286,-3.6054,-3.5851,-3.5799,-3.617,-3.646,-3.678,-3.7418,-3.7883,-3.826,-3.8492,-3.8376,-3.8405,-3.9305,-3.9189,-3.8899,-3.9131,-3.9015,-3.8725,-3.8289,-3.8841,-3.9421,-3.9421,-3.9421,-3.9829,-4.1018,-4.0529,-3.9914,-3.978,-4.0525,-4.0913,-4.0431,-4.0752,-4.1163,-4.145,-4.1244,-4.0947,-4.0531,-3.9994,-3.9499,-3.905,-3.8392,-3.8332,-3.899,-3.7973,-3.7734,-3.8392,-3.7734,-3.7225,-3.6806,-3.6596,-3.6148,-3.5519,-3.5519,-3.5639]}]]